[[{"header":{"parameterUnit":"m.s-1","parameterCategory":1,"la1":30.6,"la2":29.2853,"lo1":-89.7004,"lo2":-87.6739,"dy":0.0162,"dx":0.0183,"nx":112,"ny":82,"refTime":"2023-03-23T12:00:00:Z","depth":0,"parameterNumber":2,"parameterNumberName":"U-component_of_WINDS"},"data":[0.0,0.0,0.0,0.0,0.0,0.0,0.0,0.0,0.0,0.0,0.0,0.0,0.0,0.0,0.0,0.0,0.0,0.0,0.0,0.0,0.0,0.0,0.0,0.0,0.0,0.0,0.0,0.0,0.0,0.0,0.0,0.0,0.0,0.0,0.0,0.0,0.0,0.0,0.0,0.0,0.0,0.0,0.0,0.0,0.0,0.0,0.0,0.0,0.0,0.0,0.0,0.0,0.0,0.0,0.0,0.0,0.0,0.0,0.0,0.0,0.0,0.0,0.0,0.0,0.0,0.0,0.0,0.0,0.0,0.0,0.0,0.0,0.0,0.0,0.0,0.0,0.0,0.0,0.0,0.0,0.0,0.0,0.0,0.0,0.0,0.0,0.0,0.0,0.0,0.0,-1.4684,-1.5255,-1.6599,-1.7246,-1.7044,-1.677,-1.6302,-1.5527,0.0,0.0,0.0,0.0,0.0,0.0,0.0,0.0,0.0,0.0,0.0,0.0,0.0,0.0,0.0,0.0,0.0,0.0,0.0,0.0,0.0,0.0,0.0,0.0,0.0,0.0,0.0,0.0,0.0,0.0,0.0,0.0,0.0,0.0,0.0,0.0,0.0,0.0,0.0,0.0,0.0,0.0,0.0,0.0,0.0,0.0,0.0,0.0,0.0,0.0,0.0,0.0,0.0,0.0,0.0,0.0,0.0,0.0,0.0,0.0,0.0,0.0,0.0,0.0,0.0,0.0,0.0,0.0,0.0,0.0,0.0,0.0,0.0,0.0,0.0,0.0,0.0,0.0,0.0,0.0,0.0,0.0,0.0,0.0,0.0,0.0,0.0,0.0,0.0,0.0,0.0,0.0,0.0,0.0,0.0,0.0,0.0,0.0,0.0,0.0,0.0,0.0,0.0,0.0,-1.6601,-1.8824,-1.9125,-1.908,-1.9072,-1.8703,-1.7735,-1.6159,0.0,0.0,0.0,0.0,0.0,0.0,0.0,0.0,0.0,0.0,0.0,0.0,0.0,0.0,0.0,0.0,0.0,0.0,0.0,0.0,0.0,0.0,0.0,0.0,0.0,0.0,0.0,0.0,0.0,0.0,0.0,0.0,0.0,0.0,0.0,0.0,0.0,0.0,0.0,0.0,0.0,0.0,0.0,0.0,0.0,0.0,0.0,0.0,0.0,0.0,0.0,0.0,0.0,0.0,0.0,0.0,0.0,0.0,0.0,0.0,0.0,0.0,0.0,0.0,0.0,0.0,0.0,0.0,0.0,0.0,0.0,0.0,0.0,0.0,0.0,0.0,0.0,0.0,0.0,0.0,0.0,0.0,0.0,0.0,0.0,0.0,0.0,0.0,0.0,0.0,0.0,0.0,0.0,0.0,0.0,0.0,0.0,0.0,0.0,0.0,0.0,0.0,0.0,-1.5829,-1.7345,-1.976,-1.9886,-1.9621,-1.953,-1.9155,-1.8327,-1.6862,-1.6692,0.0,0.0,0.0,0.0,0.0,0.0,0.0,0.0,0.0,0.0,0.0,0.0,0.0,0.0,0.0,0.0,0.0,0.0,0.0,0.0,0.0,0.0,0.0,0.0,0.0,0.0,0.0,0.0,0.0,0.0,0.0,0.0,0.0,0.0,0.0,0.0,0.0,0.0,0.0,0.0,0.0,0.0,0.0,0.0,0.0,0.0,0.0,0.0,0.0,0.0,0.0,0.0,0.0,0.0,0.0,0.0,0.0,0.0,0.0,0.0,0.0,0.0,0.0,0.0,0.0,0.0,0.0,0.0,0.0,0.0,0.0,0.0,0.0,0.0,0.0,0.0,0.0,0.0,0.0,0.0,0.0,0.0,0.0,0.0,0.0,0.0,0.0,0.0,0.0,0.0,0.0,0.0,0.0,0.0,0.0,0.0,0.0,0.0,0.0,0.0,0.0,0.0,-1.7733,-1.8493,-2.0676,-2.061,-2.0439,-2.0167,-1.9877,-1.9098,-1.7511,-1.7859,0.0,0.0,0.0,0.0,0.0,0.0,0.0,0.0,0.0,0.0,0.0,0.0,0.0,0.0,0.0,0.0,0.0,0.0,0.0,0.0,0.0,0.0,0.0,0.0,0.0,0.0,0.0,0.0,0.0,0.0,0.0,0.0,0.0,0.0,0.0,0.0,0.0,0.0,0.0,0.0,0.0,0.0,0.0,0.0,0.0,0.0,0.0,0.0,0.0,0.0,0.0,0.0,0.0,0.0,0.0,0.0,0.0,0.0,0.0,0.0,0.0,0.0,0.0,0.0,0.0,0.0,0.0,0.0,0.0,0.0,0.0,0.0,0.0,0.0,0.0,0.0,0.0,0.0,0.0,0.0,0.0,0.0,0.0,0.0,0.0,0.0,0.0,0.0,0.0,0.0,0.0,0.0,0.0,0.0,0.0,0.0,0.0,0.0,0.0,0.0,0.0,0.0,-1.9763,-2.1221,-2.2765,-2.252,-2.2255,-2.2167,-2.1811,-2.0533,-1.8241,-1.8742,0.0,0.0,0.0,0.0,0.0,0.0,0.0,0.0,0.0,0.0,0.0,0.0,0.0,0.0,0.0,0.0,0.0,0.0,0.0,0.0,0.0,0.0,0.0,0.0,0.0,0.0,0.0,0.0,0.0,0.0,0.0,0.0,0.0,0.0,0.0,0.0,0.0,0.0,0.0,0.0,0.0,0.0,0.0,0.0,0.0,0.0,0.0,0.0,0.0,0.0,0.0,0.0,0.0,0.0,0.0,0.0,0.0,0.0,0.0,0.0,0.0,0.0,0.0,0.0,0.0,0.0,0.0,0.0,0.0,0.0,0.0,0.0,0.0,0.0,0.0,0.0,0.0,0.0,0.0,0.0,0.0,0.0,0.0,0.0,0.0,0.0,0.0,0.0,0.0,0.0,0.0,0.0,0.0,0.0,0.0,0.0,0.0,0.0,0.0,0.0,0.0,0.0,-2.0165,-2.148,-2.2931,-2.2794,-2.2618,-2.2432,-2.2087,-2.0871,-1.8377,0.0,0.0,0.0,0.0,0.0,0.0,0.0,0.0,0.0,0.0,0.0,0.0,0.0,0.0,0.0,0.0,0.0,0.0,0.0,0.0,0.0,0.0,0.0,0.0,0.0,0.0,0.0,0.0,0.0,0.0,0.0,0.0,0.0,0.0,0.0,0.0,0.0,0.0,0.0,0.0,0.0,0.0,0.0,0.0,0.0,0.0,0.0,0.0,0.0,0.0,0.0,0.0,0.0,0.0,0.0,0.0,0.0,0.0,0.0,0.0,0.0,0.0,0.0,0.0,0.0,0.0,0.0,0.0,0.0,0.0,0.0,0.0,0.0,0.0,0.0,0.0,0.0,0.0,0.0,0.0,0.0,0.0,0.0,0.0,0.0,0.0,0.0,0.0,0.0,0.0,0.0,0.0,0.0,0.0,0.0,0.0,0.0,0.0,0.0,0.0,0.0,0.0,-1.9246,-2.0589,-2.183,-2.2931,-2.2794,-2.253,-2.2353,-2.2097,-2.0871,-1.8377,0.0,0.0,0.0,0.0,0.0,0.0,0.0,0.0,0.0,0.0,0.0,0.0,0.0,0.0,0.0,0.0,0.0,0.0,0.0,0.0,0.0,0.0,0.0,0.0,0.0,0.0,0.0,0.0,0.0,0.0,0.0,0.0,0.0,0.0,0.0,0.0,0.0,0.0,0.0,0.0,0.0,0.0,0.0,0.0,0.0,0.0,0.0,0.0,0.0,0.0,0.0,0.0,0.0,0.0,0.0,0.0,0.0,0.0,0.0,0.0,0.0,0.0,0.0,0.0,0.0,0.0,0.0,0.0,0.0,0.0,0.0,0.0,0.0,0.0,0.0,0.0,0.0,0.0,0.0,0.0,0.0,0.0,0.0,0.0,0.0,0.0,0.0,0.0,0.0,0.0,0.0,0.0,0.0,0.0,0.0,0.0,0.0,0.0,0.0,0.0,0.0,0.0,-1.9706,-2.1373,-2.253,-2.2794,-2.253,-2.2353,-2.2097,-2.183,-2.0697,0.0,0.0,0.0,0.0,0.0,0.0,0.0,0.0,0.0,0.0,0.0,0.0,0.0,0.0,0.0,0.0,0.0,0.0,0.0,0.0,0.0,0.0,0.0,0.0,0.0,0.0,0.0,0.0,0.0,0.0,0.0,0.0,0.0,0.0,0.0,0.0,0.0,0.0,0.0,0.0,0.0,0.0,0.0,0.0,0.0,0.0,0.0,0.0,0.0,0.0,0.0,0.0,0.0,0.0,0.0,0.0,0.0,0.0,0.0,0.0,0.0,0.0,0.0,0.0,0.0,0.0,0.0,0.0,0.0,0.0,0.0,0.0,0.0,0.0,0.0,0.0,0.0,0.0,0.0,0.0,0.0,0.0,0.0,0.0,0.0,0.0,0.0,0.0,0.0,0.0,0.0,0.0,0.0,0.0,0.0,0.0,0.0,0.0,0.0,0.0,0.0,0.0,0.0,-1.9706,-2.1556,-2.2706,-2.2794,-2.2441,-2.2185,-2.2097,-2.183,-2.0815,-1.8685,0.0,0.0,0.0,0.0,0.0,0.0,0.0,0.0,0.0,0.0,0.0,0.0,0.0,0.0,0.0,0.0,0.0,0.0,0.0,0.0,0.0,0.0,0.0,0.0,0.0,0.0,0.0,0.0,0.0,0.0,0.0,0.0,0.0,0.0,0.0,0.0,0.0,0.0,0.0,0.0,0.0,0.0,0.0,0.0,0.0,0.0,0.0,0.0,0.0,0.0,0.0,0.0,0.0,0.0,0.0,0.0,0.0,0.0,0.0,0.0,0.0,0.0,0.0,0.0,0.0,0.0,0.0,0.0,0.0,0.0,0.0,0.0,0.0,0.0,0.0,0.0,0.0,0.0,0.0,0.0,0.0,0.0,0.0,0.0,0.0,0.0,0.0,0.0,0.0,0.0,0.0,0.0,0.0,0.0,0.0,0.0,0.0,0.0,0.0,0.0,0.0,0.0,-1.9885,-2.1469,-2.2539,-2.2539,-2.2274,-2.2097,-2.1919,-2.182,-2.102,-1.9309,0.0,0.0,0.0,0.0,0.0,0.0,0.0,0.0,0.0,0.0,0.0,0.0,0.0,0.0,0.0,0.0,0.0,0.0,0.0,0.0,0.0,0.0,0.0,0.0,0.0,0.0,0.0,0.0,0.0,0.0,0.0,0.0,0.0,0.0,0.0,0.0,0.0,0.0,0.0,0.0,0.0,0.0,0.0,0.0,0.0,0.0,0.0,0.0,0.0,0.0,0.0,0.0,0.0,0.0,0.0,0.0,0.0,0.0,0.0,0.0,0.0,0.0,0.0,0.0,0.0,0.0,0.0,0.0,0.0,0.0,0.0,0.0,0.0,0.0,0.0,0.0,0.0,0.0,0.0,0.0,0.0,0.0,0.0,0.0,0.0,0.0,0.0,0.0,0.0,0.0,0.0,0.0,0.0,0.0,0.0,0.0,0.0,0.0,0.0,0.0,0.0,0.0,-2.0072,-2.1314,-2.2097,-2.2097,-2.2097,-2.1919,-2.1741,-2.1741,-2.1235,-2.013,0.0,0.0,0.0,0.0,0.0,0.0,0.0,0.0,0.0,0.0,0.0,0.0,0.0,0.0,0.0,0.0,0.0,0.0,0.0,0.0,0.0,0.0,0.0,0.0,0.0,0.0,0.0,0.0,0.0,0.0,0.0,0.0,0.0,0.0,0.0,0.0,0.0,0.0,0.0,0.0,0.0,0.0,0.0,0.0,0.0,0.0,0.0,0.0,0.0,0.0,0.0,0.0,0.0,0.0,0.0,0.0,0.0,0.0,0.0,0.0,-0.4916,-0.3433,0.0,0.0,0.0,0.0,0.0,0.0,0.0,0.0,0.0,0.0,0.0,0.0,0.0,0.0,0.0,0.0,0.0,0.0,0.0,0.0,0.0,0.0,0.0,0.0,0.0,0.0,0.0,0.0,0.0,0.0,0.0,0.0,0.0,0.0,0.0,0.0,0.0,0.0,0.0,0.0,-2.0063,-2.1314,-2.2097,-2.2097,-2.1919,-2.1741,-2.1741,-2.1741,-2.1353,-2.0437,-1.9871,0.0,0.0,0.0,0.0,0.0,0.0,0.0,0.0,0.0,0.0,0.0,0.0,0.0,0.0,0.0,0.0,0.0,0.0,0.0,0.0,0.0,0.0,0.0,0.0,0.0,0.0,0.0,0.0,0.0,0.0,0.0,0.0,0.0,0.0,0.0,0.0,0.0,0.0,0.0,0.0,0.0,0.0,0.0,0.0,0.0,0.0,0.0,0.0,0.0,0.0,0.0,0.0,0.0,0.0,0.0,0.0,0.0,0.0,0.0,-0.4952,-0.4089,0.0,0.0,0.0,0.0,0.0,0.0,0.0,0.0,0.0,0.0,0.0,0.0,0.0,0.0,0.0,0.0,0.0,0.0,0.0,0.0,0.0,0.0,0.0,0.0,0.0,0.0,0.0,0.0,0.0,0.0,0.0,0.0,0.0,0.0,0.0,0.0,0.0,0.0,0.0,0.0,-1.9648,-2.0956,-2.1919,-2.1919,-2.1741,-2.1741,-2.1741,-2.1741,-2.156,-2.1085,-2.044,0.0,0.0,0.0,0.0,0.0,0.0,0.0,0.0,0.0,0.0,0.0,0.0,0.0,0.0,0.0,0.0,0.0,0.0,0.0,0.0,0.0,0.0,0.0,0.0,0.0,0.0,0.0,0.0,0.0,0.0,0.0,0.0,0.0,0.0,0.0,0.0,0.0,0.0,0.0,0.0,0.0,0.0,0.0,0.0,0.0,0.0,0.0,0.0,0.0,0.0,0.0,0.0,0.0,-0.2059,-0.256,-0.2637,-0.3004,-0.371,-0.4699,-0.3802,-0.3977,-0.4771,-0.3586,0.0,0.0,0.0,0.0,0.0,0.0,0.0,0.0,0.0,0.0,0.0,0.0,0.0,0.0,0.0,0.0,0.0,0.0,0.0,0.0,0.0,0.0,-1.4553,-1.4553,-1.4923,-1.512,-1.4702,0.0,0.0,0.0,0.0,0.0,0.0,0.0,0.0,0.0,0.0,0.0,-1.9402,-2.0738,-2.1741,-2.1741,-2.1741,-2.1741,-2.1741,-2.1741,-2.1741,-2.1741,-2.0848,-2.0166,0.0,0.0,0.0,0.0,0.0,0.0,0.0,0.0,0.0,0.0,0.0,0.0,0.0,0.0,0.0,0.0,0.0,0.0,0.0,0.0,0.0,0.0,0.0,0.0,0.0,0.0,0.0,0.0,0.0,0.0,0.0,0.0,2.3128,2.3105,0.0,0.0,0.0,0.0,0.0,0.0,0.0,0.0,0.0,0.0,0.0,0.0,0.0,0.2127,0.0969,-0.1601,-0.3133,-0.3747,-0.5202,-0.595,-0.5953,-0.603,-0.6046,-0.6079,-0.6038,0.0,-0.4864,-0.4784,0.0,0.0,0.0,0.0,0.0,0.0,0.0,0.0,0.0,0.0,0.0,0.0,0.0,0.0,0.0,0.0,0.0,0.0,0.0,0.0,0.0,0.0,-1.5617,-1.5617,-1.5651,-1.5664,-1.5624,-1.4943,-1.4308,-1.418,-1.4877,-1.549,0.0,0.0,0.0,0.0,0.0,0.0,-2.0227,-2.1103,-2.1741,-2.1741,-2.1741,-2.1741,-2.1741,-2.1741,-2.1741,-2.1741,-2.1551,-2.0808,-1.9341,-1.9127,0.0,0.0,0.0,0.0,0.0,0.0,0.0,0.0,0.0,0.0,0.0,0.0,0.0,0.0,0.0,0.0,0.0,0.0,0.0,0.0,0.0,0.0,0.0,0.0,0.0,0.0,0.0,0.0,0.0,2.3675,2.2492,2.2601,2.1475,2.0197,0.0,0.0,0.0,0.0,0.0,0.0,0.0,0.0,0.0,0.2059,-0.0076,-0.2198,-0.4187,-0.5101,-0.5653,-0.5904,-0.6751,-0.6945,-0.6641,-0.6714,-0.6714,-0.6641,-0.6318,-0.6232,-0.6314,-0.5888,-0.5032,-0.4034,0.0,0.0,0.0,0.0,-0.5937,-0.6702,-0.7446,-0.7758,-0.7747,-0.7503,0.0,0.0,0.0,0.0,0.0,0.0,0.0,-1.3057,-1.4482,-1.4963,-1.5233,-1.5657,-1.5832,-1.5832,-1.5832,-1.5437,-1.5021,-1.4773,-1.4876,-1.4932,-1.4897,-1.6023,0.0,0.0,0.0,-2.0061,-2.0421,-2.1228,-2.1741,-2.1741,-2.1741,-2.1741,-2.1741,-2.1741,-2.1741,-2.1741,-2.1741,-2.1212,-2.0228,-1.9531,-1.8651,0.0,0.0,0.0,0.0,0.0,0.0,0.0,0.0,0.0,0.0,0.0,0.0,0.0,0.0,0.0,0.0,0.0,0.0,0.0,0.0,0.0,0.0,0.0,0.0,0.0,0.0,0.0,0.0,2.3497,2.2235,2.2155,2.1118,1.9813,0.0,0.0,0.0,0.0,0.0,0.0,0.2106,0.1564,0.0448,-0.1376,-0.3415,-0.5578,-0.7889,-0.7496,-0.7257,-0.7257,-0.7407,-0.7326,-0.7019,-0.7169,-0.7246,-0.7169,-0.6707,-0.6798,-0.7358,-0.6627,-0.5996,-0.548,-0.5583,-0.5707,-0.5939,-0.6145,-0.6666,-0.7199,-0.7788,-0.8021,-0.801,-0.7971,-0.8545,-0.9225,-0.9639,0.0,0.0,0.0,0.0,-1.3003,-1.4276,-1.4591,-1.4786,-1.5411,-1.5611,-1.5611,-1.5611,-1.5458,-1.5405,-1.5318,-1.5409,-1.5424,-1.5293,-1.666,0.0,-1.7884,-1.9272,-2.0386,-2.0571,-2.1016,-2.1374,-2.1374,-2.1374,-2.1374,-2.1374,-2.1463,-2.1553,-2.1553,-2.1642,-2.1463,-2.0817,-1.9991,-1.9081,-1.83,0.0,0.0,0.0,0.0,0.0,0.0,0.0,0.0,0.0,0.0,0.0,0.0,0.0,0.0,0.0,0.0,0.0,0.0,0.0,0.0,0.0,0.0,0.0,0.0,0.0,0.0,0.0,0.0,0.0,2.197,2.0418,0.0,0.0,0.0,0.0,0.8434,0.4097,0.0219,-0.2601,-0.2449,-0.3529,-0.6357,-0.6213,-0.6754,-0.8084,-0.771,-0.7484,-0.7484,-0.7484,-0.771,-0.8003,-0.8008,-0.8008,-0.8008,-0.8003,-0.7729,-0.7358,-0.6884,-0.645,-0.604,-0.6241,-0.5785,-0.5113,-0.5996,-0.6389,-0.6583,-0.7607,-0.8013,-0.8162,-0.8006,-0.8369,-0.9493,-1.2003,-1.1729,0.0,0.0,-1.2903,-1.3051,-1.4327,-1.4591,-1.4687,-1.4997,-1.501,-1.501,-1.501,-1.4606,-1.4556,-1.5551,-1.7274,-1.8355,-1.7477,0.0,-2.0316,-2.0298,-2.0053,-2.0112,-2.0917,-2.0637,-2.0382,-2.0382,-2.0382,-2.0382,-2.0382,-2.0826,-2.1087,-2.1087,-2.1463,-2.1284,-2.0382,-2.0257,-1.9443,-1.7874,-1.8089,0.0,0.0,0.0,0.0,0.0,0.0,0.0,0.0,0.0,0.0,0.0,0.0,0.0,0.0,0.0,0.0,0.0,0.0,0.0,0.0,0.0,0.0,0.0,0.0,0.0,0.0,0.0,0.0,2.1652,2.0471,0.0,1.8243,1.2472,0.7937,0.6062,0.0656,-0.3836,-0.6891,-0.6149,-0.6723,-0.913,-0.8304,-0.8156,-0.8856,-0.8708,-0.8403,-0.7868,-0.8394,-0.8466,-0.8084,-0.8613,-0.8765,-0.847,-0.8089,-0.7974,-0.7979,-0.7605,-0.7323,-0.7267,-0.7491,-0.7364,-0.7063,-0.7302,-0.7327,-0.7421,-0.7746,-0.8285,-0.9052,-1.0191,-1.068,-1.1288,-1.2923,-1.2954,-1.254,-1.3249,-1.3366,-1.3343,-1.3975,-1.4046,-1.4179,-1.4462,-1.4597,-1.4597,-1.4597,-1.4423,-1.4609,-1.5631,-1.6335,-1.6602,-1.6228,-1.8143,-1.9445,-1.911,-1.9539,-2.0017,-2.058,-2.0279,-2.0018,-2.0266,-2.0292,-2.0292,-2.0292,-2.0464,-2.0645,-2.0997,-2.1177,-2.0916,-2.0292,-2.0292,-1.9711,-1.8454,-1.8937,-1.854,0.0,0.0,0.0,0.0,0.0,0.0,0.0,0.0,0.0,0.0,0.0,0.0,0.0,0.0,0.0,0.0,0.0,0.0,0.0,0.0,0.0,0.0,0.0,0.0,0.0,0.0,2.2399,2.111,2.0342,1.951,1.8529,1.1188,0.5926,0.4375,-0.2581,-0.7673,-0.9766,-0.9095,-0.9261,-1.0663,-0.976,-0.9463,-0.9695,-0.9473,-0.917,-0.8784,-0.9079,-0.9145,-0.8993,-0.9301,-0.9231,-0.9008,-0.847,-0.8246,-0.8259,-0.784,-0.7757,-0.7875,-0.8243,-0.8271,-0.8032,-0.7921,-0.7856,-0.7768,-0.8113,-0.8632,-0.941,-1.1408,-1.2015,-1.2186,-1.3307,-1.3483,-1.3307,-1.3483,-1.3313,-1.3266,-1.3448,-1.3578,-1.3629,-1.3907,-1.4039,-1.4039,-1.4039,-1.4039,-1.4291,-1.5241,-1.5763,-1.6275,-1.6627,-1.8283,-1.9364,-1.8797,-1.9242,-1.9633,-1.9583,-1.9366,-1.9234,-1.9611,-1.9644,-1.9694,-1.982,-1.9819,-2.0155,-2.0718,-2.0792,-2.0694,-2.0283,-2.0043,-1.9452,-1.847,-1.9011,-1.8894,-1.8136,0.0,0.0,0.0,0.0,0.0,0.0,0.0,0.0,0.0,0.0,0.0,0.0,0.0,0.0,0.0,0.0,0.0,0.0,0.0,0.0,0.0,0.0,0.0,2.2995,2.2598,2.176,2.038,1.9888,1.9365,1.8485,0.9303,0.3436,0.3436,-0.5625,-1.1186,-1.1186,-1.1186,-1.1111,-1.1111,-1.0738,-1.0519,-1.0513,-0.9771,-0.962,-1.0218,-0.9458,-0.9679,-1.0738,-0.9992,-0.9625,-0.9544,-0.9155,-0.8627,-0.8025,-0.7638,-0.759,-0.7789,-0.8296,-0.8187,-0.7621,-0.7785,-0.7764,-0.768,-0.8632,-0.8978,-0.9323,-1.1322,-1.2015,-1.2186,-1.3137,-1.3222,-1.3052,-1.3137,-1.2881,-1.2705,-1.3052,-1.3058,-1.3137,-1.3307,-1.3398,-1.3398,-1.3398,-1.3398,-1.3561,-1.4314,-1.597,-1.7715,-1.8862,-1.98,-2.018,-1.9451,-1.9234,0.0,-1.8137,-1.7892,-1.7882,-1.8232,-1.8271,-1.8406,-1.8764,-1.8938,-1.9346,-2.0266,-2.0403,-2.0448,-2.0275,-1.966,-1.8835,-1.789,-1.8308,-1.8995,-1.9789,0.0,0.0,0.0,0.0,0.0,0.0,0.0,0.0,0.0,0.0,0.0,0.0,0.0,0.0,0.0,0.0,0.0,0.0,0.0,0.0,0.0,0.0,2.3329,2.2807,2.2403,2.1843,2.0895,2.0336,1.9669,1.8878,0.9546,0.3212,0.2694,-0.6408,-1.2231,-1.2826,-1.2298,-1.1855,-1.1558,-1.1111,-1.0812,-1.0513,-1.0594,-1.0582,-1.0645,-1.0726,-1.0588,-1.0368,-1.0293,-0.9836,-0.9155,-0.878,-0.8246,-0.7638,-0.7411,-0.7057,-0.6731,-0.717,-0.7315,-0.7357,-0.7232,-0.7661,-0.8368,-0.9323,-1.0101,-1.089,-1.21,-1.2528,-1.2619,-1.3052,-1.3052,-1.2875,-1.3052,-1.2619,-1.2272,-1.2705,-1.2534,-1.2363,-1.279,-1.2875,-1.2875,-1.2875,-1.2875,-1.33,-1.481,-1.5533,-1.6247,-1.7183,-1.8093,-1.8632,-1.8447,-1.8116,-1.7921,-1.792,-1.7604,-1.7453,-1.7548,-1.7556,-1.7699,-1.8033,-1.8153,-1.8709,-2.0249,-2.0288,-2.0369,-2.0292,-2.0436,-2.0403,-2.0136,-1.9418,-1.929,0.0,0.0,0.0,0.0,0.0,0.0,0.0,0.0,0.0,0.0,0.0,0.0,0.0,0.0,0.0,0.0,0.0,0.0,0.0,0.0,0.0,0.0,2.3619,2.2763,2.2558,2.215,2.1571,2.0841,2.0063,1.9365,1.8613,1.0805,0.4717,0.1989,-0.5485,-1.0985,-1.3331,-1.3046,-1.2599,-1.2231,-1.2003,-1.1632,-1.126,-1.1186,-1.118,-1.1391,-1.0956,-1.0663,-1.0588,-1.0062,-0.9458,-0.8699,-0.8246,-0.771,-0.7249,-0.6949,-0.6644,-0.6352,0.0,0.0,0.0,0.0,-0.7534,-0.8277,-0.9497,-1.0284,-1.0895,-1.1843,-1.2272,-1.2448,-1.2619,-1.2705,-1.2705,-1.2875,-1.2448,-1.21,-1.2357,-1.21,-1.1757,-1.2015,-1.21,-1.2186,-1.2357,-1.2619,-1.3294,-1.481,-1.5311,0.0,-1.6566,-1.7383,-1.79,-1.7586,-1.7454,-1.7335,-1.7229,-1.7127,-1.7111,-1.7262,-1.7405,-1.762,-1.7962,-1.7993,0.0,0.0,0.0,-2.0162,-2.0183,-2.0245,0.0,0.0,0.0,-1.9909,-2.0688,-2.0196,0.0,0.0,-2.0137,-2.0296,0.0,0.0,0.0,0.0,0.0,0.0,0.0,0.0,0.0,0.0,0.0,0.0,0.0,0.0,0.0,0.0,2.2355,2.1877,2.2408,2.1765,2.1008,2.042,1.9573,1.869,1.7842,1.2457,0.682,0.1503,-0.3779,-0.8714,-1.3244,-1.3564,0.0,0.0,0.0,-1.2673,-1.215,-1.1484,-1.1484,-1.2224,-1.0663,-1.0293,-1.0881,-0.9453,-0.8623,-0.8169,-0.7561,-0.7096,-0.6788,-0.6412,-0.6183,-0.6197,-0.6583,-0.6398,-0.6025,-0.6982,-0.7436,-0.7815,-0.9323,0.0,0.0,-1.0982,-1.1585,-1.1929,-1.1929,-1.2186,-1.2534,-1.2534,-1.2186,-1.1843,-1.1929,-1.158,-1.1241,-1.1322,-1.1327,-1.1413,-1.1929,-1.2528,-1.3385,-1.4482,-1.5235,-1.5899,-1.6566,-1.7302,-1.7599,-1.6954,-1.7105,-1.7033,-1.6381,-1.654,-1.6841,-1.7127,-1.7413,0.0,-1.8144,-1.8184,-1.8816,-2.0175,-2.0064,-1.9992,-2.0175,-1.9703,-1.9617,-2.0157,-2.0157,-2.0679,-2.1741,-2.1741,-2.1741,-2.1624,-2.0643,-2.0585,0.0,0.0,0.0,0.0,0.0,0.0,0.0,0.0,0.0,0.0,0.0,0.0,0.0,0.0,0.0,2.3437,2.2913,2.2592,2.2919,2.1479,2.0291,2.0161,1.9441,1.8499,1.7198,1.2207,0.682,0.1503,-0.3779,-0.8714,-1.3244,-1.4049,-1.36,-1.2003,-1.2799,-1.2652,-1.1335,-1.1186,-1.1335,-1.1781,-1.0663,0.0,-0.9599,-0.8542,-0.7706,-0.7173,-0.6479,-0.617,-0.6096,-0.587,-0.5479,-0.5101,-0.5781,-0.5993,-0.6025,-0.6982,-0.7707,-0.8345,-0.9538,-1.0289,-1.0809,-1.1149,-1.1322,-1.1413,-1.1413,-1.1494,0.0,-1.158,-1.1241,-1.0982,-1.1327,-1.1068,-1.0804,-1.1241,-1.1327,-1.1494,-1.2357,-1.279,-1.3385,-1.4748,-1.5409,-1.5899,-1.6394,-1.673,-1.687,-1.6724,-1.6772,-1.6788,-1.6643,-1.669,-1.6651,-1.6436,-1.6468,-1.677,-1.7421,-1.7477,-1.8295,-2.0141,-2.0567,-2.0944,-2.1325,-2.0864,-2.0864,-2.1325,-2.1414,-2.1496,-2.1741,-2.1741,-2.1741,-2.1731,-2.1664,-2.1803,0.0,0.0,0.0,0.0,0.0,0.0,0.0,0.0,0.0,0.0,0.0,2.4455,0.0,0.0,2.3319,2.3276,2.2949,2.2543,2.2175,2.0921,2.0096,2.0096,1.8824,1.7541,1.6446,1.3558,0.9608,0.428,0.1238,-0.2419,-0.6976,-0.7801,-0.8309,-0.8589,-0.9168,-0.9966,-1.0944,-1.026,-1.026,-1.095,-0.9518,-0.8685,-0.838,-0.7548,-0.6861,-0.6244,-0.5783,-0.5395,-0.5162,-0.4929,-0.4621,-0.4316,-0.4681,-0.5135,-0.5684,-0.6473,-0.7322,-0.8174,-0.9123,-0.97,-1.0062,-1.026,-1.0463,-1.0636,-1.0722,-1.0982,-1.1154,-1.1241,-1.0982,-1.0722,-1.1494,-1.0982,-1.0467,-1.1154,-1.1327,-1.1494,-1.2186,-1.3039,-1.3977,-1.4915,-1.5499,-1.5997,-1.6312,-1.6476,-1.6566,-1.6656,-1.673,-1.673,-1.673,-1.673,-1.6667,-1.6484,-1.6635,-1.6961,-1.7477,-1.8287,-1.9251,-2.0257,-2.0916,-2.1454,-2.1731,-2.1463,-2.1454,-2.1741,-2.1741,-2.1741,-2.1741,-2.1741,-2.1741,-2.1741,-2.2087,-2.2264,0.0,0.0,0.0,0.0,0.0,0.0,0.0,0.0,2.5768,2.5155,2.4976,2.4717,2.3999,2.3692,2.3441,2.317,2.2957,2.2396,2.125,2.0677,2.0291,2.0096,1.7111,1.53,1.5965,1.4042,1.1028,0.7013,0.6225,0.3914,-0.0662,-0.1625,-0.3053,-0.5286,-0.5504,-0.7127,-1.0254,-0.9039,-0.8893,-0.9825,-0.7995,-0.708,-0.708,-0.6398,-0.578,-0.5234,-0.5007,-0.4616,-0.4148,-0.3912,-0.368,-0.3528,-0.3528,-0.404,-0.4994,-0.5894,-0.6704,-0.7499,-0.8585,-0.8932,-0.8985,-0.9147,-0.9483,-0.9859,-1.0033,-1.0381,-1.0727,-1.1068,-1.0895,-1.0809,-1.1757,-1.1068,-1.0381,-1.1327,-1.1408,-1.1494,-1.2266,-1.3457,-1.4566,-1.509,-1.5673,-1.6162,-1.6229,-1.6312,-1.6476,-1.6648,-1.673,-1.673,-1.673,-1.673,-1.673,-1.673,-1.7,-1.7334,-1.7731,-1.9246,-2.0215,-2.0292,-2.1195,-2.1741,-2.1741,-2.1741,-2.1741,-2.1741,-2.1741,-2.1741,-2.1741,-2.1741,-2.1741,-2.183,-2.2176,-2.2441,2.6785,2.6603,2.7114,2.7748,2.7559,2.7423,0.0,0.0,2.6624,2.6202,2.5788,2.5383,2.4939,2.4486,2.3968,2.3374,2.3255,2.2713,2.1313,2.1302,2.1049,1.9966,1.3061,1.0698,1.6528,1.0455,0.6256,0.6695,0.6225,0.3914,-0.0662,-0.2129,-0.3483,-0.4919,-0.5635,-0.6813,-0.838,-0.7918,-0.7936,-0.8507,-0.6707,-0.578,-0.5631,-0.4768,-0.4226,-0.3997,-0.3522,-0.3288,-0.321,-0.2821,-0.2666,-0.2666,-0.2431,-0.2904,-0.3783,-0.5539,-0.6157,-0.6357,-0.8151,-0.8655,-0.8713,-0.8985,-0.9198,-0.9345,-0.9432,-0.9432,-0.9689,-1.0463,-1.0636,-1.0809,-1.1757,-1.1413,-1.1154,-1.202,-1.1757,-1.1752,-1.3457,-1.4139,-1.4566,-1.5257,-1.5756,-1.5997,-1.5824,-1.6147,-1.6476,-1.6648,-1.673,-1.673,-1.673,-1.673,-1.673,-1.673,-1.677,-1.7056,-1.7715,-1.91,-2.0021,-2.0266,-2.1195,-2.1741,-2.1741,-2.1741,-2.1741,-2.1741,-2.1741,-2.1741,-2.1741,-2.1741,-2.183,-2.2097,-2.2264,-2.2441,2.8464,2.7916,2.7765,0.0,2.8673,2.8433,2.8135,2.7736,2.7094,2.6019,2.5673,2.5412,2.4808,2.4465,2.4105,0.0,2.3374,2.264,2.0794,2.1112,2.1239,2.0204,0.9346,0.5822,1.5883,0.9297,0.5989,0.9834,0.9601,0.83,0.6003,0.5021,0.3387,0.0761,0.0379,-0.1369,-0.4637,-0.4428,-0.4508,-0.473,-0.413,-0.3673,-0.3439,-0.3127,-0.2895,-0.2823,-0.2511,-0.2354,-0.2276,-0.212,-0.2042,-0.212,-0.2042,-0.2199,-0.2749,-0.4742,-0.5707,-0.628,-0.7721,-0.8162,-0.8176,-0.8472,-0.8679,-0.8767,-0.8965,-0.9087,-0.9257,-1.0294,-1.0636,-1.0977,-1.2448,-1.2186,-1.1843,-1.2948,-1.2942,-1.2942,-1.388,-1.4573,-1.5082,-1.5347,-1.5597,-1.5673,-1.5741,-1.5899,-1.6147,-1.6476,-1.6648,-1.673,-1.673,-1.673,-1.673,-1.673,-1.6921,-1.7331,-1.8164,-1.9154,-2.0058,-2.0709,-2.1365,-2.1741,-2.1741,-2.1741,-2.1741,-2.1741,-2.1741,-2.1741,-2.1741,-2.183,-2.2008,-2.2097,-2.2441,-2.2618,2.8925,0.0,0.0,2.9194,2.9346,2.9101,2.821,2.786,2.737,2.6048,2.5673,2.5522,2.4964,2.4694,2.435,2.3813,2.3741,2.3002,2.0846,2.1542,2.1039,1.7754,0.6136,0.1718,1.0111,0.5039,0.4389,1.2045,1.2003,1.1409,1.0812,1.0218,0.8348,0.4865,0.4786,0.2698,-0.1549,-0.1636,-0.1636,-0.1705,-0.1715,-0.1563,-0.133,-0.1643,-0.1723,-0.1568,-0.1571,-0.1493,-0.1336,-0.1493,-0.165,-0.1729,-0.2042,-0.2198,-0.2354,-0.4457,-0.5389,-0.587,-0.7242,-0.7715,-0.7717,-0.8061,-0.8174,-0.8247,-0.8603,-0.8918,-0.9356,-1.0448,-1.0982,-1.1585,-1.3137,-1.296,-1.2522,-1.3626,-1.3789,-1.3795,-1.4307,-1.4915,-1.5431,-1.5431,-1.5431,-1.5423,-1.5575,-1.565,-1.5816,-1.6147,-1.6476,-1.6648,-1.6648,-1.673,-1.673,-1.673,-1.6969,-1.748,-1.8432,-1.9236,-2.0026,-2.0962,-2.1454,-2.1741,-2.1741,-2.1741,-2.1741,-2.1741,-2.1731,-2.1731,-2.1741,-2.2008,-2.2176,-2.2185,-2.2627,-2.2803,0.0,0.0,2.8388,2.9194,2.9243,2.9088,2.9042,2.8288,2.7444,2.6774,2.6176,2.5797,2.5839,2.5397,2.4765,2.4092,2.4523,2.415,2.1854,2.2955,2.0535,1.1074,0.3749,-0.1236,0.0,-0.4571,-0.047,1.17,1.2003,1.1409,1.0812,1.0218,0.842,0.5087,0.501,0.3398,-0.0,-0.0234,-0.039,-0.0469,-0.0,0.0391,0.0705,-0.0392,-0.0629,-0.0393,-0.055,-0.055,-0.0471,-0.11,-0.1335,-0.1414,-0.2429,-0.2818,-0.2973,-0.4921,-0.5079,-0.4771,-0.6791,-0.7446,-0.743,-0.7688,-0.7886,-0.8057,-0.8243,-0.8967,-0.9936,-1.1,-1.1929,-1.2875,-1.3828,-1.3568,-1.3209,-1.4139,-1.4048,-1.3964,-1.4831,-1.5257,-1.5431,-1.5431,-1.5431,-1.5431,-1.5431,-1.5582,-1.5733,-1.5733,-1.6147,-1.6476,-1.6648,-1.673,-1.673,-1.673,-1.6746,-1.7199,-1.8415,-1.8896,-1.9731,-2.0944,-2.1454,-2.1741,-2.1741,-2.1741,-2.1741,-2.1741,-2.1919,-2.1919,-2.1741,-2.2176,-2.2353,-2.2441,-2.2706,-2.2882,0.0,0.0,2.9114,2.9922,3.0061,2.9837,2.9136,2.8748,2.8207,2.6864,2.6098,2.5707,2.5631,2.5275,2.4845,2.4477,2.4873,2.4526,2.2469,2.317,2.2233,1.7729,0.6487,0.0,0.0,0.0,0.0,0.5071,0.979,1.1694,1.0293,0.9539,0.83,0.6517,0.5899,0.4822,0.3124,0.2969,0.2971,0.2969,0.2737,0.2506,0.2195,0.1099,0.055,0.0471,0.0628,0.0393,-0.0157,-0.0393,-0.102,-0.1883,-0.243,-0.2899,-0.3366,-0.4691,-0.5002,-0.5004,-0.6553,-0.7053,-0.7118,-0.7474,-0.7549,-0.7627,-0.797,-0.8853,-0.9897,-1.0805,-1.1878,-1.2875,-1.3828,-1.3913,-1.3822,-1.4314,-1.4307,-1.4307,-1.4999,-1.5173,-1.5257,-1.5347,-1.5431,-1.5431,-1.5431,-1.5423,-1.559,-1.5914,-1.6237,-1.6476,-1.6648,-1.673,-1.673,-1.673,-1.6984,-1.7499,-1.849,-1.9262,-2.0057,-2.1011,-2.1487,-2.1741,-2.1741,-2.1741,-2.1741,-2.1919,-2.2008,-2.2097,-2.2176,-2.253,-2.2715,-2.2706,-2.2882,-2.3057,0.0,2.9046,2.9518,3.0303,3.0384,3.007,2.9393,2.9166,2.8732,2.7399,2.6526,2.5871,2.5509,2.5176,2.4632,2.3891,2.4518,2.4514,2.2867,2.3257,2.1207,1.424,0.4928,-0.1828,0.0,0.0,0.0,0.1744,0.8201,1.1323,0.9992,0.916,0.8237,0.7314,0.6234,0.5464,0.4932,0.4548,0.4235,0.3992,0.3446,0.2743,0.2038,0.157,0.1021,0.055,0.0707,0.055,-0.0,-0.0314,-0.1256,-0.2431,-0.3059,-0.345,-0.3915,-0.4851,-0.524,-0.5395,-0.6475,-0.6865,-0.6883,-0.7223,-0.734,-0.7371,-0.7789,-0.8655,-0.9683,-1.0746,-1.1746,-1.2837,-1.3802,-1.4088,-1.4166,-1.4237,-1.4405,-1.4566,-1.4908,-1.509,-1.5257,-1.5347,-1.5431,-1.5431,-1.5431,-1.5423,-1.5673,-1.6004,-1.6245,-1.6476,-1.6648,-1.673,-1.673,-1.673,-1.7147,-1.7704,-1.8554,-1.9437,-2.026,-2.108,-2.1502,-2.1741,-2.1741,-2.182,-2.1919,-2.2097,-2.2274,-2.2362,-2.2441,-2.2706,-2.2882,-2.2803,-2.2969,-2.3309,2.9052,2.945,2.9632,3.0344,3.0156,2.9853,2.981,2.9438,2.8919,2.8354,2.7306,2.6243,0.0,0.0,2.4293,2.2724,2.3716,2.4259,2.3106,2.3444,1.7868,0.0,0.0,0.0,0.0,0.0,0.0,0.1249,0.7398,1.0663,0.9922,0.9084,0.8313,0.754,0.5999,0.5231,0.5321,0.4309,0.3524,0.2896,0.2272,0.1567,0.0784,0.1099,0.0864,0.0079,-0.0,-0.0,-0.0079,-0.0943,-0.1963,-0.2982,-0.4084,-0.447,-0.4462,-0.5246,-0.5559,-0.5712,-0.6556,-0.671,-0.6641,-0.7026,-0.718,-0.7289,-0.7616,-0.8379,-0.9325,-1.0553,-1.1603,-1.2603,-1.3646,-1.399,-1.4088,-1.4082,-1.4405,-1.465,-1.4741,-1.5082,-1.5431,-1.5431,-1.5431,-1.5431,-1.5431,-1.5582,-1.5824,-1.6087,-1.6237,-1.6476,-1.6656,-1.673,-1.6738,-1.6738,-1.7147,-1.7778,-1.8528,-1.9428,-2.0251,-2.1053,-2.1493,-2.1741,-2.1741,-2.2008,-2.2185,-2.2097,-2.2627,-2.2794,-2.252,-2.296,-2.3135,-2.2969,-2.3135,-2.3734,2.9317,2.9814,3.0278,3.0477,3.0426,3.0258,2.9897,2.9438,2.8794,2.7798,2.6654,2.5595,0.0,0.0,0.0,2.4291,2.5001,0.0,2.4789,2.4749,0.0,0.948,0.0,-0.532,-1.6196,-1.0025,0.0,0.0,0.5744,1.189,0.9992,0.8537,0.7693,0.754,0.5458,0.4691,0.5321,0.4927,0.446,0.3992,0.3052,0.2741,0.2899,0.1488,0.1019,0.1333,0.0392,-0.0079,-0.0314,-0.1021,-0.1963,-0.2982,-0.3454,-0.3843,-0.4226,-0.4776,-0.501,-0.524,-0.5786,-0.6018,-0.6173,-0.6641,-0.6868,-0.703,-0.7308,-0.8191,-0.9183,-0.9528,-1.093,-1.2306,-1.1873,-1.2974,-1.3997,-1.3372,-1.388,-1.4566,-1.4915,-1.509,-1.5257,-1.5347,-1.5431,-1.5431,-1.5431,-1.5756,-1.6004,-1.6087,-1.6409,-1.6648,-1.6648,-1.673,-1.6812,-1.7147,-1.7635,-1.8074,-1.8672,-1.9704,-2.0389,-2.0659,-2.1521,-2.2008,-2.2008,-2.2862,-2.3125,-2.2627,-2.3377,-2.38,-2.3983,-2.4069,-2.4488,-2.5073,-2.5062,-2.5242,2.9258,2.9648,2.9957,2.9957,2.9957,2.9816,2.9187,2.8796,2.8168,2.6749,2.5894,0.0,2.3938,0.0,0.0,0.0,0.0,0.0,2.4833,2.1593,1.597,0.0,-0.1499,0.0,-1.8901,-1.1481,-0.6849,0.0,0.4535,1.1668,0.9458,0.8156,0.7387,0.7088,0.5154,0.4304,0.4621,0.4774,0.446,0.3679,0.2976,0.2663,0.2665,0.1488,0.094,0.0862,0.0157,-0.0549,-0.1177,-0.157,-0.2198,-0.2982,-0.3141,-0.353,-0.3992,-0.4231,-0.4462,-0.4771,-0.5087,-0.5479,-0.5867,-0.6335,-0.6637,-0.6942,-0.7103,-0.7785,-0.8503,-0.8982,-0.9972,-1.0941,-1.0985,-1.2242,-1.3407,-1.3074,-1.3873,-1.4741,-1.5006,-1.5249,-1.5416,-1.5499,-1.5499,-1.5499,-1.5499,-1.5914,-1.6245,-1.6245,-1.6656,-1.6984,-1.6984,-1.6984,-1.7147,-1.7392,-1.7959,-1.8512,-1.8931,-1.9915,-2.0754,-2.1493,-2.2226,-2.2853,-2.3367,-2.4125,-2.4145,-2.3387,-2.4307,-2.4734,-2.4498,-2.4914,-2.5326,-2.5819,-2.5819,-2.5997,2.9085,2.9305,2.935,2.935,2.9305,2.9069,2.8234,2.7866,2.7209,2.5573,0.0,2.4477,2.3025,2.3173,2.3487,2.3287,0.0,2.415,2.4435,1.7211,0.8832,0.0509,-0.8237,-1.7081,-2.5945,-1.4415,-0.7169,-0.903,0.3832,1.0852,0.8775,0.7927,0.7084,0.6325,0.4924,0.407,0.3763,0.4309,0.4073,0.2974,0.2586,0.2117,0.1568,0.1332,0.0705,-0.0078,-0.0157,-0.0862,-0.1882,-0.204,-0.2354,-0.2904,-0.2982,-0.3295,-0.3684,-0.3763,-0.4075,-0.4462,-0.4698,-0.509,-0.5637,-0.6103,-0.6563,-0.6942,-0.7103,-0.733,-0.7667,-0.8604,-0.8987,-0.9329,-1.03,-1.1598,-1.2692,-1.2868,-1.388,-1.4999,-1.5166,-1.5492,-1.5733,-1.5741,-1.5733,-1.5733,-1.5741,-1.6147,-1.6394,-1.6476,-1.6976,-1.7473,-1.7627,-1.7554,-1.7473,-1.7554,-1.8282,-1.9012,-1.9324,-2.0283,-2.1417,-2.273,-2.3348,-2.4114,-2.5126,-2.5484,-2.5316,-2.4296,-2.54,-2.5579,-2.4829,-2.5579,-2.608,-2.6163,-2.6152,-2.6659,2.9257,2.938,2.947,2.947,2.938,2.8992,2.787,2.7103,0.0,0.0,2.3692,2.3031,2.2124,2.2083,2.26,2.4035,0.0,0.0,0.0,0.0,0.9377,0.0,0.0,0.0,0.0,-1.391,0.0,0.0,0.3882,1.0953,0.8846,0.7927,0.6615,0.4613,0.454,0.4309,0.3841,0.4077,0.4077,0.3843,0.2586,0.2275,0.2746,0.1332,0.0862,0.1019,0.0627,0.0157,-0.0471,-0.1178,-0.1492,-0.1649,-0.2354,-0.2824,-0.3297,-0.3686,-0.4075,-0.4462,-0.4857,-0.5249,-0.5637,-0.5864,-0.6402,-0.6942,-0.6942,-0.7173,-0.7565,-0.7752,-0.8411,-0.8983,-0.8655,-1.0068,-1.1689,-1.2099,-1.3099,-1.4216,-1.5318,-1.565,-1.5741,-1.6004,-1.5824,-1.5741,-1.6004,-1.6237,-1.6558,-1.6886,-1.7229,-1.7708,-1.8647,-1.8264,-1.804,-1.8451,-1.9073,-1.9546,-1.9816,-2.1572,-2.2726,-2.2804,-2.4283,-2.5231,-2.54,-2.6423,-2.6494,-2.5484,-2.6423,-2.6846,-2.6764,-2.6846,-2.7348,-2.8007,-2.8223,-2.8383,2.8094,2.8094,2.8143,2.8143,2.8094,2.7674,2.6201,0.0,0.0,0.0,2.2028,2.1667,2.1082,0.0,0.0,0.0,0.0,0.0,0.0,0.0,0.0,0.0,0.0,0.0,0.0,-1.5174,-0.7696,-0.9086,0.2802,0.9476,0.8156,0.685,0.5696,0.4618,0.4621,0.4543,0.4151,0.3841,0.3686,0.3532,0.2666,0.2431,0.2747,0.2117,0.1489,0.1097,0.1411,0.102,-0.0079,-0.0707,-0.1256,-0.1805,-0.2277,-0.2906,-0.353,-0.3847,-0.4157,-0.4462,-0.4779,-0.5171,-0.5637,-0.6022,-0.6483,-0.6865,-0.6865,-0.7173,-0.7484,-0.7484,-0.8159,-0.8892,-0.8697,-1.0347,-1.2219,-1.2723,-1.3921,-1.5144,-1.5899,-1.5989,-1.5997,-1.6245,-1.6154,-1.6147,-1.6237,-1.6648,-1.6976,-1.7221,-1.8023,-1.8736,-1.9283,-1.9659,-1.9737,-1.9222,-1.9923,-2.0643,-2.1048,-2.2342,-2.3646,-2.4815,-2.5677,-2.64,-2.6999,-2.7592,-2.7429,-2.6588,-2.7429,-2.7684,-2.7185,-2.7684,-2.8167,-2.8657,-2.8724,-2.8882,2.6923,2.6901,2.6953,2.6953,2.6901,2.6396,2.4604,2.3789,0.0,0.0,2.0395,2.0268,1.9953,0.0,2.027,0.0,0.0,0.0,0.0,0.0,0.0,0.0,0.0,0.0,0.0,-1.6265,0.0,-0.916,0.163,0.7923,0.723,0.5774,0.501,0.4937,0.4779,0.4465,0.4226,0.3604,0.3215,0.2982,0.2589,0.2354,0.2433,0.2669,0.204,0.0784,0.1883,0.1491,0.0079,-0.0079,-0.0785,-0.1648,-0.2358,-0.2827,-0.337,-0.3927,-0.4081,-0.4226,-0.4776,-0.5165,-0.5556,-0.618,-0.6641,-0.6942,-0.6942,-0.7249,-0.7484,-0.7484,-0.8021,-0.8598,-0.9179,-1.0807,-1.2517,-1.3587,-1.5039,-1.6245,-1.6394,-1.6237,-1.6245,-1.6402,-1.6476,-1.6558,-1.6648,-1.7139,-1.7635,-1.787,-1.8895,-1.9756,-2.0226,-2.1211,-2.1517,-2.0518,-2.1225,-2.1988,-2.2453,-2.3426,-2.474,-2.6673,-2.7069,-2.758,-2.8431,-2.851,-2.8179,-2.7592,-2.8179,-2.8179,-2.7592,-2.8247,-2.8657,-2.8882,-2.887,-2.904,2.6755,2.7004,2.7071,2.7071,2.7004,2.6292,2.3927,0.0,0.0,1.9985,1.9121,1.8715,1.8821,1.8857,1.9291,0.0,0.0,2.2469,0.0,0.0,0.0,0.0,0.0,0.0,0.0,-1.5772,-0.8077,-0.9148,0.1208,0.7153,0.6076,0.5395,0.4937,0.4701,0.4543,0.4151,0.3524,0.3217,0.2904,0.2589,0.2117,0.2041,0.2123,0.2201,0.1572,0.0707,0.1571,0.1414,0.055,0.0943,0.0786,0.0157,-0.2044,-0.2278,-0.1723,-0.3292,-0.3604,-0.3443,-0.516,-0.5473,-0.5237,-0.6251,-0.6714,-0.6942,-0.7103,-0.733,-0.7484,-0.7484,-0.7718,-0.8069,-0.9027,-1.01,-1.1514,-1.4014,-1.553,-1.6394,-1.6394,-1.6394,-1.6402,-1.6648,-1.6894,-1.7057,-1.731,-1.7635,-1.8273,-1.9283,-1.952,-2.0294,-2.2155,-2.2542,-2.2681,-2.2947,-2.3404,-2.37,-2.3578,-2.5498,-2.6736,-2.6778,-2.7742,-2.8419,-2.851,-2.851,-2.8578,-2.8633,-2.8578,-2.8669,-2.8895,-2.8803,-2.8882,-2.9052,-2.9263,-2.9341,2.5791,2.5906,2.5877,2.5494,2.5039,2.4259,2.2682,0.0,2.0382,1.8947,1.8038,1.7589,1.8027,1.7863,1.7975,1.888,0.0,0.0,0.0,0.0,0.0,0.0,0.0,0.0,0.0,0.0,-1.1465,-0.5708,0.2558,0.6623,0.4927,0.4698,0.4621,0.454,0.3919,0.3526,0.3368,0.2826,0.2435,0.2278,0.1805,0.157,0.165,0.165,0.1415,0.1021,0.0314,-0.0079,-0.0079,0.0079,-0.0157,-0.0784,-0.1335,-0.1883,-0.2427,-0.2823,-0.3134,-0.3446,-0.4307,-0.4851,-0.5318,-0.5941,-0.656,-0.7103,-0.718,-0.7334,-0.7561,-0.7642,-0.8097,-0.8794,-1.0079,-1.1939,-1.3863,-1.539,-1.6139,-1.6648,-1.6976,-1.6812,-1.673,-1.7383,-1.7383,-1.7383,-1.7716,-1.8425,-1.9134,-1.9529,-2.0682,-2.1766,-2.2617,-2.3446,-2.4146,-2.4579,-2.4637,-2.463,-2.4703,-2.6184,-2.7293,-2.7799,-2.8259,-2.859,-2.8645,-2.8645,-2.8803,-2.8961,-2.8895,-2.8973,-2.9131,-2.904,-2.9118,-2.9275,-2.9341,-2.9509,2.4722,2.4842,2.4908,2.4452,2.3717,2.2721,0.0,0.0,1.8934,1.7922,1.7224,1.6899,1.7168,1.7067,1.7067,1.7567,0.0,1.9341,1.9504,0.0,0.0,0.0,0.0,-1.5491,0.0,-1.8955,-1.1107,-0.0642,0.4753,0.6479,0.4155,0.4233,0.4389,0.4309,0.353,0.3139,0.3136,0.2434,0.2044,0.1887,0.1335,0.1178,0.1257,0.1021,0.0786,0.0471,-0.0628,-0.1021,-0.0786,-0.0786,-0.1099,-0.149,-0.1021,-0.1491,-0.2586,-0.2586,-0.2744,-0.2979,-0.3761,-0.4382,-0.4851,-0.578,-0.6479,-0.7099,-0.7484,-0.7638,-0.7642,-0.7949,-0.8971,-1.0242,-1.145,-1.3607,-1.5677,-1.6343,-1.673,-1.6984,-1.731,-1.7221,-1.7302,-1.787,-1.7878,-1.7878,-1.8129,-1.9063,-1.9913,-2.0216,-2.1614,-2.2852,-2.3298,-2.4315,-2.5142,-2.563,-2.5737,-2.5902,-2.6062,-2.6988,-2.7787,-2.8486,-2.8578,-2.8657,-2.8803,-2.8882,-2.8961,-2.9197,-2.9131,-2.9131,-2.93,-2.9209,-2.9275,-2.9509,-2.9509,-2.9611,2.349,2.4027,2.4509,2.4509,2.3563,2.2287,0.0,0.0,1.8374,1.7062,1.6807,1.6637,1.6228,1.6513,1.6864,1.7011,1.7357,0.0,1.9763,0.0,0.0,0.0,0.0,-0.8734,-1.6565,-1.243,-0.4863,0.5907,0.7718,0.6957,0.3997,0.4164,0.4325,0.4079,0.361,0.3062,0.2511,0.22,0.1808,0.1335,0.0864,0.0864,0.1257,0.0393,-0.0471,-0.1257,-0.0786,-0.0864,-0.1257,-0.1257,-0.1335,-0.1335,-0.1257,-0.1335,-0.1414,-0.2429,-0.2273,-0.1885,-0.3988,-0.4146,-0.3756,-0.5844,-0.6465,-0.6773,-0.8237,-0.825,-0.7953,-0.8551,-1.0368,-1.2312,-1.3073,-1.4569,-1.6046,-1.6561,-1.7066,-1.7392,-1.7392,-1.7716,-1.7959,-1.804,-1.8371,-1.87,-1.87,-1.9548,-2.0537,-2.1507,-2.2295,-2.3224,-2.4574,-2.5224,-2.5666,-2.602,-2.7055,-2.7705,-2.7717,-2.8198,-2.851,-2.851,-2.8724,-2.8791,-2.8791,-2.8961,-2.9197,-2.9419,-2.9197,-2.93,-2.9792,-2.9521,-2.9509,-2.9792,-2.9792,-2.9792,2.2236,2.2312,2.2216,2.1773,2.0737,1.9621,1.9011,0.0,1.7275,1.6363,1.6161,1.6228,1.64,1.6285,1.6285,1.6684,1.6708,0.0,0.0,0.0,0.0,0.0,0.0,-1.9239,0.0,0.0,-0.6582,-0.0143,0.5072,0.6806,0.3919,0.3934,0.3936,0.3927,0.3301,0.283,0.2515,0.1886,0.1493,0.1257,0.055,-0.0079,-0.0471,-0.0786,-0.1021,-0.1257,-0.1178,-0.1178,-0.1335,-0.1335,-0.1335,-0.1335,-0.1335,-0.1415,-0.1571,-0.1884,-0.1961,-0.2118,-0.3056,-0.368,-0.4226,-0.5154,-0.6314,-0.7472,-0.8084,-0.8318,-0.8556,-0.9165,-1.0614,-1.2177,-1.308,-1.4576,-1.6126,-1.6976,-1.7473,-1.7878,-1.821,-1.8129,-1.8201,-1.8745,-1.9371,-1.9825,-2.0079,-2.1364,-2.2424,-2.2723,-2.357,-2.4388,-2.5175,-2.5803,-2.6394,-2.7128,-2.7742,-2.8025,-2.7717,-2.8355,-2.8724,-2.8724,-2.8882,-2.904,-2.9184,-2.9263,-2.9431,-2.9702,-2.9624,-2.9624,-2.9792,-2.9702,-2.9702,-2.9792,-2.9792,-2.9792,0.0,2.0711,2.0556,2.0111,1.887,0.0,0.0,0.0,1.6161,1.5526,1.5642,1.5874,1.5748,1.5748,1.5931,1.6343,1.6104,0.0,0.0,0.0,0.0,0.0,0.0,0.0,0.0,-1.0122,-0.7358,0.0647,0.5089,0.6426,0.3923,0.3777,0.3781,0.3777,0.2516,0.1887,0.2044,0.1257,0.0786,0.0786,0.0079,-0.055,-0.1021,-0.1257,-0.1335,-0.1335,-0.1335,-0.1335,0.0,-0.1415,-0.1493,-0.1493,-0.1493,-0.1572,-0.1729,-0.1963,-0.2199,-0.2511,-0.2981,-0.3682,-0.4382,-0.5002,-0.6619,-0.8389,-0.8613,-0.8993,-0.9473,-1.01,-1.1301,-1.2655,-1.3722,-1.5078,-1.6452,-1.7415,-1.7959,-1.8362,-1.862,-1.8692,-1.8754,-1.9311,-1.9991,-2.0595,-2.0837,-2.2274,-2.3327,-2.3463,-2.4399,-2.525,-2.5777,-2.6528,-2.7271,-2.7876,-2.835,-2.8472,-2.8251,-2.8621,-2.8882,-2.8882,-2.9118,-2.9275,-2.9419,-2.9781,-2.9883,-2.9792,-3.0368,-3.0368,-2.9792,-2.9792,-2.9792,-2.9792,-2.9792,-2.9934,0.0,0.0,0.0,0.0,0.0,0.0,0.0,0.0,0.0,0.0,0.0,1.5633,1.4501,1.4991,1.571,1.6056,1.5187,0.0,0.0,0.0,0.0,0.0,-1.1768,0.0,0.1745,-0.6689,-0.7189,0.6727,0.7192,0.5892,0.3851,0.37,0.3624,0.3624,0.1178,0.0314,0.11,0.0393,-0.0079,-0.0079,-0.0471,-0.0629,-0.0629,-0.11,-0.1335,-0.1335,-0.1335,-0.1415,-0.165,-0.165,-0.1729,-0.1887,-0.1964,-0.1964,-0.2043,-0.2669,-0.2902,-0.2981,-0.3684,-0.3992,-0.4302,-0.5386,-0.7306,-0.9226,-0.9614,-1.0067,-1.0645,-1.1207,-1.2258,-1.3571,-1.4896,-1.5959,-1.6894,-1.7789,-1.8362,-1.8772,-1.878,-1.925,-1.9636,-1.9715,-2.0537,-2.1211,-2.1288,-2.2489,-2.3559,-2.3948,-2.4897,-2.5775,-2.6433,-2.7381,-2.8102,-2.8304,-2.8836,-2.9131,-2.9197,-2.9131,-2.9131,-2.9197,-2.9419,-2.9561,-2.9561,-3.0519,-3.0696,-3.0011,-3.1368,-3.1368,-2.9934,-2.9934,-2.9934,-2.9934,-2.9934,-3.0355,1.7656,0.0,1.8201,1.7911,1.7482,0.0,0.0,0.0,0.0,0.0,0.0,0.0,0.0,0.0,0.0,0.0,0.0,0.0,0.0,0.0,0.0,-1.7517,-2.0363,-1.6971,-0.4731,-0.9066,-0.6648,0.7702,0.7842,0.5973,0.2982,0.2511,0.2276,0.2198,0.0157,-0.0863,-0.0707,-0.0471,-0.055,-0.1021,-0.11,-0.11,-0.11,-0.1257,-0.1415,-0.1493,-0.1493,-0.165,-0.1808,-0.1808,-0.1887,-0.1964,-0.2277,-0.2433,-0.2669,-0.3294,-0.3682,-0.3915,-0.4538,-0.4771,-0.5002,-0.6542,-0.7464,-0.8255,-1.0121,-1.0895,-1.1315,-1.1839,-1.2355,-1.3028,-1.4033,-1.5538,-1.6846,-1.744,-1.8576,-1.9557,-1.9408,-1.9636,-2.002,-2.0615,-2.1583,-2.2478,-2.3073,-2.412,-2.5075,-2.5696,-2.6021,-2.6553,-2.7677,-2.8248,-2.8645,-2.8897,-2.9381,-2.9831,-3.0241,-2.9639,-2.9561,-3.0241,-3.0456,-3.082,-3.1415,-3.1709,-3.1723,-3.1576,-3.1942,-3.1942,-3.1576,-3.1576,-3.1576,-3.1576,-3.1576,-3.1649,1.7004,1.7425,1.7822,1.7832,1.7389,1.6117,0.0,0.0,0.0,0.0,0.0,0.0,0.0,0.0,0.0,0.0,0.3646,0.0,0.0,0.0,0.0,-1.8228,-2.1293,-1.8581,-0.6647,-1.1142,-0.7985,0.8401,0.616,0.3759,0.3141,0.2511,0.2118,0.2041,0.0392,-0.0706,-0.11,-0.1178,-0.1335,-0.1572,-0.1572,-0.1572,-0.1572,-0.1572,-0.165,-0.1729,-0.1729,-0.1886,-0.2042,-0.2199,-0.2357,-0.2514,-0.2902,-0.3214,-0.3448,-0.3997,-0.4307,-0.4613,-0.5085,-0.5398,-0.5792,-0.7099,-0.7672,-0.8247,-1.0274,-1.1198,-1.176,-1.2529,-1.2881,-1.3454,-1.4954,-1.6126,-1.7245,-1.8318,-1.9213,-1.9863,-1.9794,-2.0245,-2.0779,-2.1221,-2.2403,-2.3588,-2.3963,-2.5135,-2.6068,-2.6516,-2.6981,-2.7581,-2.841,-2.9139,-2.9694,-2.9909,-3.0482,-3.0996,-3.1267,-3.0895,-3.082,-3.1267,-3.1415,-3.1636,-3.2074,-3.2434,-3.2804,-3.3171,-3.2448,-3.229,-3.2577,-3.229,-3.2146,-3.2205,-3.2146,-3.2362,1.4992,1.4797,1.4833,1.6027,1.4893,1.195,0.0,0.0,0.0,0.0,0.0,0.0,0.0,0.0,0.0,0.0,0.0,0.0,0.0,-1.5271,-2.0136,-1.5342,-1.9552,-1.8132,-0.6201,-1.1276,-0.8328,0.8374,0.3874,0.1408,0.3773,0.3141,0.2669,0.2516,0.1178,0.0157,-0.0628,-0.1493,-0.1887,-0.1887,-0.1887,-0.1887,-0.1887,-0.1887,-0.1886,-0.1964,-0.2043,-0.212,-0.2353,-0.2746,-0.3061,-0.3219,-0.3763,-0.4073,-0.4226,-0.4698,-0.5021,-0.5271,-0.5686,-0.609,-0.6581,-0.7263,-0.7948,-0.8697,-1.011,-1.1231,-1.2091,-1.3041,-1.3585,-1.4253,-1.618,-1.7009,-1.7738,-1.9125,-1.9775,-2.002,-1.9942,-2.0702,-2.1461,-2.168,-2.3084,-2.436,-2.4669,-2.5805,-2.6771,-2.7003,-2.7879,-2.8648,-2.8963,-3.0098,-3.0895,-3.1044,-3.1709,-3.2146,-3.229,-3.229,-3.2362,-3.2519,-3.2362,-3.229,-3.2448,-3.3087,-3.3673,-3.4414,-3.3101,-3.2733,-3.3367,-3.2733,-3.2506,-3.2692,-3.2506,-3.2875,0.7062,0.3512,0.0748,0.61,0.2805,-0.2052,0.0,0.0,0.0,0.0,0.0,0.0,0.0,0.0,0.0,0.0,0.0,-1.3408,0.0,0.0,-2.2159,-2.1889,0.0,-1.8073,-0.6069,-0.5011,-0.1643,0.664,0.4031,0.2741,0.4249,0.3847,0.3294,0.2511,0.1412,0.0627,0.0157,-0.0707,-0.1336,-0.1887,-0.1887,-0.1887,-0.1887,-0.1887,-0.1963,-0.2196,-0.2512,-0.2747,-0.2982,-0.3452,-0.3686,-0.3763,-0.4309,-0.4543,-0.4698,-0.5473,-0.5861,-0.6061,-0.6668,-0.7033,-0.7282,-0.7558,-0.7975,-0.8578,-0.9761,-1.0907,-1.1952,-1.3077,-1.3738,-1.4349,-1.4899,-1.6355,-1.7658,-1.7666,-1.9116,-2.0411,-2.0264,-2.0489,-2.1165,-2.2627,-2.3147,-2.4027,-2.5973,-2.6504,-2.7102,-2.8251,-2.9086,-2.9786,-3.0488,-3.1362,-3.1856,-3.1928,-3.2015,-3.2362,-3.3003,-3.3003,-3.3367,-3.4264,-3.352,-3.3311,-3.4045,-3.4196,-3.4264,-3.4414,-3.4196,-3.4113,-3.4196,-3.4113,-3.4113,-3.4332,-3.4113,-3.4249,-0.0,-0.468,-0.92,-0.6861,-0.5385,-0.5483,0.0,0.0,0.0,0.0,0.0,0.0,0.0,0.0,0.0,0.0,0.0,-1.8417,-1.8318,-2.0779,-2.1656,0.0,-1.8331,-1.4718,-0.6287,-0.3811,-0.022,0.5944,0.3799,0.2821,0.4242,0.3769,0.3217,0.2511,0.1569,0.0863,0.0314,-0.0393,-0.1099,-0.1727,-0.2042,-0.2357,-0.2514,-0.2514,-0.2747,-0.3057,-0.3294,-0.3374,-0.3532,-0.413,-0.4388,-0.4472,-0.5178,-0.5526,-0.5684,-0.6327,-0.6616,-0.6848,-0.7975,-0.8414,-0.8673,-0.9766,-1.013,-1.0414,-1.1657,-1.2326,-1.3033,-1.4028,-1.4476,-1.4896,-1.5448,-1.6698,-1.7989,-1.847,-1.9678,-2.0741,-2.0809,-2.1538,-2.2414,-2.322,-2.4399,-2.5637,-2.6648,-2.7408,-2.8262,-2.9285,-2.9964,-3.0668,-3.1449,-3.2218,-3.272,-3.272,-3.3157,-3.3673,-3.3962,-3.4085,-3.4235,-3.4481,-3.4303,-3.4235,-3.4563,-3.4601,-3.4668,-3.4668,-3.4668,-3.4601,-3.4563,-3.4601,-3.475,-3.4817,-3.4735,-3.4802,-0.729,-1.2322,-1.7868,-1.8641,0.0,0.0,0.0,0.0,0.0,0.0,0.0,0.0,0.0,0.0,0.0,-2.2284,-2.3389,-2.1927,-1.712,-2.044,-2.1975,-1.8022,-1.5851,-1.2553,-0.7149,-0.4734,-0.0822,0.573,0.3883,0.2981,0.4157,0.3532,0.2982,0.2511,0.1728,0.1021,0.055,-0.0314,-0.1098,-0.1724,-0.2353,-0.2824,-0.3297,-0.3315,-0.348,-0.3795,-0.4053,-0.4141,-0.4148,-0.4864,-0.5143,-0.5235,-0.5909,-0.6446,-0.6857,-0.756,-0.7741,-0.7994,-0.9349,-0.9858,-1.0135,-1.1649,-1.2034,-1.2147,-1.3121,-1.362,-1.3964,-1.4657,-1.5082,-1.5499,-1.6072,-1.7107,-1.8318,-1.9195,-2.0177,-2.0984,-2.1205,-2.2295,-2.3338,-2.3671,-2.5335,-2.689,-2.7379,-2.8422,-2.94,-3.0181,-3.0916,-3.1696,-3.2362,-3.3087,-3.3575,-3.3575,-3.4317,-3.4765,-3.4765,-3.4883,-3.4868,-3.4549,-3.4735,-3.4868,-3.475,-3.4868,-3.4935,-3.4935,-3.4935,-3.4868,-3.4765,-3.4868,-3.4935,-3.5001,-3.4935,-3.5001,-1.539,-2.0648,-2.6548,-2.644,0.0,0.0,-2.6376,-2.605,0.0,-2.5669,0.0,0.0,0.0,-2.3464,-2.3248,-2.422,-2.4097,-2.4,-2.4475,-2.4956,-2.5369,-2.5763,-2.054,-1.4744,-0.933,-0.6871,-0.2285,0.5631,0.5004,0.4245,0.4238,0.3295,0.2746,0.2511,0.1728,0.1257,0.1257,-0.0392,-0.1568,-0.2195,-0.2747,-0.3295,-0.3767,-0.385,-0.3889,-0.3974,-0.4717,-0.5007,-0.509,-0.5767,-0.6019,-0.6022,-0.6277,-0.7015,-0.8102,-0.9359,-0.9769,-0.9961,-1.083,-1.1332,-1.1503,-1.1866,-1.2304,-1.2565,-1.2492,-1.3275,-1.4307,-1.423,-1.5068,-1.6004,-1.5824,-1.7017,-1.8301,-1.8638,-1.9923,-2.1205,-2.1205,-2.1852,-2.2853,-2.4269,-2.5277,-2.6517,-2.8388,-2.9446,-3.0181,-3.0764,-3.2105,-3.3143,-3.3367,-3.4113,-3.4616,-3.4787,-3.4854,-3.4868,-3.4868,-3.5082,-3.5082,-3.4868,-3.4868,-3.4868,-3.4868,-3.4868,-3.4935,-3.4935,-3.4935,-3.4868,-3.4868,-3.4868,-3.5001,-3.5148,-3.5001,-3.5082,-2.2563,-2.4614,-2.6849,-2.7128,0.0,0.0,0.0,-2.7888,-2.7697,-2.658,-2.6318,0.0,0.0,0.0,-2.3822,-2.4047,-2.4068,-2.4356,-2.5259,-2.5398,-2.4393,-2.1597,-1.5624,-0.9578,-0.4087,-0.0575,0.2958,0.6674,0.5321,0.4321,0.4323,0.2904,0.1882,0.1489,0.0314,-0.0157,0.0079,-0.0955,-0.1923,-0.2724,-0.3287,-0.3848,-0.4327,-0.451,-0.4806,-0.5061,-0.5515,-0.5782,-0.5951,-0.6292,-0.6496,-0.6756,-0.7614,-0.867,-0.9776,-1.0544,-1.083,-1.1011,-1.2298,-1.2845,-1.3014,-1.3873,-1.4216,-1.4391,-1.4371,-1.4727,-1.5082,-1.5242,-1.5974,-1.6617,-1.6527,-1.7496,-1.8709,-1.9423,-2.0547,-2.1436,-2.1578,-2.2596,-2.3756,-2.4711,-2.6113,-2.7765,-2.9503,-3.0359,-3.1236,-3.2522,-3.3213,-3.3796,-3.4288,-3.4668,-3.4868,-3.4868,-3.5001,-3.5148,-3.5294,-3.5359,-3.5359,-3.5294,-3.5294,-3.5213,-3.5082,-3.5213,-3.5294,-3.5294,-3.5294,-3.5213,-3.5082,-3.5213,-3.5228,-3.5213,-3.5228,-3.5359,-2.603,-2.6217,-2.6452,0.0,0.0,0.0,-2.7768,-2.839,-2.8439,-2.7426,-2.7124,0.0,0.0,0.0,0.0,0.0,-2.4405,-2.4711,-2.5659,-2.4188,-2.1875,-1.8634,-1.1105,-0.4764,-0.1379,0.3119,0.6002,0.6398,0.4932,0.4242,0.4567,0.2827,0.1412,0.0784,-0.0549,-0.1104,-0.0636,-0.1452,-0.2445,-0.3447,-0.3969,-0.4463,-0.4925,-0.5202,-0.551,-0.5939,-0.6229,-0.6499,-0.6671,-0.6863,-0.7246,-0.7853,-0.9269,-1.0356,-1.1209,-1.1906,-1.2248,-1.2498,-1.3704,-1.4132,-1.4307,-1.5166,-1.5423,-1.5499,-1.5658,-1.5824,-1.6072,-1.6402,-1.7025,-1.773,-1.7963,-1.8532,-1.9344,-2.0129,-2.0934,-2.1731,-2.2101,-2.3312,-2.4657,-2.5475,-2.7139,-2.8893,-3.0375,-3.1236,-3.2132,-3.3575,-3.4002,-3.4356,-3.4935,-3.5001,-3.5001,-3.5082,-3.5213,-3.5424,-3.5733,-3.5619,-3.5554,-3.5797,-3.5619,-3.5439,-3.5294,-3.5439,-3.5504,-3.5504,-3.5504,-3.5439,-3.5294,-3.5439,-3.5439,-3.5294,-3.5439,-3.5504,-2.5229,-2.5572,-2.6406,0.0,0.0,0.0,-2.8292,-2.8406,-2.8209,-2.8172,0.0,-2.6512,-2.6029,-2.5343,0.0,-2.5798,-2.5345,-2.5356,-2.6573,-2.167,-1.8193,-1.8684,-0.8361,-0.1602,-0.2527,0.2468,0.5329,0.4314,0.3927,0.4169,0.4886,0.2989,0.1493,0.0628,-0.0628,-0.1113,-0.0814,-0.1789,-0.3043,-0.4464,-0.473,-0.515,-0.5716,-0.5834,-0.6064,-0.6337,-0.6903,-0.7139,-0.7139,-0.7676,-0.846,-0.9405,-1.1316,-1.2174,-1.2498,-1.3646,-1.4243,-1.4482,-1.4915,-1.509,-1.5173,-1.5347,-1.5499,-1.5733,-1.5733,-1.6542,-1.7432,-1.7342,-1.8149,-1.9195,-1.9963,-2.0197,-2.0285,-2.0459,-2.1175,-2.2025,-2.2852,-2.4037,-2.5413,-2.6668,-2.8126,-2.9664,-3.1,-3.2015,-3.2974,-3.3728,-3.4438,-3.5001,-3.5148,-3.5213,-3.5294,-3.5504,-3.5504,-3.5733,-3.6368,-3.5846,-3.5797,-3.6368,-3.5861,-3.5504,-3.5504,-3.5504,-3.5504,-3.5504,-3.5504,-3.5504,-3.5504,-3.5504,-3.5504,-3.5504,-3.5504,-3.5504,-2.4389,-2.5229,0.0,0.0,0.0,0.0,0.0,-2.8509,0.0,0.0,-2.6791,-2.6044,-2.5916,-2.5707,0.0,-2.5857,-2.5826,-2.6197,-2.7324,-2.2029,-1.6623,-1.2964,-0.5715,0.0354,0.3661,0.5152,0.5318,0.4006,0.4079,0.3528,0.1963,0.1962,0.1334,-0.0157,-0.0943,-0.1509,-0.2033,-0.2231,-0.303,-0.4299,-0.4393,-0.4913,-0.584,-0.6138,-0.6373,-0.6646,-0.7129,-0.7499,-0.7764,-0.8715,-1.0009,-1.1466,-1.2163,-1.3021,-1.388,-1.4573,-1.4831,-1.4915,-1.5173,-1.5347,-1.5347,-1.5347,-1.5982,-1.6609,-1.6624,-1.7342,-1.8292,-1.847,-1.9177,-1.9972,-2.0294,-2.0847,-2.1328,-2.1405,-2.1645,-2.2185,-2.3481,-2.4423,-2.5604,-2.7539,-2.8625,-2.9873,-3.1996,-3.2621,-3.3353,-3.4787,-3.5148,-3.5359,-3.5424,-3.5767,-3.607,-3.6148,-3.6554,-3.6906,-3.7071,-3.6966,-3.6906,-3.7071,-3.6966,-3.643,-3.5569,-3.5504,-3.5504,-3.5504,-3.5504,-3.5504,-3.5504,-3.5504,-3.5504,-3.5504,-3.5504,-3.5504,-2.4149,0.0,0.0,0.0,0.0,0.0,0.0,0.0,0.0,0.0,0.0,-2.644,-2.6107,-2.5905,0.0,-2.641,-2.6594,-2.6226,-2.4841,-1.9262,-1.3425,-0.8339,-0.2144,0.3032,0.6364,0.5696,0.4771,0.4006,0.3843,0.3057,0.1414,0.1649,0.1099,-0.0314,-0.0793,-0.137,-0.2061,-0.2361,-0.31,-0.4128,-0.4535,-0.5414,-0.6657,-0.648,-0.6874,-0.7669,-0.8544,-0.9065,-0.9331,-1.0443,-1.1552,-1.2668,-1.3275,-1.3964,-1.4741,-1.4999,-1.5166,-1.5333,-1.5431,-1.5673,-1.6072,-1.6064,-1.678,-1.7658,-1.7747,-1.8461,-1.9256,-1.9511,-2.0138,-2.0769,-2.0934,-2.1405,-2.1807,-2.1807,-2.2237,-2.2961,-2.4284,-2.5425,-2.6749,-2.8537,-2.9589,-3.0784,-3.2609,-3.3241,-3.3891,-3.5279,-3.5668,-3.5797,-3.5504,-3.6258,-3.6723,-3.643,-3.7011,-3.7488,-3.7764,-3.7546,-3.7472,-3.7764,-3.7531,-3.7087,-3.6258,-3.6258,-3.6037,-3.5504,-3.5733,-3.5733,-3.5504,-3.5504,-3.5504,-3.5504,-3.5504,-3.5504,-2.4121,0.0,0.0,0.0,0.0,0.0,0.0,0.0,-2.8677,-2.7809,0.0,-2.7326,-2.6475,-2.6082,-2.6048,-2.6564,-2.6674,-2.4916,-1.9889,-1.4214,-0.9075,-0.5089,0.1413,0.5783,0.6342,0.4779,0.3763,0.3921,0.3217,0.2671,0.2359,0.165,0.0864,-0.0,-0.0482,-0.0987,-0.1599,-0.2409,-0.3337,-0.4115,-0.5092,-0.6419,-0.7834,-0.7044,-0.757,-0.9148,-1.0443,-1.1139,-1.158,-1.2589,-1.3099,-1.3269,-1.4307,-1.4908,-1.509,-1.5249,-1.5484,-1.5816,-1.5741,-1.6312,-1.7107,-1.7172,-1.79,-1.8798,-1.8939,-1.9668,-2.0401,-2.0547,-2.1021,-2.1578,-2.1731,-2.1838,-2.1869,-2.2012,-2.2917,-2.4147,-2.5205,-2.6896,-2.8472,-2.9438,-3.0803,-3.2074,-3.282,-3.3671,-3.4595,-3.5359,-3.6022,-3.6196,-3.5683,-3.6662,-3.7251,-3.6662,-3.7191,-3.778,-3.8351,-3.7895,-3.7838,-3.8351,-3.7895,-3.7546,-3.7472,-3.7429,-3.6845,-3.5619,-3.6196,-3.6133,-3.5504,-3.5569,-3.5554,-3.5504,-3.5504,-3.5504,0.0,-2.3206,0.0,0.0,0.0,0.0,0.0,0.0,-2.7367,-2.7195,-2.7129,-2.7014,-2.675,-2.6572,-2.5227,-2.1287,-2.0995,-1.9524,-1.4409,-0.9221,-0.5777,-0.5238,0.0886,0.5002,0.4683,0.3675,0.274,0.1958,0.1881,0.1646,0.1019,0.0941,0.0628,-0.0,-0.1045,-0.2221,-0.3533,-0.3519,-0.4291,-0.5894,-0.6684,-0.765,-0.8623,-0.8623,-0.9314,-1.0611,-1.0875,-1.1643,-1.2674,-1.293,-1.3529,-1.4391,-1.4824,-1.5082,-1.5249,-1.6206,-1.6683,-1.6838,-1.7641,-1.8043,-1.8284,-1.8284,-1.9,-1.9806,-1.9737,-2.0537,-2.1415,-2.1349,-2.1502,-2.1731,-2.1807,-2.2076,-2.2569,-2.3384,-2.383,-2.4554,-2.6317,-2.7541,-2.8786,-3.04,-3.1302,-3.2074,-3.3003,-3.3754,-3.4595,-3.5359,-3.6022,-3.6368,-3.6196,-3.7294,-3.8051,-3.7937,-3.8479,-3.8969,-3.9077,-3.8969,-3.8969,-3.9094,-3.8969,-3.8678,-3.8108,-3.7648,-3.7011,-3.6196,-3.6845,-3.6616,-3.5504,-3.5973,-3.5958,-3.5504,-3.5504,-3.5504,0.0,0.0,0.0,0.0,0.0,0.0,0.0,0.0,-2.6468,-2.6791,-2.6792,-2.6685,-2.6491,-2.6217,-2.4394,-1.9564,-1.9425,-1.7353,-0.9995,-0.7639,-0.5601,-0.2545,0.0987,0.3049,0.2578,0.2268,0.1958,0.1489,0.1254,0.094,0.0627,0.0392,-0.0,-0.0639,-0.1307,-0.2339,-0.3757,-0.4096,-0.4865,-0.6068,-0.7383,-0.896,-1.0707,-1.0702,-1.1037,-1.1643,-1.2413,-1.3099,-1.3704,-1.4035,-1.4713,-1.5567,-1.5974,-1.6378,-1.669,-1.7488,-1.7802,-1.7963,-1.8443,-1.893,-1.9335,-1.9404,-2.0041,-2.0847,-2.0769,-2.1252,-2.1807,-2.1655,-2.1731,-2.1859,-2.2076,-2.2604,-2.3423,-2.4492,-2.506,-2.5881,-2.7488,-2.8696,-2.977,-3.0771,-3.1823,-3.2648,-3.3143,-3.4138,-3.5052,-3.5439,-3.6258,-3.6784,-3.643,-3.778,-3.8662,-3.8351,-3.8898,-3.9272,-3.9272,-3.9272,-3.9272,-3.9272,-3.9272,-3.9148,-3.8772,-3.8495,-3.7854,-3.689,-3.7546,-3.737,-3.6445,-3.643,-3.6258,-3.591,-3.5619,-3.5504,0.0,0.0,0.0,0.0,0.0,0.0,0.0,-2.5253,-2.5453,-2.6139,-2.631,-2.6214,-2.6031,-2.4874,-2.2616,-1.8489,-1.7687,-1.455,-0.6004,-0.6312,-0.5315,0.0388,0.094,0.0705,0.0235,0.0627,0.0941,0.1097,0.0549,0.0235,0.0235,-0.0236,-0.0798,-0.1464,-0.1668,-0.2386,-0.3473,-0.4698,-0.5547,-0.6148,-0.8082,-1.0351,-1.2875,-1.2766,-1.2668,-1.2753,-1.4132,-1.465,-1.4643,-1.5311,-1.5974,-1.6632,-1.7261,-1.7891,-1.8372,-1.8762,-1.9009,-1.9088,-1.9167,-1.9737,-2.0479,-2.045,-2.0934,-2.1578,-2.1731,-2.1807,-2.1807,-2.1807,-2.1859,-2.2014,-2.2397,-2.3278,-2.436,-2.5485,-2.653,-2.7532,-2.861,-2.9859,-3.0849,-3.1123,-3.2376,-3.3422,-3.3575,-3.4654,-3.5569,-3.5619,-3.6662,-3.7251,-3.6784,-3.8254,-3.9077,-3.8518,-3.9007,-3.9379,-3.9325,-3.9325,-3.9325,-3.9379,-3.9325,-3.9325,-3.9325,-3.9325,-3.8788,-3.7722,-3.8238,-3.8124,-3.7429,-3.6829,-3.6477,-3.6368,-3.5797,-3.5504,0.0,0.0,0.0,0.0,0.0,0.0,0.0,0.0,-2.4009,0.0,-2.524,-2.5871,-2.5782,-2.202,-1.7846,-1.451,-0.9855,-0.5405,-0.2044,-0.092,-0.0386,0.0156,-0.047,-0.1256,-0.196,-0.1412,-0.0942,-0.0942,-0.1021,-0.1021,-0.1021,-0.1282,-0.1541,-0.1869,-0.2877,-0.3721,-0.4426,-0.6292,-0.7422,-0.7929,-1.0188,-1.2095,-1.3561,-1.3971,-1.4132,-1.4132,-1.4566,-1.4901,-1.5311,-1.6206,-1.678,-1.7261,-1.8123,-1.8443,-1.8683,-1.964,-2.0041,-2.0119,-2.1078,-2.1482,-2.1568,-2.1568,-2.1645,-2.1731,-2.1807,-2.1807,-2.1807,-2.1807,-2.2097,-2.2418,-2.248,-2.3849,-2.5518,-2.6639,-2.7957,-2.9102,-2.9257,-3.0203,-3.1123,-3.1809,-3.3129,-3.4394,-3.5067,-3.5359,-3.5683,-3.6196,-3.6906,-3.7546,-3.7994,-3.8898,-3.9379,-3.9202,-3.9468,-3.959,-3.9484,-3.9501,-3.9537,-3.9625,-3.9432,-3.9325,-3.9448,-3.9379,-3.9218,-3.904,-3.9148,-3.8606,-3.7429,-3.731,-3.6951,-3.6368,-3.5797,-3.5504,0.0,0.0,0.0,0.0,0.0,0.0,0.0,0.0,-2.2478,-2.2881,-2.3039,-2.3205,-2.3532,-2.0718,-1.6908,-1.2523,-0.9238,-0.5895,-0.2317,-0.195,-0.1956,-0.1796,-0.2113,-0.2431,-0.2511,-0.1885,-0.1493,-0.165,-0.1591,-0.1523,-0.1443,-0.1802,-0.2085,-0.2025,-0.301,-0.4015,-0.4856,-0.6835,-0.9048,-1.145,-1.2419,-1.3691,-1.5365,-1.5296,-1.5054,-1.465,-1.5545,-1.6034,-1.6206,-1.7415,-1.8301,-1.8859,-1.9413,-1.9885,-2.0294,-2.0847,-2.1078,-2.1165,-2.1645,-2.1807,-2.1807,-2.1807,-2.1807,-2.1807,-2.1807,-2.2345,-2.2917,-2.2917,-2.3645,-2.447,-2.4803,-2.5903,-2.7184,-2.8149,-2.9285,-3.019,-3.0254,-3.0659,-3.1334,-3.2519,-3.3547,-3.4543,-3.5359,-3.5504,-3.5668,-3.6305,-3.6951,-3.7648,-3.8334,-3.9061,-3.9501,-3.952,-3.9625,-3.9677,-3.9642,-3.959,-3.9642,-3.9677,-3.9537,-3.9448,-3.9501,-3.9379,-3.9272,-3.9272,-3.9272,-3.9023,-3.8439,-3.7722,-3.7251,-3.6951,-3.6321,-3.5846,0.0,0.0,0.0,0.0,0.0,0.0,0.0,0.0,-2.1018,0.0,-2.0507,-2.0149,-2.0551,-1.86,-1.5707,-1.2096,-0.936,-0.6753,-0.4037,-0.3908,-0.3919,-0.3679,-0.3463,-0.3242,-0.3007,-0.2309,-0.1999,-0.2079,-0.1951,-0.1806,-0.1888,-0.2179,-0.2392,-0.2517,-0.323,-0.4228,-0.5534,-0.7804,-1.0737,-1.4085,-1.4105,-1.5018,-1.6748,-1.6593,-1.6191,-1.5711,-1.6838,-1.7334,-1.7334,-1.87,-1.9571,-2.006,-2.0624,-2.1098,-2.1578,-2.1731,-2.1807,-2.1807,-2.1807,-2.1807,-2.1807,-2.2025,-2.2174,-2.2345,-2.2562,-2.3417,-2.4314,-2.4314,-2.5133,-2.6078,-2.6683,-2.7586,-2.8513,-2.9192,-3.0101,-3.0849,-3.0986,-3.1259,-3.1896,-3.3017,-3.3988,-3.4839,-3.5424,-3.5504,-3.5733,-3.6554,-3.7131,-3.7764,-3.8645,-3.9239,-3.9642,-3.9677,-3.9781,-3.9781,-3.9729,-3.9729,-3.9781,-3.9781,-3.9625,-3.9537,-3.9537,-3.9432,-3.9325,-3.9272,-3.9272,-3.9272,-3.9272,-3.8197,-3.7531,-3.737,-3.6906,-3.6258,0.0,0.0,0.0,0.0,0.0,0.0,0.0,0.0,-1.9737,-1.8948,-1.7908,-1.718,-1.6985,-1.4337,-1.2466,-1.3515,-0.7876,-0.422,-0.6648,-0.4924,-0.3837,-0.5007,-0.4073,-0.3564,-0.4129,-0.3302,-0.2761,-0.2761,-0.2348,-0.2265,-0.2681,-0.2313,-0.2602,-0.3813,-0.389,-0.4903,-0.6933,-0.9966,-1.2372,-1.4316,-1.492,-1.5838,-1.7001,-1.7641,-1.7963,-1.8141,-1.8221,-1.8461,-1.8859,-1.9728,-2.0285,-2.0537,-2.1405,-2.1731,-2.1807,-2.1807,-2.1807,-2.1807,-2.1807,-2.1807,-2.1959,-2.2703,-2.3285,-2.3863,-2.463,-2.521,-2.5689,-2.5689,-2.6058,-2.654,-2.6776,-2.7939,-2.9123,-2.9369,-3.0177,-3.0986,-3.0986,-3.2101,-3.3087,-3.3227,-3.4438,-3.5439,-3.5504,-3.5504,-3.591,-3.7131,-3.7488,-3.8067,-3.9309,-3.9694,-3.9833,-3.9729,-3.9935,-4.0037,-3.9901,-3.9901,-3.9935,-4.007,-3.9833,-3.9677,-3.9677,-3.9537,-3.9448,-3.9272,-3.9272,-3.9272,-3.9272,-3.859,-3.7937,-3.7429,-3.737,-3.6662,0.0,0.0,0.0,0.0,0.0,0.0,-1.964,-1.8925,-1.823,-1.7917,-1.6862,-1.5966,-1.5884,-1.4192,-1.2824,-1.2855,-0.9697,-0.7288,-0.7753,-0.6771,-0.5959,-0.5966,-0.5431,-0.5046,-0.4804,-0.4174,-0.3692,-0.3608,-0.3401,-0.3343,-0.3512,-0.3674,-0.398,-0.4333,-0.5596,-0.7712,-1.0823,-1.279,-1.4733,-1.6659,-1.7066,-1.7963,-1.9344,-1.9256,-1.965,-2.0382,-2.0382,-2.0138,-1.9806,-2.0837,-2.1242,-2.1405,-2.1655,-2.1807,-2.1807,-2.1807,-2.1807,-2.1807,-2.1807,-2.2101,-2.2671,-2.3329,-2.3991,-2.4721,-2.5355,-2.6276,-2.7061,-2.7061,-2.792,-2.8889,-2.9031,-2.9655,-3.0203,-3.0343,-3.1084,-3.175,-3.175,-3.2519,-3.3353,-3.3837,-3.4773,-3.5619,-3.6022,-3.6085,-3.6554,-3.7879,-3.8165,-3.8574,-3.9625,-3.9849,-3.9884,-3.9918,-4.002,-4.0087,-4.0037,-4.0037,-4.0037,-4.0087,-3.9935,-3.9849,-3.9849,-3.959,-3.9501,-3.9448,-3.9325,-3.9272,-3.9272,-3.8645,-3.8165,-3.7994,-3.7994,-3.7531,-2.0643,0.0,0.0,0.0,0.0,-1.9487,-1.9231,0.0,-1.7763,-1.7407,-1.6535,-1.5718,-1.5144,-1.4317,-1.3328,-1.2389,-1.0579,-0.8982,-0.8267,-0.7761,-0.7184,-0.6609,-0.6402,-0.6008,-0.5423,-0.4867,-0.4545,-0.4374,-0.4173,-0.4118,-0.438,-0.4877,-0.544,-0.6139,-0.815,-1.0651,-1.3549,-1.4996,-1.6667,-1.8559,-1.8709,-1.9502,-2.0712,-2.0615,-2.0934,-2.1578,-2.1655,-2.1328,-2.076,-2.1558,-2.1883,-2.1807,-2.1883,-2.1883,-2.1807,-2.1807,-2.1959,-2.2176,-2.2176,-2.2875,-2.3798,-2.4401,-2.5194,-2.6071,-2.6652,-2.7589,-2.85,-2.8565,-2.9299,-3.0152,-3.0457,-3.0609,-3.0911,-3.1259,-3.1736,-3.2218,-3.2706,-3.3199,-3.3699,-3.4163,-3.4971,-3.5619,-3.6022,-3.6258,-3.6829,-3.7994,-3.839,-3.8903,-3.9781,-3.9952,-3.9986,-4.007,-4.007,-4.007,-4.007,-4.007,-4.007,-4.007,-4.0037,-3.9952,-3.9901,-3.9694,-3.9554,-3.9501,-3.9379,-3.9272,-3.9272,-3.8843,-3.8535,-3.8294,-3.8535,-3.8294,0.0,0.0,0.0,0.0,0.0,0.0,-1.9201,0.0,-1.8547,-1.7493,-1.6927,-1.6206,-1.472,-1.4243,-1.3646,-1.226,-1.0386,-0.8901,-0.8465,-0.7859,-0.7285,-0.6795,-0.6671,-0.6411,-0.5981,-0.5657,-0.5369,-0.5097,-0.4654,-0.4743,-0.546,-0.5885,-0.7099,-0.9278,-1.1519,-1.338,-1.4677,-1.6242,-1.7917,-1.9599,-1.9825,-2.0304,-2.0944,-2.1568,-2.1807,-2.1807,-2.2025,-2.2035,-2.1807,-2.2025,-2.1959,-2.1807,-2.2035,-2.1959,-2.1807,-2.1807,-2.2327,-2.3001,-2.3012,-2.3918,-2.5136,-2.591,-2.6902,-2.7977,-2.8712,-2.9352,-2.9869,-3.0011,-3.0075,-3.0152,-3.0622,-3.0836,-3.1198,-3.1942,-3.2146,-3.2563,-3.3959,-3.4312,-3.4312,-3.4312,-3.4986,-3.5504,-3.5504,-3.6022,-3.6723,-3.7531,-3.8246,-3.8978,-3.9781,-4.0037,-4.007,-4.007,-4.007,-4.007,-4.007,-4.007,-4.007,-4.007,-4.007,-4.0037,-3.9901,-3.9781,-3.9625,-3.9484,-3.9379,-3.9272,-3.9325,-3.9272,-3.8969,-3.8351,-3.9023,-3.8952,-1.9802,0.0,0.0,0.0,0.0,0.0,0.0,0.0,-1.77,-1.7412,-1.6597,-1.5869,-1.5455,-1.4132,-1.2936,-1.2348,-1.1566,-1.052,-0.9271,-0.8923,-0.8488,-0.7887,-0.7668,-0.7344,-0.6815,-0.659,-0.626,-0.6077,-0.6511,-0.7037,-0.739,-0.8773,-1.024,-1.1884,-1.3406,-1.483,-1.6332,-1.7738,-1.8877,-1.9825,-2.0469,-2.1108,-2.1568,-2.1873,-2.2101,-2.2252,-2.2327,-2.2252,-2.2262,-2.2111,-2.2101,-2.2025,-2.2252,-2.2176,-2.2111,-2.2703,-2.3001,-2.3342,-2.4134,-2.5008,-2.5993,-2.6983,-2.7898,-2.8686,-2.9351,-2.9666,-2.9792,-2.9869,-3.0011,-3.0152,-3.0622,-3.111,-3.1663,-3.2015,-3.2918,-3.3822,-3.423,-3.4758,-3.5198,-3.5198,-3.5359,-3.5619,-3.6085,-3.6662,-3.7413,-3.8246,-3.9011,-3.9592,-3.9969,-4.0087,-4.007,-4.007,-4.007,-4.007,-4.007,-4.007,-4.007,-4.007,-4.007,-4.007,-4.0037,-3.9833,-3.9729,-3.9798,-3.9484,-3.9325,-3.9432,-3.9325,-3.9202,-3.9023,-3.9202,-3.8952,0.0,0.0,0.0,0.0,0.0,0.0,-1.8462,-1.8249,-1.8082,-1.817,-1.7194,-1.6191,-1.553,-1.4132,-1.296,-1.2357,-1.2015,-1.1327,-0.9951,-0.9519,-0.917,-0.846,-0.8544,-0.8544,-0.7929,-0.8101,-0.8097,-0.7735,-0.8345,-0.9043,-0.9735,-1.1112,-1.2565,-1.4105,-1.5101,-1.6429,-1.7925,-1.8877,-1.9747,-2.0537,-2.1185,-2.1655,-2.1959,-2.2531,-2.2894,-2.2968,-2.2968,-2.3191,-2.3559,-2.3043,-2.2745,-2.2745,-2.3191,-2.3265,-2.3117,-2.357,-2.4073,-2.4584,-2.5253,-2.6234,-2.7385,-2.801,-2.8696,-2.9352,-2.9691,-2.9869,-2.9934,-2.9934,-3.0075,-3.0368,-3.1035,-3.1455,-3.2015,-3.2847,-3.3671,-3.438,-3.4758,-3.5198,-3.5504,-3.5504,-3.5504,-3.5668,-3.6321,-3.6951,-3.7706,-3.858,-3.9295,-3.9781,-4.0087,-4.007,-4.007,-4.007,-4.007,-4.007,-4.007,-4.007,-4.007,-4.007,-4.007,-4.007,-4.007,-3.9884,-3.9833,-3.9901,-3.9625,-3.9484,-3.9501,-3.9379,-3.9272,-3.9272,-3.9272,-3.9077,0.0,0.0,0.0,0.0,-1.8482,0.0,-1.9179,-1.9107,-1.8927,-1.9031,-1.8082,-1.6815,-1.5345,-1.4372,-1.3464,-1.2354,-1.2207,-1.1809,-1.0631,-1.012,-0.9598,-0.9069,-0.9666,-0.9836,-0.9235,-0.984,-1.0178,-0.973,-1.0072,-1.0854,-1.2328,-1.3165,-1.4337,-1.5861,-1.678,-1.7925,-1.9371,-1.9835,-2.0537,-2.1655,-2.1873,-2.209,-2.2467,-2.3463,-2.3963,-2.3963,-2.3963,-2.448,-2.5229,-2.4409,-2.3879,-2.3734,-2.448,-2.4636,-2.4409,-2.4492,-2.5193,-2.6178,-2.6311,-2.7447,-2.8938,-2.9001,-2.9365,-2.9792,-2.9792,-2.9934,-3.0075,-3.0075,-3.0228,-3.0583,-3.1516,-3.1796,-3.229,-3.3891,-3.438,-3.461,-3.5359,-3.5504,-3.5504,-3.5504,-3.5504,-3.5668,-3.6321,-3.6951,-3.7706,-3.858,-3.9295,-3.9781,-4.0087,-4.007,-4.007,-4.007,-4.007,-4.007,-4.007,-4.007,-4.007,-4.007,-4.007,-4.007,-4.007,-3.9986,-3.9901,-3.9901,-3.9781,-3.9642,-3.9501,-3.9379,-3.9272,-3.9272,-3.9272,-3.9272,0.0,0.0,0.0,-1.8405,-1.8212,0.0,-1.7719,-1.7882,-1.7968,-1.7743,-1.7203,-1.6484,-1.5677,-1.4847,-1.4078,-1.3507,-1.329,-1.285,-1.1792,-1.1488,-1.1322,-1.1558,-1.1209,-1.0956,-1.0869,-1.0697,-1.0524,-1.0433,-1.1638,-1.3087,-1.4622,-1.5379,-1.6288,-1.7277,-1.8006,-1.8807,-1.9747,-2.0382,-2.1375,-2.2638,-2.2861,-2.3441,-2.4457,-2.4672,-2.4838,-2.5016,-2.5016,-2.5087,-2.5312,-2.5557,-2.5252,-2.4743,-2.485,-2.4791,-2.4707,-2.5158,-2.5791,-2.6457,-2.7408,-2.8225,-2.9001,-2.9478,-2.9691,-2.9792,-2.9792,-2.9869,-2.9869,-2.9869,-2.9869,-3.0152,-3.1294,-3.1988,-3.2749,-3.4027,-3.4758,-3.5294,-3.5439,-3.5504,-3.5504,-3.5504,-3.5504,-3.5668,-3.6321,-3.6951,-3.7706,-3.858,-3.9295,-3.9781,-4.0087,-4.007,-4.007,-4.007,-4.007,-4.007,-4.007,-4.007,-4.007,-4.007,-4.007,-4.007,-4.007,-3.9986,-3.9935,-4.0087,-3.9935,-3.9781,-3.9677,-3.9432,-3.9272,-3.9272,-3.9272,-3.9272,-1.9389,-1.8808,-1.8549,-1.8124,-1.7862,0.0,0.0,-1.7722,-1.7999,-1.8124,-1.7353,-1.6565,-1.6084,-1.5034,-1.413,-1.3724,-1.3822,-1.3764,-1.3418,-1.2841,-1.2504,-1.2656,-1.2662,-1.2583,-1.2498,-1.2583,-1.2674,-1.2845,-1.3691,-1.4713,-1.5809,-1.6542,-1.7359,-1.8327,-1.8966,-1.9894,-2.1115,-2.1659,-2.2489,-2.3672,-2.394,-2.4446,-2.5087,-2.5533,-2.5836,-2.5988,-2.5861,-2.607,-2.6414,-2.6264,-2.6264,-2.6239,-2.6195,-2.607,-2.6025,-2.6519,-2.6993,-2.7481,-2.8249,-2.8888,-2.9402,-2.9691,-2.9792,-2.9792,-2.9792,-2.9792,-2.9856,-3.0368,-3.0495,-3.0846,-3.229,-3.2975,-3.3602,-3.461,-3.5213,-3.5504,-3.5504,-3.5504,-3.5504,-3.5504,-3.5504,-3.5668,-3.6321,-3.6951,-3.7706,-3.858,-3.9295,-3.9781,-4.0087,-4.007,-4.007,-4.007,-4.007,-4.007,-4.007,-4.007,-4.007,-4.007,-4.007,-4.007,-4.007,-4.0037,-4.0037,-4.007,-3.9986,-3.9849,-3.9781,-3.9537,-3.9379,-3.9379,-3.9325,-3.9272,-1.9287,-1.8617,-1.8337,-1.7784,-1.752,-1.7477,0.0,0.0,0.0,-1.847,-1.755,-1.6644,0.0,-1.514,-1.407,-1.3997,-1.4237,-1.446,-1.4674,-1.4139,-1.3688,-1.3502,-1.3961,-1.4273,-1.4045,-1.4469,-1.4844,-1.5166,-1.5433,-1.5906,-1.6706,-1.7359,-1.8158,-1.9274,-1.9894,-2.0961,-2.2403,-2.2925,-2.3661,-2.4696,-2.511,-2.5451,-2.5718,-2.6389,-2.6756,-2.6879,-2.6688,-2.6973,-2.7456,-2.6837,-2.6973,-2.7456,-2.7335,-2.7268,-2.7278,-2.7613,-2.799,-2.8429,-2.8737,-2.9315,-2.9792,-2.9792,-2.9856,-2.9998,-2.9998,-3.0152,-3.0368,-3.1158,-3.1415,-3.1756,-3.3353,-3.3905,-3.4245,-3.5279,-3.5504,-3.5504,-3.5504,-3.5504,-3.5504,-3.5504,-3.5504,-3.5668,-3.6321,-3.6951,-3.7764,-3.858,-3.9295,-3.9833,-4.0087,-4.007,-4.007,-4.007,-4.007,-4.007,-4.007,-4.007,-4.007,-4.007,-4.007,-4.007,-4.007,-4.007,-4.007,-4.007,-3.9986,-3.9952,-3.9952,-3.9694,-3.9554,-3.9501,-3.9379,-3.9272,-1.9168,-1.8405,-1.8202,-1.7676,-1.7382,-1.7323,-1.7636,0.0,-1.7408,-1.6948,0.0,-1.6228,-1.5953,0.0,0.0,-1.5005,-1.5057,-1.495,-1.4662,-1.5047,-1.5319,-1.5179,-1.5382,-1.5367,-1.5072,-1.4903,-1.5109,-1.5545,-1.5952,-1.6629,-1.7738,-1.8416,-1.9311,-2.0401,-2.1135,-2.1952,-2.285,-2.3588,-2.4612,-2.5906,-2.6102,-2.665,-2.7497,-2.7577,-2.7643,-2.7643,-2.7443,-2.739,-2.7456,-2.739,-2.739,-2.7456,-2.7335,-2.7214,-2.7088,-2.7443,-2.786,-2.8185,-2.8737,-2.9315,-2.9792,-2.9792,-3.0203,-3.0758,-3.0758,-3.1267,-3.1869,-3.1942,-3.206,-3.2393,-3.3506,-3.3905,-3.4245,-3.5279,-3.5504,-3.5504,-3.5504,-3.5504,-3.5504,-3.5504,-3.5504,-3.5668,-3.6321,-3.7071,-3.7806,-3.858,-3.9348,-3.9935,-4.0087,-4.007,-4.007,-4.007,-4.007,-4.007,-4.007,-4.007,-4.007,-4.007,-4.007,-4.007,-4.007,-4.007,-4.007,-4.007,-4.0087,-4.0087,-4.0087,-3.9833,-3.9642,-3.9501,-3.9379,-3.9272,-1.8971,-1.8846,-1.9046,-1.7646,-1.8027,-1.8547,-1.7832,-1.7988,-1.8202,-1.792,0.0,0.0,0.0,0.0,0.0,0.0,-1.5977,-1.5844,-1.5947,-1.5815,-1.5682,-1.5613,-1.556,-1.5515,-1.5408,-1.5663,-1.6001,-1.6468,-1.6758,-1.7379,-1.8496,-1.9511,-2.044,-2.1375,-2.2403,-2.3368,-2.4264,-2.4826,-2.5615,-2.6645,-2.6892,-2.7297,-2.7776,-2.7656,-2.7723,-2.7776,-2.759,-2.7523,-2.7523,-2.7523,-2.7469,-2.7403,-2.7335,-2.7408,-2.77,-2.7939,-2.8341,-2.8798,-2.9227,-2.9591,-2.9856,-3.0279,-3.062,-3.097,-3.1476,-3.1856,-3.2218,-3.2648,-3.2847,-3.3199,-3.4099,-3.4505,-3.4773,-3.5213,-3.5439,-3.5504,-3.5504,-3.5504,-3.5504,-3.5504,-3.5504,-3.5668,-3.6321,-3.7071,-3.7863,-3.858,-3.9401,-3.9935,-4.007,-4.007,-4.007,-4.007,-4.007,-4.007,-4.007,-4.007,-4.007,-4.007,-4.007,-4.007,-4.007,-4.007,-4.007,-4.007,-4.007,-4.007,-4.007,-3.9935,-3.9746,-3.959,-3.9379,-3.9272,-1.8998,-1.9206,-1.9592,-1.7812,-1.8282,-1.898,-1.8251,-1.8395,-1.8674,-1.8674,-1.8317,0.0,0.0,0.0,-1.6973,-1.7067,0.0,-1.6323,-1.6762,-1.622,-1.5822,-1.598,-1.5853,-1.5835,-1.6031,-1.6516,-1.6943,-1.7363,-1.77,-1.8311,-1.9073,-2.0285,-2.1344,-2.2113,-2.3368,-2.448,-2.5441,-2.5918,-2.6483,-2.7146,-2.7469,-2.7656,-2.7776,-2.7656,-2.7656,-2.7776,-2.759,-2.7523,-2.7523,-2.7523,-2.7403,-2.7268,-2.7214,-2.7584,-2.8196,-2.8346,-2.8829,-2.9512,-2.9936,-3.0216,-3.0508,-3.1057,-3.1402,-3.1623,-3.2218,-3.2591,-3.2804,-3.3381,-3.3659,-3.3948,-3.4549,-3.4964,-3.5213,-3.5213,-3.5359,-3.5504,-3.5504,-3.5504,-3.5504,-3.5504,-3.5619,-3.5973,-3.6554,-3.7251,-3.7863,-3.8564,-3.9401,-3.9986,-4.0087,-4.007,-4.007,-4.007,-4.007,-4.007,-4.007,-4.007,-4.007,-4.007,-4.007,-4.007,-4.007,-4.007,-4.007,-4.007,-4.007,-4.007,-4.007,-3.9952,-3.9833,-3.9677,-3.9484,-3.9342,-1.9555,-1.9233,-1.9503,-1.8076,-1.7598,-1.7823,-1.8808,-1.8741,-1.8472,-1.825,-1.8104,-1.7969,-1.7969,-1.7413,-1.7017,-1.7441,-1.6565,0.0,0.0,-1.6282,-1.6184,-1.676,-1.6821,-1.6849,-1.7009,-1.7503,-1.7881,-1.8172,-1.8898,-1.9324,-1.9274,-2.0692,-2.1756,-2.236,-2.3902,-2.5063,-2.5755,-2.6577,-2.7146,-2.7456,-2.7723,-2.7776,-2.7776,-2.7776,-2.7776,-2.7776,-2.759,-2.7523,-2.7523,-2.7523,-2.7403,-2.7268,-2.7079,-2.7564,-2.8401,-2.8413,-2.9108,-3.0163,-3.0712,-3.1341,-3.2015,-3.2074,-3.2577,-3.3143,-3.3143,-3.3742,-3.4346,-3.4332,-3.4481,-3.4698,-3.4698,-3.4964,-3.5213,-3.5213,-3.5359,-3.5504,-3.5504,-3.5504,-3.5504,-3.5504,-3.5973,-3.66,-3.7251,-3.7589,-3.7978,-3.8635,-3.9506,-4.0087,-4.007,-4.007,-4.007,-4.007,-4.007,-4.007,-4.007,-4.007,-4.007,-4.007,-4.007,-4.007,-4.007,-4.007,-4.007,-4.007,-4.007,-4.007,-4.007,-3.9952,-3.9833,-3.9677,-3.9537,-3.9432,-2.1224,-2.1702,-2.2092,-1.9665,-1.9991,-2.0486,-1.9333,-1.9075,-1.9019,-1.8942,-1.8798,-1.8721,-1.8721,-1.8519,-1.8402,-1.867,-1.7948,-1.7648,0.0,-1.7948,-1.756,-1.7276,-1.6795,-1.6517,-1.6703,-1.7481,-1.8226,-1.8822,-1.9012,-1.9615,-2.0682,-2.1962,-2.301,-2.3902,-2.5217,-2.6013,-2.6289,-2.6726,-2.7079,-2.7146,-2.7469,-2.759,-2.759,-2.759,-2.7842,-2.8222,-2.7723,-2.7789,-2.8157,-2.8157,-2.7973,-2.7815,-2.8651,-2.9282,-2.9574,-2.9164,-2.9678,-3.0721,-3.1422,-3.1856,-3.2146,-3.2648,-3.3003,-3.3297,-3.3811,-3.4182,-3.4414,-3.4414,-3.4481,-3.4481,-3.4481,-3.475,-3.5001,-3.5001,-3.5294,-3.5504,-3.5504,-3.5504,-3.5619,-3.6022,-3.6258,-3.6723,-3.7822,-3.8165,-3.8502,-3.9242,-3.9713,-3.9986,-4.007,-4.007,-4.007,-4.007,-4.007,-4.007,-4.007,-4.007,-4.007,-4.007,-4.007,-4.0271,-4.0531,-4.058,-4.058,-4.058,-4.058,-4.0402,-4.007,-4.0037,-3.9986,-3.9833,-3.9798,-3.959,-2.2232,-2.2773,-2.3109,-2.0711,-2.0962,-2.1399,-1.9952,-1.9593,-1.9593,-1.966,-1.9389,-1.9302,-1.9693,-1.9484,-1.9327,-1.9628,-1.89,-1.8509,0.0,-1.8798,-1.8452,-1.7949,-1.7372,-1.7098,-1.7297,-1.8293,-1.9106,-1.9525,-2.007,-2.0745,-2.1517,-2.2861,-2.3963,-2.4791,-2.5816,-2.6465,-2.6671,-2.6875,-2.7079,-2.7214,-2.7656,-2.7842,-2.7842,-2.8078,-2.8468,-2.8839,-2.8403,-2.8468,-2.8839,-2.8839,-2.8661,-2.8457,-2.9577,-3.0115,-3.0268,-3.0067,-3.0748,-3.1842,-3.2648,-3.296,-3.303,-3.3451,-3.3604,-3.3742,-3.4264,-3.4414,-3.437,-3.4138,-3.424,-3.4356,-3.4138,-3.4507,-3.4935,-3.4935,-3.5213,-3.5569,-3.5797,-3.5797,-3.6037,-3.66,-3.6951,-3.7354,-3.8165,-3.859,-3.899,-3.952,-3.9798,-3.9952,-4.0037,-4.0087,-4.007,-4.007,-4.007,-4.007,-4.007,-4.007,-4.007,-4.007,-4.0271,-4.0483,-4.0802,-4.0972,-4.1186,-4.1464,-4.1034,-4.0796,-4.0745,-4.0307,-4.0037,-3.9901,-3.9935,-3.9781]},{"header":{"parameterUnit":"m.s-1","parameterCategory":1,"la1":30.6,"la2":29.2853,"lo1":-89.7004,"lo2":-87.6739,"dy":0.0162,"dx":0.0183,"nx":112,"ny":82,"refTime":"2023-03-23T12:00:00:Z","depth":0,"parameterNumber":3,"parameterNumberName":"V-component_of_WINDS"},"data":[0.0,0.0,0.0,0.0,0.0,0.0,0.0,0.0,0.0,0.0,0.0,0.0,0.0,0.0,0.0,0.0,0.0,0.0,0.0,0.0,0.0,0.0,0.0,0.0,0.0,0.0,0.0,0.0,0.0,0.0,0.0,0.0,0.0,0.0,0.0,0.0,0.0,0.0,0.0,0.0,0.0,0.0,0.0,0.0,0.0,0.0,0.0,0.0,0.0,0.0,0.0,0.0,0.0,0.0,0.0,0.0,0.0,0.0,0.0,0.0,0.0,0.0,0.0,0.0,0.0,0.0,0.0,0.0,0.0,0.0,0.0,0.0,0.0,0.0,0.0,0.0,0.0,0.0,0.0,0.0,0.0,0.0,0.0,0.0,0.0,0.0,0.0,0.0,0.0,0.0,-3.8757,-3.8976,-4.1343,-4.2956,-4.2995,-4.3123,-4.2467,-4.0714,0.0,0.0,0.0,0.0,0.0,0.0,0.0,0.0,0.0,0.0,0.0,0.0,0.0,0.0,0.0,0.0,0.0,0.0,0.0,0.0,0.0,0.0,0.0,0.0,0.0,0.0,0.0,0.0,0.0,0.0,0.0,0.0,0.0,0.0,0.0,0.0,0.0,0.0,0.0,0.0,0.0,0.0,0.0,0.0,0.0,0.0,0.0,0.0,0.0,0.0,0.0,0.0,0.0,0.0,0.0,0.0,0.0,0.0,0.0,0.0,0.0,0.0,0.0,0.0,0.0,0.0,0.0,0.0,0.0,0.0,0.0,0.0,0.0,0.0,0.0,0.0,0.0,0.0,0.0,0.0,0.0,0.0,0.0,0.0,0.0,0.0,0.0,0.0,0.0,0.0,0.0,0.0,0.0,0.0,0.0,0.0,0.0,0.0,0.0,0.0,0.0,0.0,0.0,0.0,-3.959,-4.1067,-4.1724,-4.211,-4.2092,-4.2257,-4.1528,-3.9498,0.0,0.0,0.0,0.0,0.0,0.0,0.0,0.0,0.0,0.0,0.0,0.0,0.0,0.0,0.0,0.0,0.0,0.0,0.0,0.0,0.0,0.0,0.0,0.0,0.0,0.0,0.0,0.0,0.0,0.0,0.0,0.0,0.0,0.0,0.0,0.0,0.0,0.0,0.0,0.0,0.0,0.0,0.0,0.0,0.0,0.0,0.0,0.0,0.0,0.0,0.0,0.0,0.0,0.0,0.0,0.0,0.0,0.0,0.0,0.0,0.0,0.0,0.0,0.0,0.0,0.0,0.0,0.0,0.0,0.0,0.0,0.0,0.0,0.0,0.0,0.0,0.0,0.0,0.0,0.0,0.0,0.0,0.0,0.0,0.0,0.0,0.0,0.0,0.0,0.0,0.0,0.0,0.0,0.0,0.0,0.0,0.0,0.0,0.0,0.0,0.0,0.0,0.0,-3.8451,-3.9654,-4.1427,-4.1692,-4.1839,-4.1881,-4.2032,-4.1163,-3.9012,-3.9806,0.0,0.0,0.0,0.0,0.0,0.0,0.0,0.0,0.0,0.0,0.0,0.0,0.0,0.0,0.0,0.0,0.0,0.0,0.0,0.0,0.0,0.0,0.0,0.0,0.0,0.0,0.0,0.0,0.0,0.0,0.0,0.0,0.0,0.0,0.0,0.0,0.0,0.0,0.0,0.0,0.0,0.0,0.0,0.0,0.0,0.0,0.0,0.0,0.0,0.0,0.0,0.0,0.0,0.0,0.0,0.0,0.0,0.0,0.0,0.0,0.0,0.0,0.0,0.0,0.0,0.0,0.0,0.0,0.0,0.0,0.0,0.0,0.0,0.0,0.0,0.0,0.0,0.0,0.0,0.0,0.0,0.0,0.0,0.0,0.0,0.0,0.0,0.0,0.0,0.0,0.0,0.0,0.0,0.0,0.0,0.0,0.0,0.0,0.0,0.0,0.0,0.0,-3.9139,-3.9886,-4.1021,-4.1338,-4.1445,-4.1578,-4.1674,-4.0724,-3.8424,-3.9189,0.0,0.0,0.0,0.0,0.0,0.0,0.0,0.0,0.0,0.0,0.0,0.0,0.0,0.0,0.0,0.0,0.0,0.0,0.0,0.0,0.0,0.0,0.0,0.0,0.0,0.0,0.0,0.0,0.0,0.0,0.0,0.0,0.0,0.0,0.0,0.0,0.0,0.0,0.0,0.0,0.0,0.0,0.0,0.0,0.0,0.0,0.0,0.0,0.0,0.0,0.0,0.0,0.0,0.0,0.0,0.0,0.0,0.0,0.0,0.0,0.0,0.0,0.0,0.0,0.0,0.0,0.0,0.0,0.0,0.0,0.0,0.0,0.0,0.0,0.0,0.0,0.0,0.0,0.0,0.0,0.0,0.0,0.0,0.0,0.0,0.0,0.0,0.0,0.0,0.0,0.0,0.0,0.0,0.0,0.0,0.0,0.0,0.0,0.0,0.0,0.0,0.0,-4.0297,-4.0764,-4.0237,-4.0419,-4.0566,-4.0614,-4.0806,-3.9867,-3.7193,-3.8427,0.0,0.0,0.0,0.0,0.0,0.0,0.0,0.0,0.0,0.0,0.0,0.0,0.0,0.0,0.0,0.0,0.0,0.0,0.0,0.0,0.0,0.0,0.0,0.0,0.0,0.0,0.0,0.0,0.0,0.0,0.0,0.0,0.0,0.0,0.0,0.0,0.0,0.0,0.0,0.0,0.0,0.0,0.0,0.0,0.0,0.0,0.0,0.0,0.0,0.0,0.0,0.0,0.0,0.0,0.0,0.0,0.0,0.0,0.0,0.0,0.0,0.0,0.0,0.0,0.0,0.0,0.0,0.0,0.0,0.0,0.0,0.0,0.0,0.0,0.0,0.0,0.0,0.0,0.0,0.0,0.0,0.0,0.0,0.0,0.0,0.0,0.0,0.0,0.0,0.0,0.0,0.0,0.0,0.0,0.0,0.0,0.0,0.0,0.0,0.0,0.0,0.0,-3.9791,-4.0186,-4.012,-4.0288,-4.0387,-4.0468,-4.068,-3.9669,-3.7061,0.0,0.0,0.0,0.0,0.0,0.0,0.0,0.0,0.0,0.0,0.0,0.0,0.0,0.0,0.0,0.0,0.0,0.0,0.0,0.0,0.0,0.0,0.0,0.0,0.0,0.0,0.0,0.0,0.0,0.0,0.0,0.0,0.0,0.0,0.0,0.0,0.0,0.0,0.0,0.0,0.0,0.0,0.0,0.0,0.0,0.0,0.0,0.0,0.0,0.0,0.0,0.0,0.0,0.0,0.0,0.0,0.0,0.0,0.0,0.0,0.0,0.0,0.0,0.0,0.0,0.0,0.0,0.0,0.0,0.0,0.0,0.0,0.0,0.0,0.0,0.0,0.0,0.0,0.0,0.0,0.0,0.0,0.0,0.0,0.0,0.0,0.0,0.0,0.0,0.0,0.0,0.0,0.0,0.0,0.0,0.0,0.0,0.0,0.0,0.0,0.0,0.0,-3.9028,-3.9552,-3.9997,-4.012,-4.0288,-4.0436,-4.0534,-4.0697,-3.9669,-3.7061,0.0,0.0,0.0,0.0,0.0,0.0,0.0,0.0,0.0,0.0,0.0,0.0,0.0,0.0,0.0,0.0,0.0,0.0,0.0,0.0,0.0,0.0,0.0,0.0,0.0,0.0,0.0,0.0,0.0,0.0,0.0,0.0,0.0,0.0,0.0,0.0,0.0,0.0,0.0,0.0,0.0,0.0,0.0,0.0,0.0,0.0,0.0,0.0,0.0,0.0,0.0,0.0,0.0,0.0,0.0,0.0,0.0,0.0,0.0,0.0,0.0,0.0,0.0,0.0,0.0,0.0,0.0,0.0,0.0,0.0,0.0,0.0,0.0,0.0,0.0,0.0,0.0,0.0,0.0,0.0,0.0,0.0,0.0,0.0,0.0,0.0,0.0,0.0,0.0,0.0,0.0,0.0,0.0,0.0,0.0,0.0,0.0,0.0,0.0,0.0,0.0,0.0,-3.8885,-3.9778,-4.0436,-4.0288,-4.0436,-4.0534,-4.0697,-4.084,-3.9759,0.0,0.0,0.0,0.0,0.0,0.0,0.0,0.0,0.0,0.0,0.0,0.0,0.0,0.0,0.0,0.0,0.0,0.0,0.0,0.0,0.0,0.0,0.0,0.0,0.0,0.0,0.0,0.0,0.0,0.0,0.0,0.0,0.0,0.0,0.0,0.0,0.0,0.0,0.0,0.0,0.0,0.0,0.0,0.0,0.0,0.0,0.0,0.0,0.0,0.0,0.0,0.0,0.0,0.0,0.0,0.0,0.0,0.0,0.0,0.0,0.0,0.0,0.0,0.0,0.0,0.0,0.0,0.0,0.0,0.0,0.0,0.0,0.0,0.0,0.0,0.0,0.0,0.0,0.0,0.0,0.0,0.0,0.0,0.0,0.0,0.0,0.0,0.0,0.0,0.0,0.0,0.0,0.0,0.0,0.0,0.0,0.0,0.0,0.0,0.0,0.0,0.0,0.0,-3.8885,-3.9701,-4.0337,-4.0288,-4.0485,-4.0648,-4.0697,-4.084,-3.9985,-3.7889,0.0,0.0,0.0,0.0,0.0,0.0,0.0,0.0,0.0,0.0,0.0,0.0,0.0,0.0,0.0,0.0,0.0,0.0,0.0,0.0,0.0,0.0,0.0,0.0,0.0,0.0,0.0,0.0,0.0,0.0,0.0,0.0,0.0,0.0,0.0,0.0,0.0,0.0,0.0,0.0,0.0,0.0,0.0,0.0,0.0,0.0,0.0,0.0,0.0,0.0,0.0,0.0,0.0,0.0,0.0,0.0,0.0,0.0,0.0,0.0,0.0,0.0,0.0,0.0,0.0,0.0,0.0,0.0,0.0,0.0,0.0,0.0,0.0,0.0,0.0,0.0,0.0,0.0,0.0,0.0,0.0,0.0,0.0,0.0,0.0,0.0,0.0,0.0,0.0,0.0,0.0,0.0,0.0,0.0,0.0,0.0,0.0,0.0,0.0,0.0,0.0,0.0,-3.8816,-3.9748,-4.0453,-4.0453,-4.06,-4.0697,-4.0793,-4.0823,-4.0164,-3.8517,0.0,0.0,0.0,0.0,0.0,0.0,0.0,0.0,0.0,0.0,0.0,0.0,0.0,0.0,0.0,0.0,0.0,0.0,0.0,0.0,0.0,0.0,0.0,0.0,0.0,0.0,0.0,0.0,0.0,0.0,0.0,0.0,0.0,0.0,0.0,0.0,0.0,0.0,0.0,0.0,0.0,0.0,0.0,0.0,0.0,0.0,0.0,0.0,0.0,0.0,0.0,0.0,0.0,0.0,0.0,0.0,0.0,0.0,0.0,0.0,0.0,0.0,0.0,0.0,0.0,0.0,0.0,0.0,0.0,0.0,0.0,0.0,0.0,0.0,0.0,0.0,0.0,0.0,0.0,0.0,0.0,0.0,0.0,0.0,0.0,0.0,0.0,0.0,0.0,0.0,0.0,0.0,0.0,0.0,0.0,0.0,0.0,0.0,0.0,0.0,0.0,0.0,-3.8764,-3.9876,-4.0697,-4.0697,-4.0697,-4.0793,-4.0888,-4.0888,-4.036,-3.9085,0.0,0.0,0.0,0.0,0.0,0.0,0.0,0.0,0.0,0.0,0.0,0.0,0.0,0.0,0.0,0.0,0.0,0.0,0.0,0.0,0.0,0.0,0.0,0.0,0.0,0.0,0.0,0.0,0.0,0.0,0.0,0.0,0.0,0.0,0.0,0.0,0.0,0.0,0.0,0.0,0.0,0.0,0.0,0.0,0.0,0.0,0.0,0.0,0.0,0.0,0.0,0.0,0.0,0.0,0.0,0.0,0.0,0.0,0.0,0.0,-3.339,-3.3359,0.0,0.0,0.0,0.0,0.0,0.0,0.0,0.0,0.0,0.0,0.0,0.0,0.0,0.0,0.0,0.0,0.0,0.0,0.0,0.0,0.0,0.0,0.0,0.0,0.0,0.0,0.0,0.0,0.0,0.0,0.0,0.0,0.0,0.0,0.0,0.0,0.0,0.0,0.0,0.0,-3.8747,-3.9876,-4.0697,-4.0697,-4.0793,-4.0888,-4.0888,-4.0888,-4.0585,-3.9894,-3.8999,0.0,0.0,0.0,0.0,0.0,0.0,0.0,0.0,0.0,0.0,0.0,0.0,0.0,0.0,0.0,0.0,0.0,0.0,0.0,0.0,0.0,0.0,0.0,0.0,0.0,0.0,0.0,0.0,0.0,0.0,0.0,0.0,0.0,0.0,0.0,0.0,0.0,0.0,0.0,0.0,0.0,0.0,0.0,0.0,0.0,0.0,0.0,0.0,0.0,0.0,0.0,0.0,0.0,0.0,0.0,0.0,0.0,0.0,0.0,-3.4154,-3.4544,0.0,0.0,0.0,0.0,0.0,0.0,0.0,0.0,0.0,0.0,0.0,0.0,0.0,0.0,0.0,0.0,0.0,0.0,0.0,0.0,0.0,0.0,0.0,0.0,0.0,0.0,0.0,0.0,0.0,0.0,0.0,0.0,0.0,0.0,0.0,0.0,0.0,0.0,0.0,0.0,-3.8981,-4.0043,-4.0793,-4.0793,-4.0888,-4.0888,-4.0888,-4.0888,-4.0763,-4.0504,-3.9475,0.0,0.0,0.0,0.0,0.0,0.0,0.0,0.0,0.0,0.0,0.0,0.0,0.0,0.0,0.0,0.0,0.0,0.0,0.0,0.0,0.0,0.0,0.0,0.0,0.0,0.0,0.0,0.0,0.0,0.0,0.0,0.0,0.0,0.0,0.0,0.0,0.0,0.0,0.0,0.0,0.0,0.0,0.0,0.0,0.0,0.0,0.0,0.0,0.0,0.0,0.0,0.0,0.0,-3.3667,-3.3457,-3.351,-3.3498,-3.3879,-3.4525,-3.4714,-3.5599,-3.686,-3.6406,0.0,0.0,0.0,0.0,0.0,0.0,0.0,0.0,0.0,0.0,0.0,0.0,0.0,0.0,0.0,0.0,0.0,0.0,0.0,0.0,0.0,0.0,-4.1673,-4.1673,-4.2143,-4.2404,-4.1807,0.0,0.0,0.0,0.0,0.0,0.0,0.0,0.0,0.0,0.0,0.0,-3.9343,-4.0266,-4.0888,-4.0888,-4.0888,-4.0888,-4.0888,-4.0888,-4.0888,-4.0888,-3.9835,-3.9155,0.0,0.0,0.0,0.0,0.0,0.0,0.0,0.0,0.0,0.0,0.0,0.0,0.0,0.0,0.0,0.0,0.0,0.0,0.0,0.0,0.0,0.0,0.0,0.0,0.0,0.0,0.0,0.0,0.0,0.0,0.0,0.0,-3.0554,-3.0522,0.0,0.0,0.0,0.0,0.0,0.0,0.0,0.0,0.0,0.0,0.0,0.0,0.0,-3.4779,-3.4166,-3.4924,-3.4938,-3.4209,-3.4809,-3.5085,-3.5104,-3.5091,-3.5187,-3.538,-3.608,0.0,-3.6947,-3.7607,0.0,0.0,0.0,0.0,0.0,0.0,0.0,0.0,0.0,0.0,0.0,0.0,0.0,0.0,0.0,0.0,0.0,0.0,0.0,0.0,0.0,0.0,-4.3201,-4.3201,-4.3293,-4.333,-4.322,-4.2198,-4.1261,-4.1182,-4.0873,-4.0352,0.0,0.0,0.0,0.0,0.0,0.0,-3.9913,-4.0539,-4.0888,-4.0888,-4.0888,-4.0888,-4.0888,-4.0888,-4.0888,-4.0888,-4.0745,-4.0186,-3.9221,-3.9,0.0,0.0,0.0,0.0,0.0,0.0,0.0,0.0,0.0,0.0,0.0,0.0,0.0,0.0,0.0,0.0,0.0,0.0,0.0,0.0,0.0,0.0,0.0,0.0,0.0,0.0,0.0,0.0,0.0,-2.9107,-3.0396,-3.0266,-3.067,-3.0805,0.0,0.0,0.0,0.0,0.0,0.0,0.0,0.0,0.0,-3.492,-3.4785,-3.4696,-3.4729,-3.5179,-3.5193,-3.4815,-3.5139,-3.532,-3.5398,-3.5364,-3.5364,-3.5398,-3.5834,-3.6265,-3.6747,-3.7707,-3.8225,-3.8382,0.0,0.0,0.0,0.0,-3.7482,-3.7531,-3.8306,-3.8563,-3.8506,-3.8156,0.0,0.0,0.0,0.0,0.0,0.0,0.0,-4.0486,-4.147,-4.1963,-4.2426,-4.3311,-4.3497,-4.3497,-4.3497,-4.2996,-4.2419,-4.2009,-4.1434,-4.0749,-3.9845,-3.9659,0.0,0.0,0.0,-3.98,-4.0078,-4.0562,-4.0888,-4.0888,-4.0888,-4.0888,-4.0888,-4.0888,-4.0888,-4.0888,-4.0888,-4.0747,-4.035,-3.9606,-3.8883,0.0,0.0,0.0,0.0,0.0,0.0,0.0,0.0,0.0,0.0,0.0,0.0,0.0,0.0,0.0,0.0,0.0,0.0,0.0,0.0,0.0,0.0,0.0,0.0,0.0,0.0,0.0,0.0,-2.9276,-3.0463,-2.994,-3.087,-3.11,0.0,0.0,0.0,0.0,0.0,0.0,-3.4428,-3.4105,-3.4255,-3.5031,-3.4676,-3.4731,-3.5221,-3.5267,-3.5277,-3.5277,-3.5226,-3.5223,-3.5285,-3.5235,-3.5219,-3.5235,-3.5326,-3.5806,-3.6572,-3.7584,-3.8402,-3.8992,-3.8504,-3.8189,-3.8035,-3.826,-3.8291,-3.8373,-3.9155,-3.9427,-3.9369,-3.9178,-3.9356,-3.9564,-3.9022,0.0,0.0,0.0,0.0,-3.9723,-4.088,-4.1204,-4.1466,-4.2632,-4.2892,-4.2892,-4.2892,-4.276,-4.2613,-4.2665,-4.2051,-4.1254,-4.0364,-4.0221,0.0,-3.9242,-3.9733,-4.0227,-4.0374,-4.0804,-4.1059,-4.1059,-4.1059,-4.1059,-4.1059,-4.1012,-4.0965,-4.0965,-4.0918,-4.1012,-4.13,-4.0316,-3.9781,-3.9696,0.0,0.0,0.0,0.0,0.0,0.0,0.0,0.0,0.0,0.0,0.0,0.0,0.0,0.0,0.0,0.0,0.0,0.0,0.0,0.0,0.0,0.0,0.0,0.0,0.0,0.0,0.0,0.0,0.0,-3.0101,-3.1896,0.0,0.0,0.0,0.0,-3.2033,-3.2772,-3.3495,-3.4002,-3.3955,-3.4292,-3.5152,-3.5238,-3.5158,-3.5016,-3.5141,-3.5209,-3.5209,-3.5209,-3.5141,-3.5015,-3.5034,-3.5034,-3.5034,-3.5015,-3.5596,-3.6572,-3.7598,-3.8031,-3.8138,-3.8857,-3.8711,-3.8194,-3.8955,-3.9229,-3.9336,-4.0065,-4.0285,-4.0116,-3.935,-3.8955,-3.8797,-3.8954,-3.9282,0.0,0.0,-4.0309,-4.0467,-4.1027,-4.1204,-4.119,-4.1203,-4.124,-4.124,-4.124,-4.068,-4.0822,-4.3018,-4.2755,-4.1962,-4.1425,0.0,-4.0087,-4.0053,-4.022,-4.0561,-4.1052,-4.1391,-4.156,-4.156,-4.156,-4.156,-4.156,-4.1318,-4.1163,-4.1163,-4.1012,-4.1105,-4.156,-4.1534,-4.0994,-3.9911,-4.0628,0.0,0.0,0.0,0.0,0.0,0.0,0.0,0.0,0.0,0.0,0.0,0.0,0.0,0.0,0.0,0.0,0.0,0.0,0.0,0.0,0.0,0.0,0.0,0.0,0.0,0.0,0.0,0.0,-3.0354,-3.1373,0.0,-3.0212,-3.1865,-3.2743,-3.193,-3.3411,-3.4337,-3.4255,-3.4436,-3.4587,-3.4678,-3.4925,-3.498,-3.487,-3.4927,-3.5001,-3.5126,-3.4963,-3.4926,-3.5016,-3.487,-3.4832,-3.4945,-3.5035,-3.5242,-3.5621,-3.6561,-3.7674,-3.8738,-3.8994,-3.9257,-3.955,-3.9884,-4.0018,-4.0041,-4.0317,-4.027,-4.0004,-3.9407,-3.9176,-3.9045,-3.8906,-3.8998,-3.9175,-3.9312,-3.9375,-3.9589,-4.0302,-4.0505,-4.0603,-4.1125,-4.1222,-4.1222,-4.1222,-4.1014,-4.0969,-4.1531,-4.0944,-4.033,-4.0166,-3.9811,-3.9431,-3.8965,-3.9188,-3.9713,-4.0391,-4.0674,-4.1042,-4.1552,-4.1604,-4.1604,-4.1604,-4.1498,-4.1408,-4.1209,-4.1117,-4.1272,-4.1604,-4.1604,-4.1558,-4.1448,-4.1552,-4.0682,0.0,0.0,0.0,0.0,0.0,0.0,0.0,0.0,0.0,0.0,0.0,0.0,0.0,0.0,0.0,0.0,0.0,0.0,0.0,0.0,0.0,0.0,0.0,0.0,0.0,0.0,-3.027,-2.9733,-3.0733,-3.0922,-2.9509,-3.1593,-3.2769,-3.2145,-3.3729,-3.4609,-3.4341,-3.4545,-3.4562,-3.434,-3.4607,-3.471,-3.4666,-3.4747,-3.4829,-3.4908,-3.4792,-3.4734,-3.4774,-3.4713,-3.4752,-3.4831,-3.4945,-3.5019,-3.5076,-3.5732,-3.6889,-3.828,-3.8782,-3.9335,-3.9923,-4.0283,-4.0415,-4.0432,-4.0325,-4.0177,-3.9962,-3.9458,-3.9298,-3.9245,-3.8921,-3.8881,-3.8921,-3.8881,-3.8939,-3.9079,-3.9616,-3.9716,-3.9863,-4.0388,-4.0486,-4.0486,-4.0486,-4.0486,-4.0357,-3.9966,-3.9763,-3.9535,-3.9409,-3.9208,-3.8839,-3.8117,-3.8594,-3.9163,-3.9493,-3.9926,-4.0553,-4.1347,-4.1417,-4.1523,-4.1788,-4.1551,-4.1323,-4.1328,-4.1028,-4.1056,-4.1587,-4.1095,-4.1011,-4.1484,-4.1239,-4.0518,-3.9341,0.0,0.0,0.0,0.0,0.0,0.0,0.0,0.0,0.0,0.0,0.0,0.0,0.0,0.0,0.0,0.0,0.0,0.0,0.0,0.0,0.0,0.0,0.0,-2.93,-2.9583,-2.9407,-2.831,-3.019,-3.099,-2.9582,-3.1405,-3.2691,-3.2691,-3.3615,-3.4173,-3.4173,-3.4173,-3.4197,-3.4197,-3.4316,-3.4404,-3.4386,-3.4645,-3.4687,-3.4495,-3.4691,-3.4609,-3.4316,-3.4561,-3.4706,-3.4708,-3.4772,-3.4927,-3.511,-3.5176,-3.5706,-3.6642,-3.8211,-3.8934,-3.9207,-4.0051,-4.0413,-4.0449,-4.0177,-4.0081,-3.9982,-3.9483,-3.9298,-3.9245,-3.8979,-3.895,-3.9007,-3.8979,-3.9064,-3.9101,-3.9007,-3.9026,-3.8979,-3.8921,-3.891,-3.891,-3.891,-3.891,-3.8833,-3.8541,-3.928,-3.9789,-3.9324,-3.886,-3.8355,-3.7766,-3.8576,0.0,-3.8457,-3.926,-4.0164,-4.0949,-4.1038,-4.1341,-4.2144,-4.1316,-4.1018,-4.1552,-4.0699,-4.0568,-4.1569,-4.0087,-3.9488,-3.9946,-3.9713,-3.9823,-4.035,0.0,0.0,0.0,0.0,0.0,0.0,0.0,0.0,0.0,0.0,0.0,0.0,0.0,0.0,0.0,0.0,0.0,0.0,0.0,0.0,0.0,0.0,-2.8051,-2.9323,-2.973,-2.9927,-2.998,-3.015,-3.0287,-3.0212,-3.1719,-3.2616,-3.2427,-3.3355,-3.3834,-3.3633,-3.3788,-3.3947,-3.4049,-3.4197,-3.4293,-3.4386,-3.4381,-3.4344,-3.4284,-3.4279,-3.4363,-3.445,-3.4473,-3.4586,-3.4772,-3.4889,-3.5019,-3.5176,-3.5245,-3.5477,-3.5878,-3.6888,-3.8073,-3.9218,-3.95,-3.9876,-4.0233,-3.9982,-3.9772,-3.9604,-3.9272,-3.9137,-3.9129,-3.9007,-3.9007,-3.9045,-3.9007,-3.9129,-3.9219,-3.9101,-3.9156,-3.921,-3.9073,-3.9045,-3.9045,-3.9045,-3.9045,-3.8902,-3.8332,-3.8445,-3.851,-3.8144,-3.7721,-3.737,-3.7201,-3.7558,-3.7998,-3.8429,-3.8854,-3.92,-3.9414,-3.9432,-3.9753,-4.0503,-4.0299,-4.0583,-4.1516,-4.1367,-4.1305,-4.1604,-4.0989,-4.0699,-4.0832,-3.9814,-3.9333,0.0,0.0,0.0,0.0,0.0,0.0,0.0,0.0,0.0,0.0,0.0,0.0,0.0,0.0,0.0,0.0,0.0,0.0,0.0,0.0,0.0,0.0,-2.6696,-2.7985,-2.8873,-2.9261,-2.969,-3.0183,-3.0168,-3.0251,-3.0673,-3.1829,-3.2531,-3.2517,-3.3222,-3.356,-3.3415,-3.3549,-3.3698,-3.3834,-3.3895,-3.4023,-3.4148,-3.4173,-3.4154,-3.4043,-3.4227,-3.434,-3.4363,-3.452,-3.4691,-3.4889,-3.5019,-3.5141,-3.5239,-3.5339,-3.5417,-3.557,0.0,0.0,0.0,0.0,-3.9682,-4.0232,-3.9941,-3.9766,-3.9623,-3.935,-3.9219,-3.9183,-3.9129,-3.9101,-3.9101,-3.9045,-3.9183,-3.9272,-3.9192,-3.9272,-3.9376,-3.9298,-3.9272,-3.9245,-3.9192,-3.9129,-3.8884,-3.8332,-3.8135,0.0,-3.7649,-3.7279,-3.6904,-3.6664,-3.7008,-3.7388,-3.7587,-3.802,-3.8433,-3.8772,-3.9093,-3.9575,-4.0342,-4.0414,0.0,0.0,0.0,-4.0885,-4.0482,-4.0385,0.0,0.0,0.0,-3.9286,-3.9742,-3.9425,0.0,0.0,-3.9521,-3.9197,0.0,0.0,0.0,0.0,0.0,0.0,0.0,0.0,0.0,0.0,0.0,0.0,0.0,0.0,0.0,0.0,-2.7361,-2.8511,-2.8171,-2.8622,-2.9182,-2.9572,-3.014,-3.0649,-3.106,-3.1829,-3.2435,-3.2778,-3.3164,-3.3393,-3.3408,-3.3364,0.0,0.0,0.0,-3.3671,-3.3842,-3.4074,-3.4074,-3.3815,-3.434,-3.4473,-3.425,-3.4672,-3.4908,-3.5037,-3.5193,-3.527,-3.533,-3.546,-3.552,-3.5597,-3.6402,-3.6752,-3.6993,-3.8612,-3.964,-4.0204,-3.9982,0.0,0.0,-3.9599,-3.9427,-3.9324,-3.9324,-3.9245,-3.9156,-3.9156,-3.9245,-3.935,-3.9324,-3.9408,-3.9526,-3.9483,-3.9502,-3.9477,-3.9324,-3.9137,-3.8873,-3.8478,-3.8186,-3.7915,-3.7649,-3.7317,-3.6897,-3.6358,-3.6891,-3.7161,-3.6577,-3.7148,-3.7826,-3.8469,-3.9111,0.0,-4.0753,-4.0842,-4.1049,-4.1596,-4.0911,-4.0097,-3.9172,-3.9303,-3.9346,-3.9138,-3.9138,-3.9725,-4.0888,-4.0888,-4.0888,-4.0884,-3.9656,-3.9334,0.0,0.0,0.0,0.0,0.0,0.0,0.0,0.0,0.0,0.0,0.0,0.0,0.0,0.0,0.0,-2.5466,-2.6946,-2.8024,-2.768,-2.8764,-2.9661,-2.975,-3.0225,-3.0788,-3.1511,-3.2009,-3.2435,-3.2778,-3.3164,-3.3393,-3.3408,-3.3099,-3.3243,-3.3895,-3.356,-3.3616,-3.4124,-3.4173,-3.4124,-3.3972,-3.434,0.0,-3.4612,-3.4908,-3.5122,-3.5254,-3.5388,-3.5443,-3.5476,-3.5554,-3.5596,-3.5731,-3.6498,-3.68,-3.6993,-3.8612,-3.9191,-3.926,-3.973,-3.9785,-3.9647,-3.9532,-3.9483,-3.9477,-3.9477,-3.9433,0.0,-3.9408,-3.9526,-3.9599,-3.9502,-3.9575,-3.9628,-3.9526,-3.9502,-3.9433,-3.9192,-3.9073,-3.8873,-3.8419,-3.8138,-3.7915,-3.7703,-3.7577,-3.745,-3.7344,-3.7451,-3.7487,-3.738,-3.7487,-3.7398,-3.6916,-3.6988,-3.7666,-3.9129,-3.9254,-3.9913,-4.1525,-4.1251,-4.0885,-4.0533,-4.0728,-4.0728,-4.0533,-4.0486,-4.0642,-4.0888,-4.0888,-4.0888,-4.0871,-4.053,-4.0367,0.0,0.0,0.0,0.0,0.0,0.0,0.0,0.0,0.0,0.0,0.0,-2.2804,0.0,0.0,-2.5785,-2.6425,-2.735,-2.8088,-2.8255,-2.9196,-2.9793,-2.9793,-3.0567,-3.1321,-3.1932,-3.2331,-3.2699,-3.3064,-3.3375,-3.3546,-3.354,-3.3458,-3.3637,-3.4131,-3.3919,-3.3918,-3.4189,-3.436,-3.436,-3.4208,-3.4614,-3.4832,-3.4906,-3.5136,-3.5296,-3.5411,-3.5509,-3.557,-3.5604,-3.5637,-3.5698,-3.5795,-3.6163,-3.6535,-3.6928,-3.767,-3.8112,-3.8457,-3.9126,-3.9269,-3.9258,-3.9671,-3.9739,-3.9693,-3.967,-3.9599,-3.9551,-3.9526,-3.9599,-3.967,-3.9433,-3.9599,-3.9758,-3.9551,-3.9502,-3.9433,-3.9245,-3.897,-3.8664,-3.8354,-3.8122,-3.7916,-3.7739,-3.7667,-3.7649,-3.7631,-3.7577,-3.7577,-3.7577,-3.7577,-3.7434,-3.7023,-3.7362,-3.8094,-3.9254,-3.9895,-4.0588,-4.1534,-4.1272,-4.0995,-4.0871,-4.1012,-4.0995,-4.0888,-4.0888,-4.0888,-4.0888,-4.0888,-4.0888,-4.0888,-4.068,-4.0583,0.0,0.0,0.0,0.0,0.0,0.0,0.0,0.0,-2.0314,-2.2354,-2.2786,-2.3353,-2.518,-2.563,-2.6148,-2.7369,-2.7725,-2.8155,-2.8982,-2.9393,-2.9661,-2.9793,-3.0711,-3.1544,-3.2022,-3.2294,-3.2723,-3.3353,-3.3588,-3.3699,-3.3704,-3.3828,-3.4043,-3.4342,-3.4268,-3.4267,-3.4342,-3.4641,-3.4699,-3.4548,-3.4977,-3.5193,-3.5193,-3.5383,-3.5489,-3.5554,-3.5626,-3.5659,-3.5717,-3.5724,-3.5768,-3.5823,-3.5823,-3.6162,-3.6693,-3.6698,-3.7074,-3.7699,-3.8328,-3.8689,-3.8918,-3.9622,-3.9884,-3.9914,-3.987,-3.9781,-3.9689,-3.9575,-3.9623,-3.9647,-3.9376,-3.9575,-3.9781,-3.9502,-3.9458,-3.9433,-3.92,-3.8807,-3.8446,-3.8307,-3.8072,-3.7846,-3.7774,-3.7739,-3.7667,-3.7613,-3.7577,-3.7577,-3.7577,-3.7577,-3.7577,-3.7577,-3.8183,-3.8933,-3.9825,-4.0806,-4.1446,-4.1604,-4.1152,-4.0888,-4.0888,-4.0888,-4.0888,-4.0888,-4.0888,-4.0888,-4.0888,-4.0888,-4.0888,-4.084,-4.0631,-4.0485,-1.6173,-1.6948,-1.7777,-1.802,-1.8589,-1.9471,0.0,0.0,-2.2143,-2.3905,-2.4579,-2.5053,-2.5713,-2.6144,-2.662,-2.7246,-2.7348,-2.7799,-2.8935,-2.8919,-2.9104,-2.9881,-3.0037,-3.042,-3.125,-3.1246,-3.1813,-3.3278,-3.3588,-3.3699,-3.3704,-3.3604,-3.3845,-3.4455,-3.4128,-3.4251,-3.4906,-3.4994,-3.507,-3.5097,-3.5326,-3.5489,-3.5553,-3.562,-3.5708,-3.5773,-3.5764,-3.5787,-3.5794,-3.5846,-3.5878,-3.5878,-3.5894,-3.5898,-3.5993,-3.6516,-3.6793,-3.6997,-3.7543,-3.8252,-3.8899,-3.8918,-3.945,-4.0077,-4.0057,-4.0057,-3.9975,-3.9739,-3.9693,-3.9647,-3.9376,-3.9477,-3.9551,-3.9317,-3.9376,-3.9357,-3.8807,-3.8585,-3.8446,-3.8241,-3.8038,-3.7916,-3.7967,-3.781,-3.7667,-3.7613,-3.7577,-3.7577,-3.7577,-3.7577,-3.7577,-3.7577,-3.7666,-3.8308,-3.9789,-4.027,-4.0823,-4.1552,-4.1152,-4.0888,-4.0888,-4.0888,-4.0888,-4.0888,-4.0888,-4.0888,-4.0888,-4.0888,-4.084,-4.0697,-4.0583,-4.0485,-1.7019,-1.7613,-1.803,0.0,-1.8532,-1.9179,-2.0819,-2.1187,-2.194,-2.4477,-2.5119,-2.5412,-2.6028,-2.6351,-2.6654,0.0,-2.7246,-2.7834,-2.9287,-2.9058,-2.8966,-2.9673,-2.8979,-2.927,-3.1342,-3.1386,-3.1924,-3.3468,-3.3759,-3.3921,-3.4045,-3.4105,-3.4384,-3.4894,-3.4744,-3.4836,-3.5223,-3.5427,-3.5437,-3.5329,-3.5562,-3.569,-3.5714,-3.5742,-3.5781,-3.5866,-3.5908,-3.5919,-3.5924,-3.5953,-3.5958,-3.5953,-3.5958,-3.5948,-3.593,-3.6017,-3.6035,-3.6078,-3.6716,-3.7201,-3.7658,-3.8613,-3.9147,-3.9548,-4.0024,-4.0157,-4.0098,-3.9804,-3.9693,-3.958,-3.9183,-3.9245,-3.935,-3.898,-3.8961,-3.8961,-3.8658,-3.8465,-3.8289,-3.8225,-3.8124,-3.8072,-3.8002,-3.7915,-3.781,-3.7667,-3.7613,-3.7577,-3.7577,-3.7577,-3.7577,-3.7577,-3.8005,-3.8699,-3.9629,-4.0158,-4.0674,-4.1311,-4.1041,-4.0888,-4.0888,-4.0888,-4.0888,-4.0888,-4.0888,-4.0888,-4.0888,-4.084,-4.0745,-4.0697,-4.0485,-4.0387,-1.7466,0.0,0.0,-1.8331,-1.8786,-1.9445,-2.0684,-2.1185,-2.2065,-2.4503,-2.5119,-2.53,-2.5851,-2.6136,-2.6457,-2.6916,-2.6953,-2.7535,-2.9225,-2.8717,-2.8433,-2.9115,-2.7967,-2.8092,-3.0661,-3.094,-3.1729,-3.3548,-3.3895,-3.4099,-3.4293,-3.4495,-3.4774,-3.5173,-3.5164,-3.5268,-3.5474,-3.5685,-3.5685,-3.5506,-3.5701,-3.5806,-3.5835,-3.5841,-3.5877,-3.5923,-3.5981,-3.6004,-3.601,-3.6004,-3.5997,-3.5994,-3.5958,-3.5929,-3.5919,-3.566,-3.5531,-3.5554,-3.5997,-3.6298,-3.6697,-3.7922,-3.8457,-3.8801,-3.9624,-3.9814,-3.9734,-3.9683,-3.9599,-3.9427,-3.8979,-3.9017,-3.9119,-3.8748,-3.867,-3.8688,-3.8523,-3.8354,-3.8192,-3.8192,-3.8192,-3.8174,-3.807,-3.8018,-3.7949,-3.781,-3.7667,-3.7613,-3.7613,-3.7577,-3.7577,-3.7577,-3.8112,-3.8803,-3.9527,-3.988,-4.0386,-4.1139,-4.0995,-4.0888,-4.0888,-4.0888,-4.0888,-4.0888,-4.0871,-4.0871,-4.0888,-4.0745,-4.0631,-4.0648,-4.0404,-4.0305,0.0,0.0,-1.7998,-1.8331,-1.9725,-2.1037,-2.1101,-2.2101,-2.3233,-2.4002,-2.4624,-2.5021,-2.5061,-2.5508,-2.6096,-2.664,-2.6297,-2.6587,-2.848,-2.76,-2.7128,-2.8112,-2.7105,-2.6964,0.0,-2.9274,-3.0778,-3.3504,-3.3895,-3.4099,-3.4293,-3.4495,-3.4736,-3.5082,-3.5093,-3.5286,-3.5684,-3.5702,-3.572,-3.5798,-3.5801,-3.5838,-3.5891,-3.5955,-3.601,-3.5994,-3.5992,-3.5992,-3.5993,-3.5999,-3.5991,-3.5988,-3.5855,-3.5807,-3.5775,-3.5579,-3.5577,-3.5639,-3.535,-3.5796,-3.6517,-3.6564,-3.7101,-3.7903,-3.8782,-3.8841,-3.8766,-3.9331,-3.9324,-3.9045,-3.878,-3.8851,-3.8913,-3.8585,-3.8597,-3.8628,-3.8387,-3.8241,-3.8192,-3.8192,-3.8192,-3.8192,-3.8192,-3.8088,-3.7984,-3.7984,-3.781,-3.7667,-3.7613,-3.7577,-3.7577,-3.7577,-3.7612,-3.818,-3.9492,-3.9394,-3.9791,-4.1105,-4.0995,-4.0888,-4.0888,-4.0888,-4.0888,-4.0888,-4.0793,-4.0793,-4.0888,-4.0631,-4.0534,-4.0485,-4.0337,-4.0238,0.0,0.0,-1.8459,-1.8788,-1.9336,-2.0031,-2.1071,-2.1565,-2.2237,-2.3872,-2.4019,-2.3867,-2.4006,-2.4408,-2.4845,-2.5126,-2.5422,-2.6187,-2.7871,-2.7369,-2.7334,-2.8649,-2.7547,0.0,0.0,0.0,0.0,-3.2477,-3.3318,-3.3961,-3.4473,-3.4689,-3.4906,-3.5163,-3.5252,-3.5435,-3.5703,-3.5736,-3.5756,-3.5736,-3.5774,-3.583,-3.589,-3.596,-3.5992,-3.5993,-3.5991,-3.5994,-3.5996,-3.5994,-3.5962,-3.5927,-3.5875,-3.584,-3.5779,-3.563,-3.5588,-3.5607,-3.5355,-3.5458,-3.5783,-3.6329,-3.6692,-3.7075,-3.7902,-3.8347,-3.8615,-3.8635,-3.885,-3.9045,-3.878,-3.875,-3.8762,-3.8541,-3.8523,-3.8523,-3.8322,-3.8274,-3.8241,-3.8225,-3.8192,-3.8192,-3.8192,-3.8174,-3.8106,-3.7951,-3.7792,-3.7667,-3.7613,-3.7577,-3.7577,-3.7577,-3.7484,-3.7742,-3.8549,-3.8846,-3.9364,-4.0147,-4.0625,-4.0888,-4.0888,-4.0888,-4.0888,-4.0793,-4.0745,-4.0697,-4.0631,-4.0436,-4.0355,-4.0337,-4.0238,-4.0138,0.0,-1.8238,-1.8624,-1.9027,-1.9264,-1.9715,-2.0677,-2.0996,-2.1553,-2.3195,-2.3161,-2.2989,-2.3477,-2.3891,-2.4312,-2.4525,-2.4841,-2.5607,-2.7011,-2.6754,-2.678,-2.7948,-2.7253,-2.6989,0.0,0.0,0.0,-3.1945,-3.3201,-3.4087,-3.4561,-3.4791,-3.4981,-3.5165,-3.5353,-3.55,-3.5657,-3.5747,-3.5785,-3.5735,-3.5791,-3.5852,-3.5899,-3.5962,-3.6001,-3.5992,-3.6009,-3.5992,-3.5996,-3.5995,-3.5955,-3.5894,-3.5866,-3.583,-3.5743,-3.5648,-3.5593,-3.557,-3.5369,-3.5315,-3.5411,-3.5902,-3.6077,-3.623,-3.7041,-3.749,-3.7783,-3.8103,-3.842,-3.8646,-3.8707,-3.8707,-3.8658,-3.859,-3.8528,-3.8446,-3.8336,-3.8307,-3.8241,-3.8225,-3.8192,-3.8192,-3.8192,-3.8174,-3.8072,-3.7934,-3.781,-3.7667,-3.7613,-3.7577,-3.7577,-3.7577,-3.741,-3.7538,-3.8041,-3.8562,-3.9128,-3.9646,-4.044,-4.0888,-4.0888,-4.0823,-4.0793,-4.0697,-4.06,-4.0551,-4.0485,-4.0337,-4.0238,-4.0305,-4.0188,-3.9969,-1.8154,-1.8402,-1.8516,-1.8961,-1.9584,-2.0042,-2.0107,-2.0613,-2.1302,-2.1954,-2.2112,-2.2414,0.0,0.0,-2.4293,-2.4583,-2.4559,-2.4903,-2.6002,-2.5697,-2.5637,0.0,0.0,0.0,0.0,0.0,0.0,-3.1792,-3.3369,-3.434,-3.4602,-3.4811,-3.4963,-3.5098,-3.5374,-3.5535,-3.5601,-3.5737,-3.5784,-3.5801,-3.5866,-3.5884,-3.5909,-3.596,-3.5986,-3.5996,-3.5996,-3.5996,-3.5996,-3.6003,-3.5962,-3.5892,-3.5842,-3.5757,-3.5699,-3.5631,-3.5604,-3.556,-3.5374,-3.5345,-3.5398,-3.5324,-3.5293,-3.543,-3.622,-3.6291,-3.6383,-3.7732,-3.7953,-3.7942,-3.8534,-3.8701,-3.8707,-3.8689,-3.8528,-3.8415,-3.8401,-3.8289,-3.8192,-3.8192,-3.8192,-3.8192,-3.8192,-3.8088,-3.7967,-3.7899,-3.7792,-3.7667,-3.7631,-3.7577,-3.7594,-3.7594,-3.741,-3.7482,-3.7988,-3.8545,-3.9111,-3.9595,-4.0422,-4.0888,-4.0888,-4.0745,-4.0648,-4.0697,-4.0404,-4.0288,-4.0419,-4.0171,-4.007,-4.0188,-4.007,-3.9696,-1.8319,-1.863,-1.892,-1.9044,-1.9198,-1.9462,-1.9977,-2.0613,-2.1209,-2.1427,-2.1584,-2.1668,0.0,0.0,0.0,-2.295,-2.3933,0.0,-2.5558,-2.5516,0.0,-2.6769,0.0,-2.6443,-2.5669,-2.7923,0.0,0.0,-3.2167,-3.381,-3.4561,-3.4889,-3.5064,-3.5098,-3.5461,-3.563,-3.5601,-3.5618,-3.5679,-3.5735,-3.5788,-3.5833,-3.584,-3.5887,-3.5923,-3.5932,-3.5974,-3.5996,-3.5995,-3.6001,-3.5962,-3.5892,-3.5869,-3.581,-3.5708,-3.5678,-3.5646,-3.5593,-3.5528,-3.5489,-3.5463,-3.5398,-3.5335,-3.5343,-3.5525,-3.5834,-3.6157,-3.6512,-3.7197,-3.7875,-3.8238,-3.8497,-3.8719,-3.8836,-3.8658,-3.8446,-3.8354,-3.8307,-3.8241,-3.8225,-3.8192,-3.8192,-3.8192,-3.8038,-3.7934,-3.7899,-3.7739,-3.7613,-3.7613,-3.7577,-3.754,-3.741,-3.7182,-3.7058,-3.7045,-3.8053,-3.8753,-3.8853,-4.0053,-4.0745,-4.0745,-4.0204,-4.0054,-4.0404,-3.9885,-3.961,-3.9523,-3.947,-3.9189,-3.8794,-3.8778,-3.8684,-1.9457,-1.9717,-1.9922,-1.9922,-1.9922,-1.9922,-2.0153,-2.054,-2.0938,-2.1277,-2.1063,0.0,-2.1459,0.0,0.0,0.0,0.0,0.0,-2.516,-2.5171,-2.5557,0.0,-2.6403,0.0,-2.5082,-2.7547,-2.9087,0.0,-3.1768,-3.3887,-3.4691,-3.498,-3.513,-3.5232,-3.5546,-3.5698,-3.5698,-3.5658,-3.5679,-3.5749,-3.5814,-3.5839,-3.5858,-3.5887,-3.5906,-3.5908,-3.5937,-3.5953,-3.5957,-3.5962,-3.5929,-3.5892,-3.5898,-3.5842,-3.5735,-3.5747,-3.5699,-3.5639,-3.5635,-3.5596,-3.5534,-3.5474,-3.5379,-3.53,-3.5308,-3.5484,-3.5761,-3.6026,-3.6575,-3.7234,-3.7995,-3.8245,-3.839,-3.8793,-3.864,-3.8401,-3.834,-3.8223,-3.8156,-3.8122,-3.8122,-3.8122,-3.8122,-3.7951,-3.781,-3.781,-3.7631,-3.7484,-3.7484,-3.7484,-3.741,-3.7297,-3.7027,-3.6928,-3.7154,-3.8053,-3.8625,-3.8576,-3.9688,-4.0187,-3.9868,-3.9368,-3.9401,-3.9901,-3.9279,-3.9011,-3.9206,-3.892,-3.8629,-3.8278,-3.8278,-3.8181,-2.0842,-2.0903,-2.0839,-2.0839,-2.0903,-2.083,-2.0419,-2.0526,-2.0879,-2.1269,0.0,-2.063,-2.2042,-2.2871,-2.3081,-2.239,0.0,-2.4899,-2.4757,-2.481,-2.5113,-2.5932,-2.554,-2.4852,-2.3983,-2.6688,-2.8487,-2.8424,-3.1781,-3.4157,-3.487,-3.5032,-3.5212,-3.5416,-3.5599,-3.5726,-3.5799,-3.5737,-3.5745,-3.5795,-3.5864,-3.5895,-3.5903,-3.5893,-3.5891,-3.5898,-3.5898,-3.5908,-3.5908,-3.5919,-3.5919,-3.5898,-3.5892,-3.5864,-3.5807,-3.5799,-3.5765,-3.5699,-3.5688,-3.5654,-3.5591,-3.5515,-3.5412,-3.53,-3.5308,-3.5242,-3.531,-3.5837,-3.6045,-3.6402,-3.7781,-3.7935,-3.7933,-3.8739,-3.8658,-3.8322,-3.8256,-3.8104,-3.7984,-3.8002,-3.7984,-3.7984,-3.8002,-3.781,-3.7703,-3.7667,-3.7466,-3.7259,-3.7164,-3.722,-3.7259,-3.722,-3.6869,-3.6915,-3.7721,-3.8146,-3.844,-3.8588,-3.9244,-3.9351,-3.869,-3.8502,-3.8613,-3.9262,-3.8557,-3.8463,-3.8974,-3.8463,-3.8124,-3.8067,-3.8051,-3.7722,-2.0869,-2.0764,-2.0635,-2.0635,-2.0764,-2.0871,-2.0717,-2.1366,0.0,0.0,-2.1615,-2.1951,-2.1932,-2.2768,-2.3301,-2.2709,0.0,0.0,0.0,0.0,-2.5248,0.0,0.0,0.0,0.0,-2.6161,0.0,0.0,-3.1618,-3.3961,-3.4832,-3.5032,-3.5264,-3.564,-3.5689,-3.5737,-3.5791,-3.5784,-3.5784,-3.581,-3.5864,-3.5904,-3.5891,-3.5893,-3.5908,-3.5903,-3.5893,-3.5937,-3.5973,-3.5977,-3.5985,-3.5978,-3.5919,-3.5885,-3.5884,-3.5826,-3.5765,-3.5699,-3.5687,-3.5651,-3.5591,-3.5515,-3.5402,-3.53,-3.53,-3.5254,-3.5212,-3.5331,-3.5722,-3.6368,-3.749,-3.7904,-3.8233,-3.8965,-3.8868,-3.8535,-3.8153,-3.8018,-3.8002,-3.7934,-3.7967,-3.8002,-3.7934,-3.7792,-3.7631,-3.7485,-3.7372,-3.7126,-3.6597,-3.6834,-3.6987,-3.6806,-3.6444,-3.6569,-3.7465,-3.7364,-3.7636,-3.8522,-3.8672,-3.8668,-3.8557,-3.7911,-3.7838,-3.8502,-3.7911,-3.7637,-3.7695,-3.7637,-3.7298,-3.6831,-3.6616,-3.6492,-2.2347,-2.2347,-2.2286,-2.2286,-2.2347,-2.231,-2.1888,0.0,0.0,0.0,-2.2221,-2.2437,-2.2509,0.0,0.0,0.0,0.0,0.0,0.0,0.0,0.0,0.0,0.0,0.0,0.0,-2.6151,-2.8228,-2.8386,-3.2026,-3.4463,-3.498,-3.5239,-3.5463,-3.5679,-3.5698,-3.5708,-3.5736,-3.5791,-3.5826,-3.5862,-3.5878,-3.5894,-3.5911,-3.5895,-3.5907,-3.5901,-3.591,-3.5942,-3.5996,-3.6009,-3.5974,-3.5951,-3.5943,-3.5918,-3.5842,-3.5849,-3.5794,-3.5699,-3.5697,-3.5662,-3.5591,-3.5509,-3.5407,-3.5315,-3.5315,-3.5254,-3.5209,-3.5209,-3.534,-3.5666,-3.6578,-3.6998,-3.7328,-3.8025,-3.8248,-3.8201,-3.7915,-3.7898,-3.7916,-3.781,-3.7828,-3.781,-3.7792,-3.7613,-3.7466,-3.7354,-3.6952,-3.6574,-3.6266,-3.602,-3.5977,-3.6343,-3.5941,-3.6118,-3.7393,-3.7183,-3.7296,-3.803,-3.8068,-3.7879,-3.7504,-3.7118,-3.7238,-3.7796,-3.7238,-3.7074,-3.7417,-3.7074,-3.6708,-3.6352,-3.6274,-3.6148,-2.3715,-2.38,-2.3741,-2.3741,-2.38,-2.3663,-2.3044,-2.3275,0.0,0.0,-2.2951,-2.301,-2.3362,0.0,-2.4372,0.0,0.0,0.0,0.0,0.0,0.0,0.0,0.0,0.0,0.0,-2.6156,0.0,-2.8403,-3.2459,-3.5013,-3.5143,-3.5451,-3.5646,-3.5695,-3.5697,-3.5718,-3.5708,-3.5795,-3.5852,-3.5892,-3.5903,-3.5919,-3.5914,-3.5917,-3.5919,-3.5929,-3.5927,-3.5946,-3.5996,-3.5996,-3.5968,-3.5939,-3.5977,-3.5924,-3.5818,-3.586,-3.5823,-3.5708,-3.5678,-3.5623,-3.5584,-3.5501,-3.5398,-3.53,-3.53,-3.5239,-3.5209,-3.5209,-3.5091,-3.5135,-3.5815,-3.6194,-3.6611,-3.7331,-3.7697,-3.781,-3.7703,-3.7792,-3.781,-3.7721,-3.7667,-3.7631,-3.7613,-3.7392,-3.7182,-3.7048,-3.6492,-3.6011,-3.5749,-3.5128,-3.4941,-3.5537,-3.5325,-3.5706,-3.7184,-3.6949,-3.7026,-3.7568,-3.7429,-3.7103,-3.6554,-3.6492,-3.6723,-3.7118,-3.6723,-3.6723,-3.7118,-3.6646,-3.6352,-3.6148,-3.6133,-3.6022,-2.367,-2.3682,-2.3636,-2.3636,-2.3682,-2.3778,-2.3719,0.0,0.0,-2.3923,-2.4147,-2.4389,-2.4307,-2.4354,-2.4361,0.0,0.0,-2.3885,0.0,0.0,0.0,0.0,0.0,0.0,0.0,-2.5611,-2.7938,-2.8366,-3.2556,-3.5159,-3.5361,-3.557,-3.5695,-3.5707,-3.5708,-3.5736,-3.5784,-3.5872,-3.5898,-3.5903,-3.5895,-3.5938,-3.5992,-3.5987,-3.6001,-3.5989,-3.5981,-3.5988,-3.5992,-3.6003,-3.6007,-3.5996,-3.5997,-3.5963,-3.5877,-3.5826,-3.5795,-3.5753,-3.5585,-3.5558,-3.5574,-3.5449,-3.5364,-3.53,-3.5308,-3.5242,-3.5209,-3.5209,-3.5179,-3.53,-3.5874,-3.6418,-3.7082,-3.7986,-3.7962,-3.7703,-3.7703,-3.7703,-3.7721,-3.7613,-3.7503,-3.7429,-3.7334,-3.7182,-3.6851,-3.6266,-3.6139,-3.5688,-3.461,-3.4382,-3.4267,-3.402,-3.4535,-3.5302,-3.6481,-3.6246,-3.6463,-3.7541,-3.6982,-3.6538,-3.6492,-3.6492,-3.6414,-3.6321,-3.6414,-3.6367,-3.6163,-3.6211,-3.6148,-3.6037,-3.5816,-3.5752,-2.4689,-2.4908,-2.4881,-2.5273,-2.5149,-2.4903,-2.4753,0.0,-2.4836,-2.4581,-2.4942,-2.5237,-2.4926,-2.5044,-2.5084,-2.4828,0.0,0.0,0.0,0.0,0.0,0.0,0.0,0.0,0.0,0.0,-2.785,-3.0426,-3.3437,-3.5302,-3.5618,-3.5688,-3.5698,-3.5689,-3.5782,-3.5803,-3.5799,-3.5905,-3.5953,-3.5963,-3.5951,-3.5962,-3.5997,-3.5997,-3.6007,-3.6001,-3.5995,-3.5996,-3.5996,-3.5996,-3.5976,-3.5948,-3.5971,-3.5927,-3.5836,-3.5866,-3.582,-3.5791,-3.5718,-3.5648,-3.5581,-3.5502,-3.5393,-3.5308,-3.5293,-3.5261,-3.5193,-3.5196,-3.5073,-3.4946,-3.4861,-3.5425,-3.6352,-3.7618,-3.7792,-3.7613,-3.7466,-3.754,-3.7577,-3.7279,-3.7279,-3.7279,-3.7143,-3.6753,-3.6367,-3.6156,-3.5464,-3.4833,-3.4333,-3.3797,-3.3541,-3.383,-3.4222,-3.4851,-3.5776,-3.5875,-3.6219,-3.689,-3.6662,-3.6429,-3.6336,-3.6336,-3.6211,-3.6085,-3.6163,-3.61,-3.5973,-3.6022,-3.5958,-3.5831,-3.5752,-3.5638,-2.5378,-2.5725,-2.5906,-2.6336,-2.611,-2.5795,0.0,0.0,-2.5472,-2.5242,-2.5535,-2.5775,-2.5572,-2.5663,-2.5663,-2.5323,0.0,-2.4868,-2.4964,0.0,0.0,0.0,0.0,-2.5279,0.0,-2.5383,-2.8561,-3.2708,-3.436,-3.5388,-3.5775,-3.5766,-3.5747,-3.5737,-3.5842,-3.5878,-3.584,-3.5933,-3.5997,-3.6005,-3.5991,-3.5996,-3.5994,-3.6001,-3.6007,-3.5993,-3.5991,-3.6001,-3.6007,-3.6007,-3.5979,-3.5926,-3.5982,-3.5946,-3.5864,-3.5864,-3.5872,-3.5853,-3.5779,-3.5689,-3.5648,-3.5489,-3.5388,-3.5289,-3.5209,-3.5176,-3.5196,-3.5127,-3.5001,-3.4854,-3.4723,-3.5217,-3.6055,-3.7363,-3.7577,-3.7484,-3.7334,-3.7354,-3.7317,-3.7048,-3.7066,-3.7066,-3.6965,-3.6426,-3.5924,-3.5732,-3.4927,-3.4201,-3.3899,-3.3467,-3.3365,-3.3706,-3.431,-3.4845,-3.5383,-3.5814,-3.6212,-3.6461,-3.6414,-3.6352,-3.6211,-3.6148,-3.6085,-3.5894,-3.5973,-3.5973,-3.5861,-3.591,-3.5831,-3.5638,-3.5638,-3.5604,-2.5523,-2.5878,-2.6283,-2.6283,-2.617,-2.6094,0.0,0.0,-2.5879,-2.5901,-2.5881,-2.599,-2.6225,-2.6046,-2.5844,-2.5701,-2.5373,0.0,-2.4734,0.0,0.0,0.0,0.0,-2.4837,-2.3331,-2.6356,-3.0276,-3.4835,-3.5179,-3.5377,-3.5773,-3.5853,-3.5873,-3.5803,-3.5854,-3.5905,-3.5908,-3.5968,-3.6009,-3.5991,-3.6005,-3.6005,-3.5994,-3.5994,-3.5993,-3.5994,-3.6007,-3.6005,-3.5994,-3.5994,-3.5991,-3.5991,-3.5994,-3.5991,-3.5988,-3.5855,-3.5885,-3.5966,-3.5696,-3.5697,-3.5741,-3.54,-3.5311,-3.5254,-3.4981,-3.5038,-3.5147,-3.4945,-3.5001,-3.5256,-3.5917,-3.6286,-3.6683,-3.7417,-3.7447,-3.7297,-3.7297,-3.7143,-3.7027,-3.6987,-3.6846,-3.6702,-3.6702,-3.6191,-3.5571,-3.4925,-3.4496,-3.3949,-3.3058,-3.3474,-3.3752,-3.3455,-3.4629,-3.546,-3.5476,-3.6091,-3.6492,-3.6492,-3.6274,-3.6196,-3.6196,-3.6085,-3.5894,-3.5688,-3.5894,-3.5861,-3.5504,-3.5653,-3.5638,-3.5504,-3.5504,-3.5504,-2.6266,-2.6124,-2.5897,-2.6296,-2.6305,-2.6275,-2.6408,0.0,-2.5853,-2.6187,-2.6243,-2.6225,-2.6118,-2.6189,-2.6189,-2.5937,-2.5852,0.0,0.0,0.0,0.0,0.0,0.0,-2.4848,0.0,0.0,-2.9689,-3.2851,-3.4453,-3.5426,-3.5782,-3.5918,-3.5937,-3.586,-3.5923,-3.5963,-3.5967,-3.5986,-3.6004,-3.5994,-3.5992,-3.5996,-3.5993,-3.6007,-3.6001,-3.5994,-3.5996,-3.5996,-3.5991,-3.5991,-3.5991,-3.5991,-3.5991,-3.6007,-3.5981,-3.5947,-3.5923,-3.5914,-3.5827,-3.5768,-3.5708,-3.5546,-3.5359,-3.5152,-3.5016,-3.4982,-3.4964,-3.481,-3.4988,-3.5365,-3.5936,-3.6304,-3.6648,-3.7251,-3.7259,-3.7066,-3.6926,-3.6965,-3.6908,-3.6591,-3.6241,-3.595,-3.5854,-3.5035,-3.4366,-3.4169,-3.3662,-3.3414,-3.356,-3.3475,-3.3783,-3.4722,-3.5033,-3.5233,-3.5476,-3.5968,-3.6274,-3.6274,-3.6148,-3.6022,-3.5879,-3.5816,-3.5703,-3.5554,-3.5619,-3.5619,-3.5504,-3.5554,-3.5554,-3.5504,-3.5504,-3.5504,0.0,-2.687,-2.6669,-2.6689,-2.67,0.0,0.0,0.0,-2.6243,-2.6624,-2.6556,-2.6418,-2.647,-2.647,-2.6383,-2.6154,-2.6279,0.0,0.0,0.0,0.0,0.0,0.0,0.0,0.0,-2.8386,-2.9788,-3.2923,-3.4569,-3.5537,-3.5821,-3.5935,-3.5974,-3.5935,-3.5986,-3.6005,-3.5997,-3.5994,-3.6007,-3.6007,-3.5996,-3.5992,-3.6001,-3.5994,-3.5991,-3.5991,-3.5991,-3.5991,0.0,-3.6007,-3.6004,-3.6004,-3.6004,-3.6001,-3.5994,-3.5962,-3.5948,-3.5908,-3.5872,-3.5788,-3.5689,-3.5588,-3.5283,-3.4944,-3.487,-3.4774,-3.4747,-3.4936,-3.5306,-3.5736,-3.6218,-3.6627,-3.6952,-3.7135,-3.7027,-3.6829,-3.6742,-3.6684,-3.6609,-3.6318,-3.5881,-3.5493,-3.5374,-3.4464,-3.3783,-3.3665,-3.3429,-3.3357,-3.3593,-3.3802,-3.4285,-3.5202,-3.5323,-3.5476,-3.5676,-3.5982,-3.6148,-3.6148,-3.5958,-3.5831,-3.5688,-3.5335,-3.5299,-3.5504,-3.4935,-3.4935,-3.5504,-3.5504,-3.5504,-3.5504,-3.5504,-3.5359,0.0,0.0,0.0,0.0,0.0,0.0,0.0,0.0,0.0,0.0,0.0,-2.6539,-2.7129,-2.6906,-2.6538,-2.633,-2.6572,0.0,0.0,0.0,0.0,0.0,-2.5674,0.0,-2.9597,-2.9265,-3.0532,-3.4606,-3.535,-3.5689,-3.5888,-3.5962,-3.599,-3.599,-3.5996,-3.5995,-3.5999,-3.5994,-3.5996,-3.5996,-3.5993,-3.601,-3.601,-3.5999,-3.5991,-3.5991,-3.5991,-3.6007,-3.5997,-3.5997,-3.5994,-3.6005,-3.5981,-3.5981,-3.5977,-3.5917,-3.5879,-3.5872,-3.5807,-3.5735,-3.5679,-3.5512,-3.5127,-3.4733,-3.4668,-3.4539,-3.4549,-3.5274,-3.5853,-3.6296,-3.6638,-3.7146,-3.7503,-3.7087,-3.6829,-3.6643,-3.6661,-3.6395,-3.6165,-3.6122,-3.5571,-3.5128,-3.5081,-3.4301,-3.3646,-3.3419,-3.3646,-3.3743,-3.338,-3.4422,-3.5171,-3.5109,-3.5609,-3.5973,-3.5894,-3.5973,-3.5973,-3.5894,-3.5688,-3.5544,-3.5544,-3.4647,-3.4543,-3.5294,-3.3934,-3.3934,-3.5359,-3.5359,-3.5359,-3.5359,-3.5359,-3.492,-2.9676,0.0,-2.8027,-2.7189,-2.7049,0.0,0.0,0.0,0.0,0.0,0.0,0.0,0.0,0.0,0.0,0.0,0.0,0.0,0.0,0.0,0.0,-2.6466,-2.63,-2.7028,-2.9051,-2.9886,-3.1613,-3.4742,-3.5372,-3.5695,-3.5892,-3.5908,-3.5924,-3.5929,-3.5918,-3.5947,-3.6009,-3.5993,-3.5992,-3.6001,-3.5999,-3.5999,-3.5999,-3.5994,-3.6007,-3.6004,-3.6004,-3.5997,-3.6009,-3.6009,-3.6005,-3.5981,-3.5943,-3.5914,-3.5917,-3.5845,-3.5788,-3.5743,-3.5669,-3.5639,-3.5588,-3.5297,-3.5114,-3.5057,-3.5296,-3.482,-3.4315,-3.5129,-3.5882,-3.6536,-3.704,-3.7282,-3.7396,-3.7188,-3.6655,-3.6208,-3.631,-3.6165,-3.5932,-3.5526,-3.4878,-3.4284,-3.3887,-3.3198,-3.2827,-3.3187,-3.3306,-3.3683,-3.4485,-3.4728,-3.5059,-3.5685,-3.5642,-3.5394,-3.4942,-3.5479,-3.5544,-3.4942,-3.4728,-3.438,-3.3837,-3.3561,-3.3575,-3.3713,-3.3367,-3.3367,-3.3713,-3.3713,-3.3713,-3.3713,-3.3713,-3.3644,-3.0994,-2.988,-2.8661,-2.7591,-2.7295,-2.6956,0.0,0.0,0.0,0.0,0.0,0.0,0.0,0.0,0.0,0.0,-2.5542,0.0,0.0,0.0,0.0,-2.6647,-2.6412,-2.7163,-2.9375,-3.0406,-3.2027,-3.466,-3.5386,-3.576,-3.5898,-3.5908,-3.5914,-3.5938,-3.5955,-3.595,-3.5999,-3.5996,-3.5991,-3.6001,-3.6001,-3.6001,-3.6001,-3.6001,-3.5997,-3.5994,-3.5994,-3.5986,-3.5958,-3.5948,-3.5958,-3.5947,-3.5879,-3.5833,-3.5811,-3.5773,-3.5718,-3.564,-3.5615,-3.5589,-3.5566,-3.5687,-3.5709,-3.572,-3.6126,-3.5789,-3.5403,-3.6131,-3.6629,-3.6964,-3.7247,-3.7309,-3.7193,-3.6741,-3.6326,-3.6019,-3.6079,-3.5783,-3.5453,-3.5144,-3.4333,-3.3531,-3.3287,-3.2905,-3.2772,-3.3038,-3.3617,-3.4212,-3.4772,-3.4726,-3.4768,-3.5175,-3.4758,-3.4274,-3.3973,-3.4312,-3.438,-3.3973,-3.3837,-3.363,-3.3213,-3.2861,-3.2519,-3.2173,-3.2875,-3.3003,-3.272,-3.3003,-3.3143,-3.3059,-3.3143,-3.2932,-3.1432,-3.0507,-2.9269,-2.8184,-2.7429,-2.6684,0.0,0.0,0.0,0.0,0.0,0.0,0.0,0.0,0.0,0.0,0.0,0.0,0.0,-2.6185,-2.6006,-2.6843,-2.6424,-2.7136,-2.9811,-3.0772,-3.2202,-3.4546,-3.5374,-3.5832,-3.5896,-3.5898,-3.5917,-3.5986,-3.5977,-3.5996,-3.5991,-3.6004,-3.6005,-3.6005,-3.6005,-3.6005,-3.6005,-3.6005,-3.5986,-3.5981,-3.5977,-3.5953,-3.5899,-3.5891,-3.5885,-3.5891,-3.5799,-3.5745,-3.5708,-3.5688,-3.5723,-3.5805,-3.59,-3.5913,-3.5945,-3.6511,-3.6608,-3.6578,-3.7084,-3.7025,-3.6939,-3.7608,-3.7581,-3.7374,-3.7434,-3.7323,-3.6981,-3.635,-3.6045,-3.5932,-3.5975,-3.5498,-3.5021,-3.4864,-3.3903,-3.3071,-3.3036,-3.3029,-3.3059,-3.3197,-3.4122,-3.4753,-3.467,-3.4471,-3.4312,-3.4177,-3.3561,-3.3143,-3.3003,-3.3003,-3.2932,-3.2804,-3.2932,-3.3003,-3.2875,-3.2232,-3.1676,-3.0986,-3.2245,-3.2591,-3.1942,-3.2591,-3.2791,-3.255,-3.2791,-3.2448,-2.9699,-2.9125,-2.8564,-2.8095,-2.6689,-2.5366,0.0,0.0,0.0,0.0,0.0,0.0,0.0,0.0,0.0,0.0,0.0,-2.5895,0.0,0.0,-2.7243,-2.5971,0.0,-2.783,-2.8861,-3.0766,-3.2713,-3.4563,-3.5377,-3.5833,-3.5902,-3.5849,-3.5845,-3.5908,-3.5929,-3.5932,-3.5996,-3.6009,-3.601,-3.6005,-3.6005,-3.6005,-3.6005,-3.6005,-3.5962,-3.5909,-3.5928,-3.5911,-3.5892,-3.585,-3.5826,-3.5799,-3.5737,-3.5708,-3.5688,-3.5558,-3.5991,-3.671,-3.7339,-3.749,-3.7463,-3.7568,-3.7521,-3.7528,-3.8085,-3.8037,-3.7906,-3.8524,-3.8003,-3.738,-3.8067,-3.7614,-3.702,-3.7038,-3.6333,-3.5711,-3.5817,-3.5667,-3.5224,-3.4186,-3.3836,-3.353,-3.3095,-3.3023,-3.3319,-3.4271,-3.4055,-3.3965,-3.4309,-3.3779,-3.3422,-3.3353,-3.3297,-3.2932,-3.229,-3.229,-3.1942,-3.1123,-3.1809,-3.2028,-3.1334,-3.1198,-3.1123,-3.0986,-3.1198,-3.1259,-3.1198,-3.1259,-3.1259,-3.1048,-3.1259,-3.111,-2.8301,-2.7594,-2.6908,-2.7517,-2.7386,-2.6948,0.0,0.0,0.0,0.0,0.0,0.0,0.0,0.0,0.0,0.0,0.0,-2.5004,-2.5919,-2.6123,-2.6038,0.0,-2.7049,-2.8273,-2.8954,-3.1607,-3.3671,-3.4591,-3.5402,-3.5846,-3.5843,-3.5857,-3.5872,-3.5908,-3.5942,-3.5966,-3.5995,-3.5994,-3.5979,-3.5955,-3.5958,-3.5958,-3.5947,-3.5947,-3.5911,-3.5846,-3.5845,-3.5857,-3.5862,-3.625,-3.6396,-3.6426,-3.6845,-3.6972,-3.6928,-3.6824,-3.7051,-3.7406,-3.7521,-3.7565,-3.7566,-3.7761,-3.7807,-3.7872,-3.8427,-3.8505,-3.8395,-3.8542,-3.8209,-3.7816,-3.7995,-3.7505,-3.6882,-3.6643,-3.6054,-3.5566,-3.5503,-3.4975,-3.435,-3.3786,-3.3429,-3.311,-3.2907,-3.3396,-3.383,-3.3987,-3.4017,-3.3912,-3.3725,-3.3073,-3.2577,-3.2577,-3.216,-3.1676,-3.1394,-3.1233,-3.1097,-3.0911,-3.1022,-3.1097,-3.0849,-3.0748,-3.0672,-3.0672,-3.0672,-3.0748,-3.0849,-3.0748,-3.0609,-3.0533,-3.0596,-3.052,-2.6739,-2.6127,-2.5518,-2.6622,0.0,0.0,0.0,0.0,0.0,0.0,0.0,0.0,0.0,0.0,0.0,-2.6557,-2.5191,-2.4567,-2.6237,-2.5468,-2.4838,-2.5266,-2.6909,-2.8362,-2.9216,-3.2153,-3.4228,-3.4706,-3.5452,-3.5872,-3.5794,-3.5862,-3.5892,-3.5908,-3.5974,-3.6001,-3.5992,-3.5975,-3.594,-3.5896,-3.5899,-3.5885,-3.5884,-3.6078,-3.6141,-3.611,-3.6278,-3.6347,-3.6405,-3.6947,-3.7185,-3.7251,-3.7842,-3.8012,-3.792,-3.8005,-3.8049,-3.8016,-3.7847,-3.7778,-3.7826,-3.8103,-3.8167,-3.8234,-3.8654,-3.873,-3.8628,-3.8433,-3.8289,-3.8122,-3.7863,-3.7321,-3.6741,-3.6291,-3.5844,-3.5446,-3.5291,-3.4496,-3.3799,-3.3806,-3.3317,-3.2912,-3.3066,-3.3722,-3.412,-3.3667,-3.3739,-3.3547,-3.2932,-3.2232,-3.1723,-3.1723,-3.1035,-3.0622,-3.0622,-3.0457,-3.0444,-3.0836,-3.0596,-3.0444,-3.0609,-3.0444,-3.0368,-3.0368,-3.0368,-3.0444,-3.0622,-3.0444,-3.0368,-3.0292,-3.0368,-3.0292,-2.463,-2.4717,-2.5083,-2.531,0.0,0.0,-2.6491,-2.5711,0.0,-2.4788,0.0,0.0,0.0,-2.3159,-2.3349,-2.2883,-2.3992,-2.5071,-2.5455,-2.5396,-2.5039,-2.4236,-2.5938,-2.773,-2.9148,-3.1645,-3.3731,-3.5058,-3.5607,-3.5863,-3.5805,-3.5864,-3.5891,-3.5908,-3.5974,-3.5994,-3.5994,-3.5935,-3.5903,-3.589,-3.5911,-3.5864,-3.5838,-3.6634,-3.7003,-3.7033,-3.7734,-3.8031,-3.802,-3.8022,-3.8003,-3.8022,-3.802,-3.7851,-3.7714,-3.8247,-3.8466,-3.8518,-3.9053,-3.9196,-3.9146,-3.9119,-3.9024,-3.8961,-3.9026,-3.8828,-3.8523,-3.8572,-3.8252,-3.7934,-3.7967,-3.734,-3.6706,-3.658,-3.5941,-3.5291,-3.5291,-3.4802,-3.4364,-3.434,-3.385,-3.3637,-3.4284,-3.3873,-3.3667,-3.4167,-3.3101,-3.2146,-3.1942,-3.1259,-3.0761,-3.0508,-3.0432,-3.0444,-3.0444,-3.0228,-3.0228,-3.0444,-3.0444,-3.0444,-3.0444,-3.0444,-3.0368,-3.0368,-3.0368,-3.0444,-3.0444,-3.0444,-3.0292,-3.0152,-3.0292,-3.0228,-2.3985,-2.4938,-2.5702,-2.5408,0.0,0.0,0.0,-2.6932,-2.5828,-2.4678,-2.4758,0.0,0.0,0.0,-2.5213,-2.4152,-2.5142,-2.5891,-2.5481,-2.5398,-2.5371,-2.5399,-2.7199,-2.9047,-3.0528,-3.2964,-3.4679,-3.5153,-3.5601,-3.5834,-3.5854,-3.5898,-3.5908,-3.5907,-3.5975,-3.5996,-3.5996,-3.6472,-3.6688,-3.6657,-3.665,-3.6615,-3.6561,-3.7405,-3.7781,-3.7807,-3.804,-3.8119,-3.8112,-3.8632,-3.8816,-3.8811,-3.9169,-3.9109,-3.8847,-3.901,-3.9053,-3.9043,-3.9005,-3.8952,-3.8896,-3.864,-3.8535,-3.8491,-3.8436,-3.8364,-3.8289,-3.8204,-3.7862,-3.7542,-3.756,-3.7097,-3.6522,-3.6147,-3.5588,-3.5152,-3.5041,-3.4301,-3.377,-3.4169,-3.3877,-3.3532,-3.3642,-3.3717,-3.3496,-3.2664,-3.2074,-3.1516,-3.1009,-3.0672,-3.0444,-3.0444,-3.0292,-3.0152,-3.0011,-2.9934,-2.9934,-3.0011,-3.0011,-3.0075,-3.0228,-3.0075,-3.0011,-3.0011,-3.0011,-3.0075,-3.0228,-3.0075,-3.0088,-3.0075,-3.0088,-2.9934,-2.438,-2.5429,-2.6222,0.0,0.0,0.0,-2.7889,-2.7536,-2.6636,-2.5575,-2.5183,0.0,0.0,0.0,0.0,0.0,-2.5494,-2.604,-2.5106,-2.5378,-2.5726,-2.5885,-2.8373,-3.0509,-3.1591,-3.3939,-3.5393,-3.5383,-3.5657,-3.5843,-3.5902,-3.5924,-3.5929,-3.5929,-3.5972,-3.6135,-3.642,-3.6944,-3.7303,-3.7518,-3.7761,-3.7705,-3.7411,-3.8222,-3.8593,-3.8588,-3.878,-3.8835,-3.8825,-3.9427,-3.9576,-3.948,-3.9754,-3.9687,-3.9414,-3.9249,-3.9144,-3.9044,-3.87,-3.8566,-3.8523,-3.8256,-3.8174,-3.8122,-3.8036,-3.7967,-3.7863,-3.7721,-3.7358,-3.6964,-3.6829,-3.6568,-3.619,-3.5759,-3.5362,-3.4947,-3.4691,-3.4078,-3.3628,-3.4116,-3.3966,-3.368,-3.344,-3.3496,-3.3129,-3.1723,-3.1294,-3.0934,-3.0368,-3.0292,-3.0292,-3.0228,-3.0075,-2.9856,-2.9456,-2.9624,-2.9702,-2.9378,-2.9624,-2.9869,-3.0011,-2.9869,-2.9792,-2.9792,-2.9792,-2.9869,-3.0011,-2.9869,-2.9869,-3.0011,-2.9869,-2.9792,-2.5785,-2.6022,-2.6406,0.0,0.0,0.0,-2.7441,-2.6956,-2.6653,-2.7927,0.0,-2.3767,-2.2928,-2.3427,0.0,-2.2924,-2.4476,-2.5356,-2.4137,-2.526,-2.5982,-2.5365,-2.9157,-3.1893,-3.2108,-3.4227,-3.5659,-3.5776,-3.586,-3.5891,-3.5899,-3.597,-3.6004,-3.5991,-3.5991,-3.6428,-3.7296,-3.7242,-3.7611,-3.8433,-3.9228,-3.9116,-3.8247,-3.9039,-3.9399,-3.9455,-4.0173,-4.0489,-4.0489,-4.043,-4.0233,-3.9943,-3.9464,-3.9208,-3.9044,-3.8803,-3.8609,-3.8478,-3.8354,-3.8307,-3.8274,-3.8225,-3.8122,-3.7984,-3.7984,-3.7596,-3.717,-3.719,-3.6803,-3.6291,-3.583,-3.5698,-3.5671,-3.5616,-3.5241,-3.4739,-3.4201,-3.417,-3.4187,-3.4287,-3.4272,-3.4124,-3.398,-3.3297,-3.2403,-3.1589,-3.0872,-3.0292,-3.0152,-3.0075,-3.0011,-2.9792,-2.9792,-2.9456,-2.8542,-2.9287,-2.9378,-2.8542,-2.93,-2.9792,-2.9792,-2.9792,-2.9792,-2.9792,-2.9792,-2.9792,-2.9792,-2.9792,-2.9792,-2.9792,-2.9792,-2.9792,-2.6154,-2.7054,0.0,0.0,0.0,0.0,0.0,-2.6818,0.0,0.0,-2.5423,-2.4393,-2.3232,-2.3867,0.0,-2.318,-2.4083,-2.4429,-2.3132,-2.479,-2.6346,-2.6729,-2.9749,-3.2459,-3.412,-3.4994,-3.5581,-3.5851,-3.5803,-3.5823,-3.5962,-3.5942,-3.5952,-3.5996,-3.6003,-3.6394,-3.723,-3.7825,-3.8494,-3.9257,-4.0112,-4.0012,-3.9078,-3.9882,-4.024,-4.0256,-4.0431,-4.0463,-4.0413,-4.0139,-3.9775,-3.9339,-3.9171,-3.8915,-3.8658,-3.8465,-3.8387,-3.8354,-3.8274,-3.8225,-3.8225,-3.8225,-3.788,-3.7524,-3.7559,-3.719,-3.6689,-3.6643,-3.6256,-3.5847,-3.5688,-3.5391,-3.5148,-3.5102,-3.4977,-3.4823,-3.4649,-3.4399,-3.4288,-3.4621,-3.4418,-3.3914,-3.2989,-3.2621,-3.1928,-3.0508,-3.0152,-2.9934,-2.9856,-2.9353,-2.8949,-2.8882,-2.8303,-2.781,-2.7557,-2.773,-2.781,-2.7557,-2.773,-2.8462,-2.9714,-2.9792,-2.9792,-2.9792,-2.9792,-2.9792,-2.9792,-2.9792,-2.9792,-2.9792,-2.9792,-2.9792,-2.8151,0.0,0.0,0.0,0.0,0.0,0.0,0.0,0.0,0.0,0.0,-2.531,-2.3923,-2.4369,0.0,-2.3264,-2.3528,-2.3822,-2.3676,-2.5446,-2.7373,-2.9082,-3.1646,-3.381,-3.5191,-3.5463,-3.5639,-3.5851,-3.581,-3.5846,-3.5988,-3.5958,-3.596,-3.5995,-3.6339,-3.6928,-3.7756,-3.86,-3.939,-4.012,-4.0587,-4.044,-3.9779,-4.0342,-4.0534,-4.0392,-4.0196,-4.0061,-4.002,-3.9664,-3.9314,-3.899,-3.8828,-3.8628,-3.8401,-3.8322,-3.8256,-3.8189,-3.8192,-3.8072,-3.7863,-3.7845,-3.7469,-3.702,-3.6999,-3.6626,-3.6215,-3.6122,-3.5776,-3.5436,-3.5362,-3.5102,-3.4899,-3.4899,-3.4905,-3.4855,-3.4521,-3.4518,-3.4546,-3.4465,-3.4189,-3.3595,-3.2467,-3.196,-3.1328,-2.9998,-2.9534,-2.9378,-2.9792,-2.8712,-2.8051,-2.8462,-2.7637,-2.6987,-2.6565,-2.6905,-2.6976,-2.6565,-2.6894,-2.7568,-2.8712,-2.8712,-2.9052,-2.9792,-2.9456,-2.9456,-2.9792,-2.9792,-2.9792,-2.9792,-2.9792,-2.9792,-3.0874,0.0,0.0,0.0,0.0,0.0,0.0,0.0,-2.8803,-2.7209,0.0,-2.6389,-2.4905,-2.4751,-2.4503,-2.3502,-2.3289,-2.3852,-2.5456,-2.7016,-2.9004,-3.1684,-3.4072,-3.5509,-3.5512,-3.5697,-3.5799,-3.5801,-3.5872,-3.5936,-3.5997,-3.5997,-3.5986,-3.5996,-3.6852,-3.7702,-3.8561,-3.9379,-4.0154,-4.0867,-4.0738,-4.053,-4.03,-4.0466,-4.0351,-4.0022,-3.9664,-3.9494,-3.9408,-3.9036,-3.8868,-3.881,-3.8523,-3.8336,-3.8307,-3.8223,-3.8086,-3.7949,-3.8002,-3.7739,-3.7321,-3.7248,-3.6904,-3.6498,-3.6381,-3.6037,-3.5694,-3.5588,-3.5333,-3.5041,-3.4947,-3.4949,-3.4998,-3.4886,-3.4954,-3.4808,-3.4219,-3.458,-3.4848,-3.4164,-3.3763,-3.3213,-3.2393,-3.1536,-3.0607,-2.9934,-2.904,-2.8791,-2.9546,-2.8131,-2.7313,-2.8131,-2.7395,-2.6577,-2.5746,-2.6412,-2.6494,-2.5746,-2.6412,-2.6905,-2.6976,-2.7069,-2.7891,-2.9624,-2.8791,-2.887,-2.9792,-2.9714,-2.9702,-2.9792,-2.9792,-2.9792,0.0,-3.0935,0.0,0.0,0.0,0.0,0.0,0.0,-2.9997,-2.7795,-2.7367,-2.7014,-2.5833,-2.4887,-2.4682,-2.5938,-2.5697,-2.5909,-2.7532,-2.9695,-3.1168,-3.1303,-3.3836,-3.5588,-3.5572,-3.571,-3.5813,-3.5864,-3.5888,-3.59,-3.5923,-3.5925,-3.5951,-3.5996,-3.6841,-3.7669,-3.8451,-3.9237,-3.9985,-4.0649,-4.0487,-4.0296,-4.0139,-4.0139,-3.9944,-3.9599,-3.9548,-3.9308,-3.9008,-3.8924,-3.8741,-3.8491,-3.8368,-3.8289,-3.8223,-3.7721,-3.747,-3.7379,-3.6985,-3.679,-3.6671,-3.6671,-3.6305,-3.5916,-3.5977,-3.5571,-3.5118,-3.5182,-3.5088,-3.4947,-3.4899,-3.533,-3.5597,-3.4996,-3.4836,-3.4904,-3.5243,-3.5093,-3.4766,-3.4361,-3.3862,-3.3213,-3.229,-3.1476,-3.0607,-2.9934,-2.904,-2.8542,-2.8791,-2.7221,-2.6152,-2.6318,-2.5589,-2.4946,-2.4775,-2.4946,-2.4946,-2.4786,-2.4946,-2.5359,-2.6069,-2.673,-2.7637,-2.8791,-2.7891,-2.8223,-2.9792,-2.9131,-2.9118,-2.9792,-2.9792,-2.9792,0.0,0.0,0.0,0.0,0.0,0.0,0.0,0.0,-3.1127,-2.9624,-2.848,-2.7393,-2.6376,-2.5429,-2.5261,-2.6561,-2.6493,-2.7109,-2.9444,-3.0926,-3.2172,-3.3262,-3.4791,-3.5749,-3.5747,-3.5807,-3.5864,-3.5907,-3.5896,-3.5906,-3.5893,-3.5935,-3.6152,-3.6615,-3.7438,-3.8249,-3.9019,-3.9809,-4.0352,-4.0604,-4.0326,-4.0005,-3.9614,-3.9595,-3.9462,-3.9308,-3.9072,-3.8868,-3.87,-3.856,-3.8328,-3.8052,-3.7862,-3.7667,-3.7487,-3.7079,-3.6907,-3.6829,-3.6591,-3.6364,-3.6172,-3.6113,-3.5786,-3.5391,-3.5436,-3.5195,-3.4899,-3.4994,-3.4947,-3.4982,-3.533,-3.5482,-3.5556,-3.5803,-3.5623,-3.5298,-3.5183,-3.4967,-3.4703,-3.4476,-3.3534,-3.2648,-3.2146,-3.1145,-3.0203,-2.9869,-2.8712,-2.7971,-2.8462,-2.6577,-2.5348,-2.5746,-2.502,-2.454,-2.454,-2.454,-2.454,-2.454,-2.454,-2.47,-2.5179,-2.56,-2.6505,-2.7799,-2.6905,-2.7151,-2.8474,-2.8462,-2.8712,-2.9209,-2.9624,-2.9792,0.0,0.0,0.0,0.0,0.0,0.0,0.0,-3.2468,-3.2287,-3.1709,-2.9869,-2.8111,-2.7074,-2.6557,-2.648,-2.7155,-2.7498,-2.8711,-3.1623,-3.21,-3.3091,-3.5564,-3.5906,-3.5911,-3.5898,-3.5912,-3.5925,-3.5921,-3.5914,-3.5917,-3.5917,-3.6112,-3.6554,-3.7256,-3.8206,-3.9009,-3.9692,-4.0451,-4.0757,-4.0532,-4.0172,-3.9668,-3.9045,-3.8999,-3.899,-3.8962,-3.8566,-3.8415,-3.8396,-3.8135,-3.7862,-3.7577,-3.7228,-3.6886,-3.6649,-3.6429,-3.6323,-3.6281,-3.6239,-3.5977,-3.565,-3.5599,-3.5362,-3.5041,-3.4947,-3.4899,-3.4899,-3.4899,-3.4982,-3.523,-3.5843,-3.5675,-3.561,-3.6565,-3.6348,-3.5718,-3.4861,-3.4653,-3.4563,-3.4264,-3.2946,-3.1856,-3.1723,-3.0659,-2.9714,-2.9624,-2.8131,-2.7313,-2.7971,-2.5924,-2.4775,-2.5495,-2.485,-2.4368,-2.4454,-2.4454,-2.4454,-2.4368,-2.4454,-2.4454,-2.4454,-2.4454,-2.5189,-2.6659,-2.5913,-2.608,-2.7069,-2.7879,-2.8371,-2.8542,-2.9378,-2.9792,0.0,0.0,0.0,0.0,0.0,0.0,0.0,0.0,-3.3351,0.0,-3.1308,-2.9631,-2.8508,-2.8697,-2.9265,-3.0082,-3.1257,-3.274,-3.4666,-3.5144,-3.5408,-3.5683,-3.5876,-3.5955,-3.5903,-3.5949,-3.5984,-3.5984,-3.5982,-3.5982,-3.5982,-3.6716,-3.7155,-3.7219,-3.8721,-3.9552,-3.9617,-4.0293,-4.0537,-4.0321,-3.975,-3.9253,-3.8833,-3.8646,-3.8566,-3.8566,-3.8446,-3.8318,-3.8135,-3.7721,-3.7469,-3.7228,-3.6751,-3.6591,-3.647,-3.5985,-3.5786,-3.5742,-3.5253,-3.5055,-3.5024,-3.5024,-3.4977,-3.4947,-3.4899,-3.4899,-3.4899,-3.4899,-3.5363,-3.5876,-3.5976,-3.6375,-3.6614,-3.6001,-3.5784,-3.5619,-3.5492,-3.4898,-3.4264,-3.352,-3.2132,-3.0833,-3.0216,-2.9934,-2.9546,-2.8791,-2.781,-2.6905,-2.6235,-2.502,-2.4368,-2.4615,-2.4186,-2.4024,-2.4196,-2.4206,-2.411,-2.3927,-2.4282,-2.4454,-2.4292,-2.4368,-2.4625,-2.4871,-2.47,-2.5432,-2.7069,-2.7232,-2.7718,-2.8542,-2.9378,-2.9792,0.0,0.0,0.0,0.0,0.0,0.0,0.0,0.0,-3.4284,-3.3922,-3.3365,-3.2533,-3.1228,-3.0716,-3.0979,-3.2411,-3.3029,-3.3866,-3.5354,-3.5708,-3.5825,-3.5756,-3.5836,-3.5894,-3.5908,-3.5966,-3.6004,-3.5997,-3.645,-3.6726,-3.6729,-3.7515,-3.8185,-3.8638,-3.9338,-3.9876,-4.0275,-4.0303,-3.9985,-3.9283,-3.909,-3.8663,-3.8029,-3.8099,-3.8216,-3.8415,-3.7998,-3.7773,-3.7721,-3.7135,-3.6706,-3.6422,-3.613,-3.5873,-3.5688,-3.5391,-3.5253,-3.5224,-3.4977,-3.4899,-3.4899,-3.4899,-3.4899,-3.4899,-3.4899,-3.4906,-3.4954,-3.4954,-3.5221,-3.5605,-3.5921,-3.5982,-3.591,-3.5707,-3.5368,-3.5037,-3.4957,-3.4654,-3.4045,-3.2804,-3.1696,-3.0696,-2.9934,-2.9792,-2.9534,-2.8621,-2.7718,-2.673,-2.5735,-2.4765,-2.4206,-2.41,-2.3927,-2.3841,-2.3937,-2.4024,-2.3937,-2.3841,-2.411,-2.4292,-2.4206,-2.4368,-2.454,-2.454,-2.454,-2.4861,-2.5684,-2.6659,-2.7313,-2.7718,-2.8633,-2.9287,0.0,0.0,0.0,0.0,0.0,0.0,0.0,0.0,-3.5153,0.0,-3.5341,-3.5254,-3.4203,-3.3213,-3.293,-3.3923,-3.4333,-3.474,-3.5435,-3.5685,-3.5782,-3.5749,-3.5966,-3.6144,-3.6184,-3.645,-3.6606,-3.6621,-3.7234,-3.7593,-3.7589,-3.8376,-3.9107,-3.9725,-3.9928,-4.0228,-4.066,-4.0147,-3.9383,-3.8438,-3.8493,-3.8125,-3.7397,-3.7488,-3.7685,-3.7929,-3.7379,-3.7173,-3.7173,-3.6504,-3.6045,-3.582,-3.5543,-3.5287,-3.5041,-3.4947,-3.4899,-3.4899,-3.4899,-3.4899,-3.4899,-3.4739,-3.4806,-3.4906,-3.4743,-3.488,-3.5048,-3.5048,-3.5236,-3.5565,-3.5896,-3.5627,-3.5368,-3.557,-3.5088,-3.4563,-3.4414,-3.4113,-3.3465,-3.2304,-3.1281,-3.0419,-2.9856,-2.9792,-2.9456,-2.8303,-2.7476,-2.6565,-2.5337,-2.4519,-2.3937,-2.3841,-2.3667,-2.3667,-2.3754,-2.3754,-2.3667,-2.3667,-2.3927,-2.411,-2.411,-2.4282,-2.4454,-2.454,-2.454,-2.454,-2.454,-2.6008,-2.6894,-2.7151,-2.781,-2.8712,0.0,0.0,0.0,0.0,0.0,0.0,0.0,0.0,-3.5977,-3.6399,-3.6921,-3.7266,-3.7269,-3.663,-3.5698,-3.4309,-3.5524,-3.6338,-3.5436,-3.5599,-3.5752,-3.5626,-3.6453,-3.7016,-3.6957,-3.7746,-3.8279,-3.8279,-3.8385,-3.841,-3.8344,-3.9229,-3.97,-3.9602,-4.0399,-4.0662,-4.0346,-3.9605,-3.8941,-3.829,-3.8122,-3.7771,-3.7305,-3.6985,-3.6829,-3.6786,-3.6746,-3.6626,-3.6422,-3.5959,-3.5671,-3.5571,-3.5102,-3.4947,-3.4899,-3.4899,-3.4899,-3.4899,-3.4899,-3.4899,-3.4804,-3.43,-3.4522,-3.4884,-3.4371,-3.4699,-3.5196,-3.5196,-3.5701,-3.6195,-3.6021,-3.5922,-3.5804,-3.5627,-3.5023,-3.4414,-3.4414,-3.3241,-3.2232,-3.2087,-3.0872,-2.9869,-2.9792,-2.9792,-2.9209,-2.7476,-2.6987,-2.6163,-2.4444,-2.3851,-2.358,-2.3754,-2.3406,-2.3232,-2.3503,-2.3503,-2.3406,-2.3135,-2.358,-2.3841,-2.3841,-2.411,-2.4292,-2.454,-2.454,-2.454,-2.454,-2.5421,-2.6318,-2.7069,-2.7151,-2.8131,0.0,0.0,0.0,0.0,0.0,0.0,-3.507,-3.597,-3.6764,-3.6939,-3.7432,-3.7844,-3.7879,-3.746,-3.698,-3.6555,-3.6831,-3.7064,-3.6869,-3.6983,-3.7102,-3.7141,-3.746,-3.7691,-3.7762,-3.8112,-3.8338,-3.8346,-3.8875,-3.9194,-3.9159,-3.9988,-4.041,-4.0374,-4.0455,-4.0145,-3.9359,-3.8785,-3.8132,-3.7416,-3.7232,-3.6829,-3.619,-3.6215,-3.6002,-3.5661,-3.5661,-3.5776,-3.5916,-3.5374,-3.5178,-3.5102,-3.4994,-3.4899,-3.4899,-3.4899,-3.4899,-3.4899,-3.4899,-3.4691,-3.4415,-3.4586,-3.4583,-3.4498,-3.4739,-3.5029,-3.5267,-3.5267,-3.5416,-3.5516,-3.5374,-3.5185,-3.5052,-3.4905,-3.4221,-3.3604,-3.3604,-3.2804,-3.1928,-3.1415,-3.0495,-2.9624,-2.904,-2.8961,-2.8303,-2.64,-2.5986,-2.5411,-2.3927,-2.359,-2.3493,-2.3396,-2.3222,-2.3144,-2.3232,-2.3232,-2.3232,-2.3144,-2.3406,-2.359,-2.359,-2.4024,-2.4206,-2.4292,-2.4454,-2.454,-2.454,-2.5337,-2.5986,-2.6235,-2.6235,-2.6894,-3.0319,0.0,0.0,0.0,0.0,-3.3922,-3.4694,0.0,-3.6622,-3.7117,-3.7578,-3.7948,-3.8201,-3.8039,-3.79,-3.7848,-3.7826,-3.7775,-3.7678,-3.7725,-3.784,-3.7964,-3.8257,-3.8479,-3.8586,-3.8935,-3.9131,-3.9151,-3.9703,-4.0023,-3.9995,-4.0449,-4.0633,-4.0474,-4.0058,-3.9406,-3.8527,-3.8071,-3.7434,-3.662,-3.6522,-3.6105,-3.5515,-3.5526,-3.5362,-3.5041,-3.4994,-3.5148,-3.5419,-3.5008,-3.4851,-3.4899,-3.4851,-3.4851,-3.4899,-3.4899,-3.4804,-3.4643,-3.4643,-3.4397,-3.4146,-3.4367,-3.4518,-3.4597,-3.4891,-3.5154,-3.5353,-3.5275,-3.5228,-3.5148,-3.4883,-3.475,-3.4481,-3.4113,-3.3589,-3.3073,-3.2563,-3.206,-3.1563,-3.1031,-3.0266,-2.9624,-2.904,-2.8712,-2.7879,-2.6235,-2.5652,-2.4904,-2.3667,-2.3416,-2.3319,-2.3135,-2.3135,-2.3135,-2.3135,-2.3135,-2.3135,-2.3135,-2.3232,-2.3416,-2.3503,-2.3851,-2.412,-2.4206,-2.4368,-2.454,-2.454,-2.5105,-2.5505,-2.583,-2.5505,-2.583,0.0,0.0,0.0,0.0,0.0,0.0,-3.4286,0.0,-3.544,-3.6882,-3.736,-3.7721,-3.8346,-3.8609,-3.8534,-3.8013,-3.8426,-3.8556,-3.7794,-3.7785,-3.792,-3.805,-3.8825,-3.9364,-3.9432,-4.0249,-4.0781,-4.0776,-4.0849,-4.0839,-4.0788,-4.0591,-4.0258,-3.9792,-3.9202,-3.8586,-3.7986,-3.7578,-3.6939,-3.6097,-3.595,-3.5705,-3.5379,-3.5024,-3.4899,-3.4899,-3.4739,-3.4756,-3.4899,-3.4739,-3.4804,-3.4899,-3.4756,-3.4804,-3.4899,-3.4899,-3.4546,-3.4101,-3.4117,-3.4158,-3.4125,-3.3615,-3.4278,-3.5171,-3.4676,-3.4981,-3.5439,-3.5294,-3.5213,-3.5148,-3.4765,-3.4549,-3.4196,-3.3367,-3.3143,-3.2706,-3.1254,-3.0895,-3.0895,-3.0895,-3.0279,-2.9792,-2.9792,-2.904,-2.8051,-2.6894,-2.5797,-2.4713,-2.3667,-2.3232,-2.3135,-2.3135,-2.3135,-2.3135,-2.3135,-2.3135,-2.3135,-2.3135,-2.3135,-2.3232,-2.3503,-2.3667,-2.3927,-2.4196,-2.4368,-2.454,-2.4454,-2.454,-2.4946,-2.5746,-2.4861,-2.4935,-3.006,0.0,0.0,0.0,0.0,0.0,0.0,0.0,-3.5696,-3.6098,-3.7059,-3.7843,-3.8013,-3.8566,-3.8943,-3.8867,-3.9046,-3.926,-3.9372,-3.9433,-3.9509,-3.9653,-3.9915,-4.0114,-4.0188,-4.0463,-4.0673,-4.0662,-4.0535,-4.0427,-4.0364,-3.9986,-3.9596,-3.9175,-3.8659,-3.8136,-3.756,-3.6981,-3.6457,-3.595,-3.5633,-3.5304,-3.5024,-3.4835,-3.4691,-3.4594,-3.4546,-3.4594,-3.4611,-3.4707,-3.4691,-3.4739,-3.4594,-3.4643,-3.4707,-3.43,-3.4101,-3.3963,-3.4149,-3.3952,-3.3723,-3.4537,-3.476,-3.4798,-3.5135,-3.5355,-3.5504,-3.5439,-3.5294,-3.5148,-3.4765,-3.4249,-3.3659,-3.3297,-3.2349,-3.1402,-3.0957,-3.0482,-3.0062,-3.0062,-2.9934,-2.9624,-2.8961,-2.8131,-2.7058,-2.5797,-2.4734,-2.3907,-2.3309,-2.3144,-2.3135,-2.3135,-2.3135,-2.3135,-2.3135,-2.3135,-2.3135,-2.3135,-2.3135,-2.3135,-2.3232,-2.358,-2.3754,-2.3677,-2.4196,-2.4454,-2.4282,-2.4454,-2.4615,-2.4861,-2.4615,-2.4935,0.0,0.0,0.0,0.0,0.0,0.0,-3.2798,-3.3962,-3.5109,-3.5854,-3.6872,-3.7685,-3.7962,-3.8566,-3.9017,-3.9192,-3.9298,-3.9502,-3.9911,-4.0036,-4.0118,-4.0233,-4.0196,-4.0196,-4.0321,-4.0267,-4.0248,-4.026,-4.0118,-3.9966,-3.9783,-3.94,-3.8961,-3.8493,-3.8092,-3.756,-3.6956,-3.6457,-3.5994,-3.5571,-3.5258,-3.4994,-3.4804,-3.4366,-3.4102,-3.4052,-3.4052,-3.3901,-3.3646,-3.4002,-3.4202,-3.4202,-3.3901,-3.385,-3.3951,-3.3662,-3.3593,-3.3682,-3.3818,-3.3882,-3.3969,-3.4744,-3.4967,-3.4981,-3.5385,-3.5439,-3.5359,-3.5359,-3.5213,-3.4935,-3.4317,-3.3879,-3.3297,-3.242,-3.1536,-3.082,-3.0482,-3.0062,-2.9792,-2.9792,-2.9792,-2.9534,-2.8633,-2.7718,-2.6648,-2.5294,-2.4317,-2.3667,-2.3144,-2.3135,-2.3135,-2.3135,-2.3135,-2.3135,-2.3135,-2.3135,-2.3135,-2.3135,-2.3135,-2.3135,-2.3135,-2.3493,-2.358,-2.3503,-2.3927,-2.4196,-2.4206,-2.4368,-2.454,-2.454,-2.454,-2.4775,0.0,0.0,0.0,0.0,-3.0912,0.0,-3.2723,-3.3262,-3.397,-3.5604,-3.6466,-3.711,-3.7742,-3.8186,-3.8556,-3.8885,-3.9014,-3.9238,-3.9675,-3.9848,-3.9977,-4.008,-3.988,-3.9819,-4.0002,-3.9838,-3.9712,-3.9764,-3.9659,-3.9472,-3.9099,-3.8783,-3.8345,-3.7825,-3.7469,-3.6956,-3.6241,-3.5968,-3.5571,-3.4994,-3.4835,-3.4675,-3.4431,-3.3665,-3.3287,-3.3287,-3.3287,-3.2933,-3.2437,-3.2986,-3.3323,-3.3427,-3.2933,-3.2841,-3.2986,-3.2949,-3.313,-3.3356,-3.3376,-3.3894,-3.4487,-3.4562,-3.4996,-3.5504,-3.5504,-3.5359,-3.5213,-3.5213,-3.5082,-3.4721,-3.3796,-3.3506,-3.3003,-3.1328,-3.082,-3.062,-2.9934,-2.9792,-2.9792,-2.9792,-2.9792,-2.9534,-2.8633,-2.7718,-2.6648,-2.5294,-2.4317,-2.3667,-2.3144,-2.3135,-2.3135,-2.3135,-2.3135,-2.3135,-2.3135,-2.3135,-2.3135,-2.3135,-2.3135,-2.3135,-2.3135,-2.3319,-2.3503,-2.3503,-2.3667,-2.3937,-2.4206,-2.4368,-2.454,-2.454,-2.454,-2.454,0.0,0.0,0.0,-3.0935,-3.1072,0.0,-3.1803,-3.2427,-3.3093,-3.3546,-3.4504,-3.5349,-3.5629,-3.6067,-3.6437,-3.6611,-3.7272,-3.8127,-3.9182,-3.9414,-3.9483,-3.9333,-3.9414,-3.9505,-3.9529,-3.9576,-3.9622,-3.9626,-3.9289,-3.883,-3.8342,-3.8065,-3.7685,-3.7264,-3.6917,-3.6516,-3.5994,-3.5661,-3.5052,-3.4202,-3.4053,-3.3633,-3.2902,-3.2741,-3.2664,-3.2602,-3.2602,-3.2547,-3.2398,-3.213,-3.2321,-3.2687,-3.268,-3.2749,-3.2788,-3.2492,-3.2716,-3.3261,-3.3396,-3.3937,-3.4562,-3.513,-3.5385,-3.5504,-3.5504,-3.5439,-3.5439,-3.5439,-3.5439,-3.5148,-3.4002,-3.3269,-3.2464,-3.118,-3.0482,-3.0011,-2.9869,-2.9792,-2.9792,-2.9792,-2.9792,-2.9534,-2.8633,-2.7718,-2.6648,-2.5294,-2.4317,-2.3667,-2.3144,-2.3135,-2.3135,-2.3135,-2.3135,-2.3135,-2.3135,-2.3135,-2.3135,-2.3135,-2.3135,-2.3135,-2.3135,-2.3319,-2.3406,-2.3144,-2.3406,-2.3667,-2.3841,-2.4282,-2.454,-2.454,-2.454,-2.454,-3.0582,-3.0692,-3.0871,-3.1078,-3.1252,0.0,0.0,-3.2471,-3.2809,-3.3208,-3.4057,-3.4728,-3.4889,-3.5418,-3.5872,-3.5987,-3.6723,-3.7308,-3.7371,-3.8377,-3.9063,-3.8952,-3.8971,-3.9017,-3.9044,-3.9017,-3.9008,-3.8952,-3.8663,-3.8328,-3.7931,-3.7596,-3.7226,-3.6759,-3.6433,-3.589,-3.514,-3.483,-3.4301,-3.3495,-3.3255,-3.2886,-3.24,-3.2099,-3.1905,-3.1807,-3.1936,-3.1766,-3.148,-3.158,-3.158,-3.1549,-3.1637,-3.1766,-3.1853,-3.2028,-3.26,-3.3337,-3.3815,-3.4427,-3.504,-3.5385,-3.5504,-3.5504,-3.5504,-3.5504,-3.5424,-3.4935,-3.4773,-3.4409,-3.3003,-3.2263,-3.1609,-3.062,-3.0075,-2.9792,-2.9792,-2.9792,-2.9792,-2.9792,-2.9792,-2.9534,-2.8633,-2.7718,-2.6648,-2.5294,-2.4317,-2.3667,-2.3144,-2.3135,-2.3135,-2.3135,-2.3135,-2.3135,-2.3135,-2.3135,-2.3135,-2.3135,-2.3135,-2.3135,-2.3135,-2.3232,-2.3232,-2.3135,-2.3319,-2.359,-2.3667,-2.411,-2.4368,-2.4368,-2.4454,-2.454,-3.0716,-3.0831,-3.0975,-3.1274,-3.1445,-3.1692,0.0,0.0,0.0,-3.3151,-3.3713,-3.4126,0.0,-3.482,-3.5266,-3.5084,-3.5914,-3.6245,-3.5209,-3.6833,-3.8125,-3.8129,-3.8358,-3.8431,-3.8328,-3.8191,-3.8172,-3.8256,-3.7959,-3.77,-3.7523,-3.7226,-3.6821,-3.6249,-3.589,-3.5232,-3.4333,-3.3987,-3.3479,-3.2772,-3.2431,-3.2139,-3.1901,-3.145,-3.119,-3.1058,-3.1248,-3.1029,-3.0628,-3.1146,-3.1029,-3.0628,-3.0762,-3.0821,-3.0969,-3.1766,-3.2627,-3.3434,-3.4247,-3.4936,-3.5504,-3.5504,-3.5424,-3.5279,-3.5279,-3.5148,-3.4935,-3.4153,-3.3837,-3.3463,-3.1928,-3.1341,-3.097,-2.9998,-2.9792,-2.9792,-2.9792,-2.9792,-2.9792,-2.9792,-2.9792,-2.9534,-2.8633,-2.7718,-2.6565,-2.5294,-2.4317,-2.358,-2.3144,-2.3135,-2.3135,-2.3135,-2.3135,-2.3135,-2.3135,-2.3135,-2.3135,-2.3135,-2.3135,-2.3135,-2.3135,-2.3135,-2.3135,-2.3135,-2.3319,-2.3416,-2.3416,-2.3851,-2.412,-2.4206,-2.4368,-2.454,-3.0975,-3.0935,-3.1055,-3.1402,-3.1521,-3.1576,-3.1492,0.0,-3.173,-3.2044,0.0,-3.2371,-3.2529,0.0,0.0,-3.1815,-3.3232,-3.4178,-3.3323,-3.4605,-3.5657,-3.5759,-3.7136,-3.7796,-3.7073,-3.712,-3.7395,-3.7998,-3.7128,-3.6701,-3.6981,-3.6736,-3.6318,-3.5694,-3.5174,-3.4624,-3.4037,-3.3531,-3.281,-3.1849,-3.1664,-3.1203,-3.0539,-3.0493,-3.0433,-3.0433,-3.0613,-3.0687,-3.0628,-3.0687,-3.0687,-3.0628,-3.0762,-3.0895,-3.1161,-3.199,-3.2764,-3.3589,-3.4247,-3.4936,-3.5504,-3.5504,-3.5052,-3.4461,-3.4461,-3.3973,-3.3437,-3.3367,-3.3199,-3.282,-3.1796,-3.1341,-3.097,-2.9998,-2.9792,-2.9792,-2.9792,-2.9792,-2.9792,-2.9792,-2.9792,-2.9534,-2.8633,-2.7557,-2.6472,-2.5294,-2.4231,-2.3406,-2.3144,-2.3135,-2.3135,-2.3135,-2.3135,-2.3135,-2.3135,-2.3135,-2.3135,-2.3135,-2.3135,-2.3135,-2.3135,-2.3135,-2.3135,-2.3135,-2.3144,-2.3144,-2.3144,-2.358,-2.3937,-2.4206,-2.4368,-2.454,-3.0958,-3.1057,-3.1233,-3.1509,-3.154,-3.1486,-3.1359,-3.1157,-3.1055,-3.1196,0.0,0.0,0.0,0.0,0.0,0.0,-3.2757,-3.3406,-3.2336,-3.3916,-3.5221,-3.5273,-3.6,-3.655,-3.6744,-3.7124,-3.7468,-3.765,-3.7201,-3.6849,-3.6696,-3.6122,-3.5582,-3.5052,-3.4333,-3.3684,-3.3093,-3.2648,-3.2059,-3.1336,-3.1073,-3.0718,-3.0312,-3.0447,-3.0387,-3.0312,-3.0507,-3.0568,-3.0568,-3.0568,-3.0642,-3.0702,-3.0762,-3.1115,-3.1586,-3.2568,-3.333,-3.4017,-3.4831,-3.5265,-3.5424,-3.4986,-3.461,-3.4245,-3.3754,-3.3422,-3.3073,-3.2648,-3.242,-3.206,-3.1246,-3.0797,-3.0495,-3.0075,-2.9869,-2.9792,-2.9792,-2.9792,-2.9792,-2.9792,-2.9792,-2.9534,-2.8633,-2.7557,-2.6389,-2.5294,-2.4145,-2.3406,-2.3135,-2.3135,-2.3135,-2.3135,-2.3135,-2.3135,-2.3135,-2.3135,-2.3135,-2.3135,-2.3135,-2.3135,-2.3135,-2.3135,-2.3135,-2.3135,-2.3135,-2.3135,-2.3135,-2.3406,-2.3764,-2.4024,-2.4368,-2.454,-3.1308,-3.1341,-3.1355,-3.1482,-3.1506,-3.1433,-3.1139,-3.0918,-3.0773,-3.0773,-3.0942,0.0,0.0,0.0,-3.1588,-3.1271,0.0,-3.2738,-3.1524,-3.3073,-3.4321,-3.427,-3.4587,-3.5153,-3.6006,-3.6452,-3.6751,-3.6814,-3.6696,-3.6527,-3.6444,-3.5671,-3.5001,-3.4544,-3.3684,-3.2933,-3.2272,-3.1864,-3.1422,-3.0955,-3.0642,-3.0447,-3.0312,-3.0447,-3.0447,-3.0312,-3.0507,-3.0568,-3.0568,-3.0568,-3.0702,-3.0821,-3.0895,-3.1454,-3.2294,-3.3043,-3.3606,-3.41,-3.4896,-3.5067,-3.4787,-3.4192,-3.3822,-3.3616,-3.3073,-3.2733,-3.2519,-3.1955,-3.1663,-3.1381,-3.0836,-3.0394,-3.0075,-3.0075,-2.9934,-2.9792,-2.9792,-2.9792,-2.9792,-2.9792,-2.9624,-2.9131,-2.8303,-2.7313,-2.6389,-2.5284,-2.4145,-2.3319,-2.3144,-2.3135,-2.3135,-2.3135,-2.3135,-2.3135,-2.3135,-2.3135,-2.3135,-2.3135,-2.3135,-2.3135,-2.3135,-2.3135,-2.3135,-2.3135,-2.3135,-2.3135,-2.3135,-2.3416,-2.358,-2.3841,-2.4196,-2.4464,-3.2226,-3.1851,-3.1364,-3.1309,-3.1423,-3.1342,-3.0692,-3.0733,-3.0895,-3.0982,-3.1044,-3.1123,-3.1123,-3.1414,-3.1342,-3.0209,-3.1319,0.0,0.0,-3.1445,-3.2109,-3.1856,-3.2661,-3.3611,-3.4491,-3.4352,-3.4532,-3.5283,-3.4988,-3.5223,-3.6249,-3.5481,-3.4816,-3.4431,-3.3355,-3.2516,-3.1946,-3.1394,-3.0955,-3.0628,-3.0387,-3.0312,-3.0312,-3.0312,-3.0312,-3.0312,-3.0507,-3.0568,-3.0568,-3.0568,-3.0702,-3.0821,-3.1014,-3.1989,-3.3253,-3.3268,-3.3338,-3.3499,-3.4109,-3.3905,-3.3297,-3.3213,-3.272,-3.2146,-3.2146,-3.1603,-3.1061,-3.1048,-3.0911,-3.0698,-3.0698,-3.0394,-3.0075,-3.0075,-2.9934,-2.9792,-2.9792,-2.9792,-2.9792,-2.9792,-2.9131,-2.8211,-2.7313,-2.6812,-2.6224,-2.521,-2.3973,-2.3144,-2.3135,-2.3135,-2.3135,-2.3135,-2.3135,-2.3135,-2.3135,-2.3135,-2.3135,-2.3135,-2.3135,-2.3135,-2.3135,-2.3135,-2.3135,-2.3135,-2.3135,-2.3135,-2.3135,-2.3416,-2.358,-2.3841,-2.411,-2.4282,-3.1765,-3.1725,-3.155,-3.147,-3.138,-3.1246,-3.0641,-3.0526,-3.0584,-3.0609,-3.0675,-3.0699,-3.0699,-3.0821,-3.0778,-3.0318,-3.0931,-3.1193,0.0,-3.0931,-3.1355,-3.149,-3.2609,-3.3493,-3.3684,-3.4495,-3.5013,-3.5029,-3.557,-3.5754,-3.5464,-3.464,-3.3953,-3.3355,-3.2422,-3.1838,-3.161,-3.1292,-3.1014,-3.0955,-3.0642,-3.0507,-3.0507,-3.0507,-3.0251,-2.987,-3.0387,-3.0326,-2.9931,-2.9931,-3.0129,-3.0355,-3.0324,-3.0991,-3.2134,-3.2533,-3.3252,-3.397,-3.3696,-3.3422,-3.3143,-3.2648,-3.229,-3.2015,-3.1529,-3.1185,-3.0986,-3.0986,-3.0911,-3.0911,-3.0911,-3.0609,-3.0292,-3.0292,-3.0011,-2.9792,-2.9792,-2.9792,-2.9624,-2.904,-2.8712,-2.8051,-2.6483,-2.5986,-2.5484,-2.4402,-2.3744,-2.3319,-2.3135,-2.3135,-2.3135,-2.3135,-2.3135,-2.3135,-2.3135,-2.3135,-2.3135,-2.3135,-2.3135,-2.2784,-2.2236,-2.2148,-2.2148,-2.2148,-2.2148,-2.2511,-2.3135,-2.3232,-2.3319,-2.358,-2.3677,-2.4024,-3.2047,-3.2074,-3.1953,-3.1892,-3.1821,-3.1577,-3.0871,-3.0754,-3.0754,-3.0711,-3.0582,-3.0591,-3.1061,-3.0731,-3.0483,-3.0662,-3.0842,-3.0804,0.0,-3.0675,-3.0861,-3.1089,-3.1994,-3.2671,-3.2876,-3.3516,-3.4116,-3.4687,-3.4939,-3.5043,-3.4941,-3.4053,-3.3287,-3.2749,-3.2023,-3.1539,-3.1366,-3.119,-3.1014,-3.0895,-3.0447,-3.0251,-3.0251,-2.9979,-2.9608,-2.9219,-2.967,-2.9608,-2.9219,-2.9219,-2.9421,-2.9727,-2.9836,-3.0512,-3.1481,-3.2103,-3.283,-3.3408,-3.2648,-3.239,-3.2318,-3.1882,-3.175,-3.1603,-3.1123,-3.0986,-3.0947,-3.0738,-3.083,-3.0934,-3.0738,-3.053,-3.0368,-3.0368,-3.0075,-2.9714,-2.9378,-2.9378,-2.9052,-2.8211,-2.7718,-2.7139,-2.5986,-2.5421,-2.484,-2.41,-2.3677,-2.3416,-2.3232,-2.3144,-2.3135,-2.3135,-2.3135,-2.3135,-2.3135,-2.3135,-2.3135,-2.3135,-2.2784,-2.2325,-2.1695,-2.1329,-2.1212,-2.1355,-2.1589,-2.2036,-2.2818,-2.3037,-2.3232,-2.3503,-2.3406,-2.3667]}]]